[[{"header":{"parameterUnit":"m.s-1","parameterCategory":1,"la1":30.6,"la2":29.2853,"lo1":-89.7004,"lo2":-87.6739,"dy":0.0162,"dx":0.0183,"nx":112,"ny":82,"refTime":"2024-05-24T12:00:00:Z","depth":0,"parameterNumber":2,"parameterNumberName":"U-component_of_WINDS"},"data":[0.0,0.0,0.0,0.0,0.0,0.0,0.0,0.0,0.0,0.0,0.0,0.0,0.0,0.0,0.0,0.0,0.0,0.0,0.0,0.0,0.0,0.0,0.0,0.0,0.0,0.0,0.0,0.0,0.0,0.0,0.0,0.0,0.0,0.0,0.0,0.0,0.0,0.0,0.0,0.0,0.0,0.0,0.0,0.0,0.0,0.0,0.0,0.0,0.0,0.0,0.0,0.0,0.0,0.0,0.0,0.0,0.0,0.0,0.0,0.0,0.0,0.0,0.0,0.0,0.0,0.0,0.0,0.0,0.0,0.0,0.0,0.0,0.0,0.0,0.0,0.0,0.0,0.0,0.0,0.0,0.0,0.0,0.0,0.0,0.0,0.0,0.0,0.0,0.0,0.0,0.0,-0.5038,-0.4356,-0.3882,-0.3882,-0.3122,-0.3119,-0.4426,0.0,0.0,0.0,0.0,0.0,0.0,0.0,0.0,0.0,0.0,0.0,0.0,0.0,0.0,0.0,0.0,0.0,0.0,0.0,0.0,0.0,0.0,0.0,0.0,0.0,0.0,0.0,0.0,0.0,0.0,0.0,0.0,0.0,0.0,0.0,0.0,0.0,0.0,0.0,0.0,0.0,0.0,0.0,0.0,0.0,0.0,0.0,0.0,0.0,0.0,0.0,0.0,0.0,0.0,0.0,0.0,0.0,0.0,0.0,0.0,0.0,0.0,0.0,0.0,0.0,0.0,0.0,0.0,0.0,0.0,0.0,0.0,0.0,0.0,0.0,0.0,0.0,0.0,0.0,0.0,0.0,0.0,0.0,0.0,0.0,0.0,0.0,0.0,0.0,0.0,0.0,0.0,0.0,0.0,0.0,0.0,0.0,0.0,0.0,0.0,0.0,0.0,0.0,0.0,-0.4889,-0.5075,-0.5133,-0.5119,-0.5119,-0.468,-0.446,-0.4478,0.0,0.0,0.0,0.0,0.0,0.0,0.0,0.0,0.0,0.0,0.0,0.0,0.0,0.0,0.0,0.0,0.0,0.0,0.0,0.0,0.0,0.0,0.0,0.0,0.0,0.0,0.0,0.0,0.0,0.0,0.0,0.0,0.0,0.0,0.0,0.0,0.0,0.0,0.0,0.0,0.0,0.0,0.0,0.0,0.0,0.0,0.0,0.0,0.0,0.0,0.0,0.0,0.0,0.0,0.0,0.0,0.0,0.0,0.0,0.0,0.0,0.0,0.0,0.0,0.0,0.0,0.0,0.0,0.0,0.0,0.0,0.0,0.0,0.0,0.0,0.0,0.0,0.0,0.0,0.0,0.0,0.0,0.0,0.0,0.0,0.0,0.0,0.0,0.0,0.0,0.0,0.0,0.0,0.0,0.0,0.0,0.0,0.0,0.0,0.0,0.0,0.0,0.0,-0.4555,-0.5098,-0.5277,-0.5335,-0.5376,-0.5376,-0.5038,-0.48,-0.4646,-0.3968,0.0,0.0,0.0,0.0,0.0,0.0,0.0,0.0,0.0,0.0,0.0,0.0,0.0,0.0,0.0,0.0,0.0,0.0,0.0,0.0,0.0,0.0,0.0,0.0,0.0,0.0,0.0,0.0,0.0,0.0,0.0,0.0,0.0,0.0,0.0,0.0,0.0,0.0,0.0,0.0,0.0,0.0,0.0,0.0,0.0,0.0,0.0,0.0,0.0,0.0,0.0,0.0,0.0,0.0,0.0,0.0,0.0,0.0,0.0,0.0,0.0,0.0,0.0,0.0,0.0,0.0,0.0,0.0,0.0,0.0,0.0,0.0,0.0,0.0,0.0,0.0,0.0,0.0,0.0,0.0,0.0,0.0,0.0,0.0,0.0,0.0,0.0,0.0,0.0,0.0,0.0,0.0,0.0,0.0,0.0,0.0,0.0,0.0,0.0,0.0,0.0,0.0,-0.4299,-0.5186,-0.5449,-0.5389,-0.5442,-0.5413,-0.5077,-0.4799,-0.4646,-0.3938,0.0,0.0,0.0,0.0,0.0,0.0,0.0,0.0,0.0,0.0,0.0,0.0,0.0,0.0,0.0,0.0,0.0,0.0,0.0,0.0,0.0,0.0,0.0,0.0,0.0,0.0,0.0,0.0,0.0,0.0,0.0,0.0,0.0,0.0,0.0,0.0,0.0,0.0,0.0,0.0,0.0,0.0,0.0,0.0,0.0,0.0,0.0,0.0,0.0,0.0,0.0,0.0,0.0,0.0,0.0,0.0,0.0,0.0,0.0,0.0,0.0,0.0,0.0,0.0,0.0,0.0,0.0,0.0,0.0,0.0,0.0,0.0,0.0,0.0,0.0,0.0,0.0,0.0,0.0,0.0,0.0,0.0,0.0,0.0,0.0,0.0,0.0,0.0,0.0,0.0,0.0,0.0,0.0,0.0,0.0,0.0,0.0,0.0,0.0,0.0,0.0,0.0,-0.4145,-0.522,-0.5528,-0.5447,-0.542,-0.5562,-0.504,-0.4643,-0.4543,-0.3828,0.0,0.0,0.0,0.0,0.0,0.0,0.0,0.0,0.0,0.0,0.0,0.0,0.0,0.0,0.0,0.0,0.0,0.0,0.0,0.0,0.0,0.0,0.0,0.0,0.0,0.0,0.0,0.0,0.0,0.0,0.0,0.0,0.0,0.0,0.0,0.0,0.0,0.0,0.0,0.0,0.0,0.0,0.0,0.0,0.0,0.0,0.0,0.0,0.0,0.0,0.0,0.0,0.0,0.0,0.0,0.0,0.0,0.0,0.0,0.0,0.0,0.0,0.0,0.0,0.0,0.0,0.0,0.0,0.0,0.0,0.0,0.0,0.0,0.0,0.0,0.0,0.0,0.0,0.0,0.0,0.0,0.0,0.0,0.0,0.0,0.0,0.0,0.0,0.0,0.0,0.0,0.0,0.0,0.0,0.0,0.0,0.0,0.0,0.0,0.0,0.0,0.0,-0.4545,-0.5253,0.0,-0.5454,-0.5423,-0.5579,-0.5125,-0.4728,-0.4532,0.0,0.0,0.0,0.0,0.0,0.0,0.0,0.0,0.0,0.0,0.0,0.0,0.0,0.0,0.0,0.0,0.0,0.0,0.0,0.0,0.0,0.0,0.0,0.0,0.0,0.0,0.0,0.0,0.0,0.0,0.0,0.0,0.0,0.0,0.0,0.0,0.0,0.0,0.0,0.0,0.0,0.0,0.0,0.0,0.0,0.0,0.0,0.0,0.0,0.0,0.0,0.0,0.0,0.0,0.0,0.0,0.0,0.0,0.0,0.0,0.0,0.0,0.0,0.0,0.0,0.0,0.0,0.0,0.0,0.0,0.0,0.0,0.0,0.0,0.0,0.0,0.0,0.0,0.0,0.0,0.0,0.0,0.0,0.0,0.0,0.0,0.0,0.0,0.0,0.0,0.0,0.0,0.0,0.0,0.0,0.0,0.0,0.0,0.0,0.0,0.0,0.0,-0.4555,-0.4969,-0.5301,0.0,-0.5525,-0.5494,-0.5644,-0.5159,-0.4735,-0.4532,0.0,0.0,0.0,0.0,0.0,0.0,0.0,0.0,0.0,0.0,0.0,0.0,0.0,0.0,0.0,0.0,0.0,0.0,0.0,0.0,0.0,0.0,0.0,0.0,0.0,0.0,0.0,0.0,0.0,0.0,0.0,0.0,0.0,0.0,0.0,0.0,0.0,0.0,0.0,0.0,0.0,0.0,0.0,0.0,0.0,0.0,0.0,0.0,0.0,0.0,0.0,0.0,0.0,0.0,0.0,0.0,0.0,0.0,0.0,0.0,0.0,0.0,0.0,0.0,0.0,0.0,0.0,0.0,0.0,0.0,0.0,0.0,0.0,0.0,0.0,0.0,0.0,0.0,0.0,0.0,0.0,0.0,0.0,0.0,0.0,0.0,0.0,0.0,0.0,0.0,0.0,0.0,0.0,0.0,0.0,0.0,0.0,0.0,0.0,0.0,0.0,0.0,-0.4703,-0.5123,-0.5474,-0.5769,-0.5674,-0.5647,-0.5789,-0.5121,-0.4626,0.0,0.0,0.0,0.0,0.0,0.0,0.0,0.0,0.0,0.0,0.0,0.0,0.0,0.0,0.0,0.0,0.0,0.0,0.0,0.0,0.0,0.0,0.0,0.0,0.0,0.0,0.0,0.0,0.0,0.0,0.0,0.0,0.0,0.0,0.0,0.0,0.0,0.0,0.0,0.0,0.0,0.0,0.0,0.0,0.0,0.0,0.0,0.0,0.0,0.0,0.0,0.0,0.0,0.0,0.0,0.0,0.0,0.0,0.0,0.0,0.0,0.0,0.0,0.0,0.0,0.0,0.0,0.0,0.0,0.0,0.0,0.0,0.0,0.0,0.0,0.0,0.0,0.0,0.0,0.0,0.0,0.0,0.0,0.0,0.0,0.0,0.0,0.0,0.0,0.0,0.0,0.0,0.0,0.0,0.0,0.0,0.0,0.0,0.0,0.0,0.0,0.0,0.0,-0.4522,-0.5054,-0.5474,-0.5769,-0.5674,-0.5647,-0.5789,-0.5216,-0.4741,-0.4532,0.0,0.0,0.0,0.0,0.0,0.0,0.0,0.0,0.0,0.0,0.0,0.0,0.0,0.0,0.0,0.0,0.0,0.0,0.0,0.0,0.0,0.0,0.0,0.0,0.0,0.0,0.0,0.0,0.0,0.0,0.0,0.0,0.0,0.0,0.0,0.0,0.0,0.0,0.0,0.0,0.0,0.0,0.0,0.0,0.0,0.0,0.0,0.0,0.0,0.0,0.0,0.0,0.0,0.0,0.0,0.0,0.0,0.0,0.0,0.0,0.0,0.0,0.0,0.0,0.0,0.0,0.0,0.0,0.0,0.0,0.0,0.0,0.0,0.0,0.0,0.0,0.0,0.0,0.0,0.0,0.0,0.0,0.0,0.0,0.0,0.0,0.0,0.0,0.0,0.0,0.0,0.0,0.0,0.0,0.0,0.0,0.0,0.0,0.0,0.0,0.0,0.0,-0.4553,-0.5128,-0.563,-0.5867,-0.5817,-0.5776,-0.58,-0.5311,-0.4874,-0.4572,0.0,0.0,0.0,0.0,0.0,0.0,0.0,0.0,0.0,0.0,0.0,0.0,0.0,0.0,0.0,0.0,0.0,0.0,0.0,0.0,0.0,0.0,0.0,0.0,0.0,0.0,0.0,0.0,0.0,0.0,0.0,0.0,0.0,0.0,0.0,0.0,0.0,0.0,0.0,0.0,0.0,0.0,0.0,0.0,0.0,0.0,0.0,0.0,0.0,0.0,0.0,0.0,0.0,0.0,0.0,0.0,0.0,0.0,0.0,0.0,0.0,0.0,0.0,0.0,0.0,0.0,0.0,0.0,0.0,0.0,0.0,0.0,0.0,0.0,0.0,0.0,0.0,0.0,0.0,0.0,0.0,0.0,0.0,0.0,0.0,0.0,0.0,0.0,0.0,0.0,0.0,0.0,0.0,0.0,0.0,0.0,0.0,0.0,0.0,0.0,0.0,0.0,-0.4653,-0.5348,-0.5861,-0.6013,-0.603,-0.5969,-0.5813,-0.5403,-0.502,-0.4711,0.0,0.0,0.0,0.0,0.0,0.0,0.0,0.0,0.0,0.0,0.0,0.0,0.0,0.0,0.0,0.0,0.0,0.0,0.0,0.0,0.0,0.0,0.0,0.0,0.0,0.0,0.0,0.0,0.0,0.0,0.0,0.0,0.0,0.0,0.0,0.0,0.0,0.0,0.0,0.0,0.0,0.0,0.0,0.0,0.0,0.0,0.0,0.0,0.0,0.0,0.0,0.0,0.0,0.0,0.0,0.0,0.0,0.0,0.0,0.0,-0.0,0.0,0.0,0.0,0.0,0.0,0.0,0.0,0.0,0.0,0.0,0.0,0.0,0.0,0.0,0.0,0.0,0.0,0.0,0.0,0.0,0.0,0.0,0.0,0.0,0.0,0.0,0.0,0.0,0.0,0.0,0.0,0.0,0.0,0.0,0.0,0.0,0.0,0.0,0.0,0.0,0.0,-0.4799,-0.5416,-0.5861,-0.6013,-0.603,-0.5969,-0.5813,-0.5501,-0.5135,-0.4718,0.0,0.0,0.0,0.0,0.0,0.0,0.0,0.0,0.0,0.0,0.0,0.0,0.0,0.0,0.0,0.0,0.0,0.0,0.0,0.0,0.0,0.0,0.0,0.0,0.0,0.0,0.0,0.0,0.0,0.0,0.0,0.0,0.0,0.0,0.0,0.0,0.0,0.0,0.0,0.0,0.0,0.0,0.0,0.0,0.0,0.0,0.0,0.0,0.0,0.0,0.0,0.0,0.0,0.0,0.0,0.0,0.0,0.0,0.0,0.0,0.0,-0.0,0.0,0.0,0.0,0.0,0.0,0.0,0.0,0.0,0.0,0.0,0.0,0.0,0.0,0.0,0.0,0.0,0.0,0.0,0.0,0.0,0.0,0.0,0.0,0.0,0.0,0.0,0.0,0.0,0.0,0.0,0.0,0.0,0.0,0.0,0.0,0.0,0.0,0.0,0.0,0.0,-0.4945,-0.5477,-0.5888,-0.6118,-0.6139,-0.6078,-0.5925,-0.564,-0.5338,-0.5033,-0.4531,0.0,0.0,0.0,0.0,0.0,0.0,0.0,0.0,0.0,0.0,0.0,0.0,0.0,0.0,0.0,0.0,0.0,0.0,0.0,0.0,0.0,0.0,0.0,0.0,0.0,0.0,0.0,0.0,0.0,0.0,0.0,0.0,0.0,0.0,0.0,0.0,0.0,0.0,0.0,0.0,0.0,0.0,0.0,0.0,0.0,0.0,0.0,0.0,0.0,0.0,0.0,0.0,0.0,0.0,-0.0,-0.0,-0.0,-0.0,-0.0,-0.0,-0.0,-0.0,0.0,0.0,0.0,0.0,0.0,0.0,0.0,0.0,0.0,0.0,0.0,0.0,0.0,0.0,0.0,0.0,0.0,0.0,0.0,0.0,0.0,0.0,0.0,0.0,0.0,-0.5684,-0.514,0.0,0.0,0.0,0.0,0.0,0.0,0.0,0.0,0.0,0.0,0.0,0.0,-0.5135,-0.5579,-0.5949,-0.623,-0.6338,-0.62,-0.604,-0.5783,-0.5552,-0.5439,-0.4758,-0.4257,0.0,0.0,0.0,0.0,0.0,0.0,0.0,0.0,0.0,0.0,0.0,0.0,0.0,0.0,0.0,0.0,0.0,0.0,0.0,0.0,0.0,0.0,0.0,0.0,0.0,0.0,0.0,0.0,0.0,0.0,0.0,0.0,0.29,0.3155,0.0,0.0,0.0,0.0,0.0,0.0,0.0,0.0,0.0,0.0,0.0,0.0,0.0,0.0,0.2046,0.3518,0.4237,0.4255,0.1337,-0.0,-0.0,-0.0,-0.0,-0.0,-0.0,0.0,-0.0,-0.0,0.0,0.0,0.0,0.0,0.0,0.0,0.0,0.0,0.0,0.0,0.0,0.0,0.0,0.0,0.0,0.0,0.0,0.0,0.0,0.0,0.0,0.0,-0.5833,-0.5813,-0.6012,-0.6044,0.0,-0.5087,-0.4779,-0.4656,0.0,0.0,0.0,0.0,0.0,0.0,0.0,0.0,-0.5454,-0.5803,-0.6067,-0.624,-0.6338,-0.62,-0.604,-0.5871,-0.5654,-0.5446,-0.5142,-0.483,-0.4477,-0.4229,0.0,0.0,0.0,0.0,0.0,0.0,0.0,0.0,0.0,0.0,0.0,0.0,0.0,0.0,0.0,0.0,0.0,0.0,0.0,0.0,0.0,0.0,0.0,0.0,0.0,0.0,0.0,0.0,0.0,0.2832,0.3226,0.3565,0.3598,0.3598,0.0,0.0,0.0,0.0,0.0,0.0,0.0,0.0,0.0,0.3549,0.3243,0.2379,0.0777,0.1559,0.1991,0.1941,0.0634,-0.0,-0.0,-0.0,-0.0,-0.0,-0.0,-0.0,-0.0,-0.0,-0.0,-0.0,0.0,0.0,0.0,0.0,-0.1724,-0.4276,-0.6079,-0.6503,0.0,0.0,0.0,0.0,0.0,0.0,0.0,0.0,0.0,0.0,0.0,0.0,0.0,-0.6176,-0.6346,-0.6471,-0.6335,-0.6115,-0.5682,0.0,-0.4937,-0.4745,-0.4253,0.0,0.0,0.0,0.0,0.0,-0.5644,-0.5895,-0.6088,-0.6244,-0.6338,-0.6234,-0.6166,-0.6017,-0.5837,-0.5623,-0.5389,-0.5131,-0.485,-0.4535,-0.4206,0.0,0.0,0.0,0.0,0.0,0.0,0.0,0.0,0.0,0.0,0.0,0.0,0.0,0.0,0.0,0.0,0.0,0.0,0.0,0.0,0.0,0.0,0.0,0.0,0.0,0.0,0.0,0.0,0.3175,0.3574,0.3877,0.3929,0.3959,0.0,0.0,0.0,0.0,0.0,0.0,0.3816,0.3009,0.2581,0.2665,0.3085,0.2279,-0.0,-0.0,-0.0,-0.0,-0.0,-0.0,-0.0,-0.0,-0.0,-0.0,-0.0,-0.0,-0.0,-0.0,-0.0,-0.015,-0.1306,-0.1841,-0.1743,-0.1136,-0.3175,-0.6277,-0.6829,-0.6904,-0.6619,-0.6187,0.0,-0.6309,-0.6277,0.0,0.0,0.0,0.0,-0.6057,-0.6156,-0.6285,-0.6458,-0.6563,-0.6705,-0.6803,-0.6766,-0.6668,-0.6366,0.0,-0.5599,-0.5511,-0.4908,0.0,0.0,0.0,0.0,-0.5437,-0.581,-0.5993,-0.6132,-0.6247,-0.6338,-0.6338,-0.6338,-0.6118,-0.5966,-0.5813,-0.5562,-0.5332,-0.5138,-0.4809,-0.4528,-0.4307,0.0,0.0,0.0,0.0,0.0,0.0,0.0,0.0,0.0,0.0,0.0,0.0,0.0,0.0,0.0,0.0,0.0,0.0,0.0,0.0,0.0,0.0,0.0,0.0,0.0,0.0,0.0,0.0,0.0,0.4153,0.4369,0.0,0.0,0.0,0.0,0.1994,0.1885,0.2663,0.4375,0.4362,0.3111,0.0234,0.024,0.0164,-0.0,-0.0,-0.0,-0.0,-0.0,-0.0,-0.0,-0.0,-0.0,-0.0,-0.0,-0.0,-0.0,-0.0,-0.0,-0.0483,-0.4944,-0.6772,-0.6453,-0.4215,-0.3557,-0.4105,-0.6141,-0.6725,-0.6585,-0.661,-0.6458,-0.63,-0.628,-0.607,0.0,0.0,-0.6108,-0.6342,-0.641,-0.6671,-0.6898,-0.6905,-0.7014,-0.7082,-0.6946,-0.6912,-0.6807,0.0,-0.619,-0.5949,-0.5766,0.0,-0.5545,-0.5545,-0.5674,-0.5827,-0.5996,-0.6156,-0.6251,-0.6261,-0.6338,-0.6338,-0.6338,-0.6118,-0.5966,-0.5813,-0.5661,-0.5443,-0.5142,-0.5108,-0.4894,-0.4515,-0.4287,0.0,0.0,0.0,0.0,0.0,0.0,0.0,0.0,0.0,0.0,0.0,0.0,0.0,0.0,0.0,0.0,0.0,0.0,0.0,0.0,0.0,0.0,0.0,0.0,0.0,0.0,0.0,0.0,0.4555,0.4571,0.0,0.0,0.3741,0.41,0.3569,0.172,0.0927,0.1542,0.1638,0.1128,-0.0,-0.0,-0.0,-0.0,-0.0,-0.0,-0.0,-0.0,-0.0,-0.0,-0.0,-0.0,-0.0,-0.0,-0.1956,-0.5141,-0.5128,-0.5129,-0.5326,-0.7021,-0.761,-0.7337,-0.6468,-0.6198,-0.637,-0.7091,-0.7307,-0.7204,-0.7149,-0.6993,-0.6827,-0.6827,-0.6749,-0.6695,-0.6851,-0.6932,-0.701,-0.716,-0.7278,-0.736,-0.736,-0.7397,-0.7394,-0.7244,-0.7214,-0.7153,-0.6943,-0.6664,-0.6383,-0.6139,-0.6129,-0.6125,-0.6034,-0.6142,-0.6288,-0.6441,-0.6424,-0.6396,-0.6396,-0.6315,-0.6338,-0.6338,-0.6118,-0.5966,-0.5813,-0.5667,-0.5498,-0.5287,-0.5094,-0.4918,-0.4758,-0.4368,-0.3926,0.0,0.0,0.0,0.0,0.0,0.0,0.0,0.0,0.0,0.0,0.0,0.0,0.0,0.0,0.0,0.0,0.0,0.0,0.0,0.0,0.0,0.0,0.0,0.0,0.0,0.0,0.3238,0.39,0.448,0.4324,0.3107,0.2956,0.2973,0.2946,0.1136,-0.0,-0.0,-0.0,-0.0,-0.0,-0.0,-0.0,-0.0,-0.0,-0.0,-0.0,-0.0,-0.0,-0.0,-0.0,-0.0979,-0.2676,-0.2676,-0.4698,-0.8019,-0.8018,-0.7962,-0.7967,-0.7944,-0.782,-0.7629,-0.7636,-0.7663,-0.7667,-0.7674,-0.7607,-0.7584,-0.7482,-0.738,-0.7295,-0.7295,-0.7295,-0.7316,-0.7421,-0.7448,-0.7472,-0.7573,-0.76,-0.76,-0.76,-0.76,-0.757,-0.7468,-0.7448,-0.7417,-0.7316,-0.7054,-0.677,-0.6529,-0.6563,-0.6576,-0.643,-0.6488,-0.6586,-0.6688,-0.6614,-0.6549,-0.6549,-0.642,-0.6332,-0.6332,-0.6146,-0.5966,-0.5813,-0.5667,-0.5498,-0.5291,-0.5094,-0.4945,-0.4843,-0.4344,-0.4026,-0.3727,0.0,0.0,0.0,0.0,0.0,0.0,0.0,0.0,0.0,0.0,0.0,0.0,0.0,0.0,0.0,0.0,0.0,0.0,0.0,0.0,0.0,0.0,0.0,0.155,0.1612,0.1868,0.207,0.4001,0.4977,0.4415,0.1684,-0.0,-0.0,-0.0,-0.0,-0.0,-0.0,-0.0,-0.0,-0.0,-0.0,-0.0,-0.0,-0.0,-0.0,-0.0,-0.0,-0.0,-0.0,-0.2827,-0.7717,-0.7922,-0.8026,-0.8026,-0.7922,-0.7918,-0.7889,-0.7763,-0.7729,-0.7725,-0.7617,-0.7614,-0.7614,-0.7614,-0.7614,-0.7614,-0.7614,-0.7614,-0.7614,-0.7614,-0.7614,-0.7614,-0.7614,-0.7614,-0.7614,-0.7614,-0.7614,-0.7614,-0.7614,-0.7614,-0.7611,-0.7607,-0.7607,-0.7604,-0.76,-0.736,-0.7109,-0.6966,-0.6939,-0.6885,-0.6736,-0.6715,0.0,-0.6715,-0.6712,-0.6709,-0.6709,-0.6569,-0.6478,-0.6471,-0.62,-0.5966,-0.5813,-0.5664,-0.5447,-0.5148,-0.5131,-0.4992,-0.4697,-0.4263,-0.4036,-0.4026,0.0,0.0,0.0,0.0,0.0,0.0,0.0,0.0,0.0,0.0,0.0,0.0,0.0,0.0,0.0,0.0,0.0,0.0,0.0,0.0,0.0,0.0,0.3324,0.3011,0.1545,0.0548,0.0591,0.1146,0.1415,0.1213,0.0492,-0.0,-0.0,-0.0,-0.0,-0.0,-0.0,-0.0,-0.0,-0.0,-0.0,-0.0,-0.0,-0.0,-0.0,-0.0,-0.0,-0.0,-0.0,-0.0808,-0.2424,-0.6295,-0.8039,-0.7818,-0.5854,-0.5536,-0.6237,-0.7486,-0.7957,-0.7946,-0.7926,-0.7919,-0.7919,-0.7919,-0.7919,-0.7919,-0.7919,-0.7919,-0.7919,-0.7919,-0.7919,-0.7919,-0.7919,-0.7919,-0.7919,-0.7919,-0.7919,-0.7919,-0.7919,-0.7919,-0.7889,-0.7777,-0.7753,-0.7723,-0.7617,-0.7529,-0.7424,-0.7275,-0.7156,-0.7068,-0.7027,-0.7017,0.0,-0.7017,-0.6929,-0.6865,-0.6865,-0.6729,-0.6593,-0.6481,-0.62,-0.5966,-0.5813,-0.5562,-0.5386,-0.5301,-0.5189,-0.4992,-0.4697,-0.4568,-0.4402,0.0,0.0,0.0,0.0,0.0,0.0,0.0,0.0,0.0,0.0,0.0,0.0,0.0,0.0,0.0,0.0,0.0,0.0,0.0,0.0,0.0,0.0,0.2937,0.3215,0.2238,0.0856,-0.0,-0.0,-0.0,-0.0,-0.0,-0.0,-0.0,-0.0,-0.0,-0.0,-0.0,-0.0,-0.0,-0.0,-0.0,-0.0,-0.0,-0.0,-0.0,-0.0,-0.0,-0.0,-0.0,-0.0,-0.0,0.0,-0.4446,-0.6992,-0.7805,-0.5534,-0.5325,0.0,0.0,0.0,0.0,0.0,-0.8038,-0.8038,-0.8038,-0.8038,-0.8038,-0.8038,-0.8038,-0.8038,-0.8038,-0.8038,-0.8038,-0.8038,-0.8038,-0.8038,-0.8038,-0.8038,-0.8038,-0.8038,-0.8038,-0.8014,-0.7926,-0.7906,-0.7882,-0.7801,-0.7733,0.0,-0.757,-0.7377,-0.7214,-0.7149,-0.7139,-0.7139,-0.7139,-0.7068,-0.7017,-0.7017,-0.6885,-0.6759,-0.6671,-0.6332,0.0,0.0,0.0,-0.5399,-0.527,-0.5121,0.0,0.0,0.0,0.0,0.0,0.0,0.0,0.0,-0.4467,-0.4487,0.0,0.0,0.0,0.0,0.0,0.0,0.0,0.0,0.0,0.0,0.0,0.0,0.0,0.0,0.0,0.0,0.1812,0.2417,0.031,-0.0,-0.0,-0.0,-0.0,-0.0,-0.0,-0.0,-0.0,-0.0,-0.0,-0.0,-0.0,0.0,0.0,0.0,0.0,-0.0,-0.0,-0.0606,-0.0909,-0.0909,-0.0303,-0.0,-0.0,-0.0606,-0.0907,-0.1006,-0.3112,-0.5534,-0.7885,-0.6339,-0.6645,-0.7982,-0.7955,-0.8041,-0.8038,-0.8038,-0.8038,-0.8038,-0.8038,0.0,0.0,-0.8038,-0.8038,-0.8038,-0.8038,-0.8038,-0.8038,-0.8038,-0.8038,-0.8038,-0.8038,-0.8038,-0.8038,-0.8038,-0.8038,-0.8038,-0.8038,-0.8038,-0.8038,-0.8038,-0.7929,-0.7831,-0.7814,-0.758,-0.7343,-0.719,-0.7166,-0.716,-0.7143,-0.7139,-0.7139,-0.7139,0.0,0.0,-0.6929,-0.6549,-0.6295,-0.6342,-0.5854,-0.5491,-0.5216,-0.5084,-0.5009,-0.4996,-0.5135,-0.5264,-0.5456,-0.5538,-0.5623,-0.5627,-0.5074,-0.503,0.0,0.0,0.0,0.0,0.0,0.0,0.0,0.0,0.0,0.0,0.0,0.0,0.0,0.0,0.0,-0.0,0.0361,0.0538,0.0078,-0.0,-0.0,-0.0,-0.0,-0.0,-0.0,-0.0,-0.0,-0.0,-0.0,-0.0,-0.0,-0.0,0.0,-0.0,-0.0,-0.0,-0.0,-0.4244,-0.6483,-0.6382,0.0,0.0,-0.0101,-0.4442,-0.648,-0.6374,-0.4728,-0.5534,-0.7989,-0.7669,-0.7656,-0.8048,-0.7962,-0.7955,-0.8038,-0.8038,-0.8038,-0.8038,-0.8038,-0.8038,-0.8038,-0.8038,-0.8038,-0.8038,-0.8038,-0.8038,0.0,-0.8038,-0.8038,-0.8038,-0.8038,-0.8038,-0.8038,-0.8038,-0.8038,-0.8038,-0.8038,-0.8038,-0.8038,-0.8038,-0.8014,-0.7957,-0.7831,-0.7668,-0.7502,-0.735,-0.7326,-0.7282,-0.7156,-0.7139,-0.7139,-0.7139,-0.7115,-0.7054,-0.6939,-0.6736,-0.6515,-0.6278,-0.5945,-0.5735,-0.5674,-0.5647,-0.5576,-0.5464,-0.5599,-0.563,-0.5545,-0.5691,-0.5823,-0.5939,-0.5698,-0.5633,0.0,0.0,0.0,0.0,0.0,0.0,0.0,0.0,0.0,0.0,0.0,-0.0,0.0,0.0,-0.0,-0.0,-0.0,-0.0,-0.0,-0.0,-0.0,-0.0,-0.0,-0.0,-0.0,-0.0,-0.0,-0.0,-0.0,-0.0,-0.0,-0.0,-0.0,-0.0,-0.2625,-0.4041,-0.4041,-0.5352,-0.667,-0.8006,-0.5242,-0.3317,-0.2109,-0.4734,-0.677,-0.7902,-0.6553,-0.6751,-0.7979,-0.7962,-0.8048,-0.8041,-0.7952,-0.8048,-0.8038,-0.8038,-0.8038,-0.8038,-0.8038,-0.8038,-0.8038,-0.8038,-0.8038,-0.8038,-0.8038,-0.8038,-0.8038,-0.8038,-0.8038,-0.8038,-0.8038,-0.8038,-0.8038,-0.8038,-0.8038,-0.8038,-0.8038,-0.8038,-0.8038,-0.8038,-0.8038,-0.8014,-0.794,-0.7868,-0.7743,-0.7519,-0.7421,-0.7343,-0.7265,-0.7187,-0.7139,-0.7139,-0.7139,-0.7112,-0.7041,-0.6898,-0.6685,-0.6386,-0.6156,-0.5996,-0.5918,-0.584,-0.5769,-0.5698,-0.584,-0.5918,-0.5925,-0.6067,-0.6217,-0.6363,-0.6288,-0.621,0.0,0.0,0.0,0.0,0.0,0.0,0.0,0.0,-0.0,-0.0,-0.0,-0.0,-0.0,-0.0,-0.0,-0.0,-0.0,-0.0,-0.0,-0.0,-0.0,-0.0,-0.0,-0.0,-0.0,-0.0,-0.0,-0.0,-0.0,-0.0,-0.0,-0.101,-0.1515,-0.1515,-0.5256,-0.75,-0.8019,-0.5844,-0.5837,-0.7985,-0.7985,-0.6856,-0.4822,-0.4822,-0.5939,-0.7985,-0.7972,-0.7965,-0.7965,-0.8045,-0.8038,-0.8038,-0.8038,-0.8038,-0.8038,-0.8038,-0.8038,-0.8038,-0.8038,-0.8038,-0.8038,-0.8038,-0.8038,-0.8038,-0.8038,-0.8038,-0.8038,-0.8038,-0.8038,-0.8038,-0.8038,-0.8038,-0.8038,-0.8038,-0.8038,-0.8038,-0.8038,-0.8038,-0.8038,-0.8038,-0.8038,-0.8038,-0.8038,-0.8038,-0.7946,-0.7682,-0.7536,-0.7448,-0.7417,-0.7282,-0.7183,-0.7183,-0.7156,-0.7139,-0.7139,-0.701,-0.6824,-0.6576,-0.6427,-0.6291,-0.6166,-0.604,-0.5976,-0.5976,-0.6098,-0.622,-0.6346,-0.6461,-0.658,-0.6702,-0.6729,-0.6678,0.0715,-0.0,-0.0,-0.0,-0.0,-0.0,0.0,0.0,-0.0,-0.0,-0.0,-0.0,-0.0,-0.0,-0.0,-0.0,-0.0,-0.0,-0.0,-0.0,-0.0,-0.0,-0.0,-0.0,-0.0,-0.0,-0.0,-0.0,-0.0,-0.0,-0.0,-0.4549,-0.7098,-0.7098,-0.5343,-0.5636,-0.7992,-0.7672,-0.7666,-0.7975,-0.7975,-0.7872,-0.7563,-0.7563,-0.7669,-0.7972,-0.7952,-0.8041,-0.8041,-0.8041,-0.8038,-0.8038,-0.8038,-0.8038,-0.8038,-0.8038,-0.8038,-0.8038,-0.8038,-0.8038,-0.8038,-0.8038,-0.8038,-0.8038,-0.8038,-0.8038,-0.8038,-0.8038,-0.8038,-0.8038,-0.8038,-0.8038,-0.8038,-0.8038,-0.8038,-0.8038,-0.8038,-0.8038,-0.8038,-0.8038,-0.8038,-0.8038,-0.8038,-0.8038,-0.798,-0.7814,-0.7773,-0.7716,-0.759,-0.7441,-0.7346,-0.7346,-0.7221,-0.7139,-0.7139,-0.701,-0.6915,-0.6878,-0.6736,-0.6644,-0.6627,-0.661,-0.66,-0.66,-0.6617,-0.6634,-0.6651,-0.6668,-0.6681,-0.6705,-0.6841,-0.6895,0.0369,-0.0,0.0,0.0,-0.0,-0.0,-0.0,-0.0,-0.0,-0.0,-0.0,-0.0,-0.0,-0.0,-0.0,0.0,-0.0,-0.0961,-0.3719,-0.4113,-0.3592,-0.2237,-0.2057,-0.2731,-0.4472,-0.3238,-0.2318,-0.2307,-0.2314,-0.2314,-0.2314,-0.4431,-0.6361,-0.7902,-0.6959,-0.6851,-0.7979,-0.7962,-0.7952,-0.7952,-0.7952,-0.7952,-0.7952,-0.7952,-0.7952,-0.7952,-0.8041,-0.8038,-0.8038,-0.8038,-0.8038,-0.8038,-0.8038,-0.8038,-0.8038,-0.8038,-0.8038,-0.8038,-0.8038,-0.8038,-0.8038,-0.8038,-0.8038,-0.8038,-0.8038,-0.8038,-0.8038,-0.8038,-0.8038,-0.8038,-0.8038,-0.8038,-0.8038,-0.8038,-0.8038,-0.8038,-0.8038,-0.8038,-0.8038,-0.8038,-0.8038,-0.8038,-0.8038,-0.8038,-0.8018,-0.7953,-0.7868,-0.779,-0.7729,-0.7594,-0.7468,-0.738,-0.7234,-0.7139,-0.7139,-0.7085,-0.7051,-0.7051,-0.6915,-0.6834,-0.6834,-0.6749,-0.6702,-0.6702,-0.6702,-0.6746,-0.6834,-0.6834,-0.6875,-0.6956,-0.7021,-0.7051,-0.0226,0.0,0.0,-0.0,-0.0,-0.0,-0.0,-0.0,-0.0,-0.0,-0.0,-0.0382,-0.1529,-0.1742,0.0,-0.1089,-0.1028,-0.2188,-0.5649,-0.6668,-0.648,-0.4741,-0.4556,-0.545,-0.7584,-0.6183,-0.5122,-0.5114,-0.5129,-0.5129,-0.5129,-0.5127,-0.6039,-0.7982,-0.7972,-0.7962,-0.7962,-0.8048,-0.8038,-0.8038,-0.8038,-0.8038,-0.8038,-0.8038,-0.8062,-0.8102,-0.8058,-0.8065,-0.8099,-0.8058,-0.8038,-0.8038,-0.8038,-0.8038,-0.8038,-0.8038,-0.8038,-0.8038,-0.8038,-0.8038,-0.8038,-0.8038,-0.8038,-0.8038,-0.8038,-0.8038,-0.8038,-0.8038,-0.8038,-0.8038,-0.8038,-0.8038,-0.8038,-0.8038,-0.8038,-0.8038,-0.8038,-0.8038,-0.8038,-0.8038,-0.8038,-0.8038,-0.8038,-0.8038,-0.8038,-0.8038,-0.7943,-0.7875,-0.7875,-0.7746,-0.76,-0.7451,-0.7295,-0.7204,-0.7204,-0.7166,-0.7139,-0.7139,-0.7044,-0.6987,-0.6987,-0.6878,-0.682,-0.682,-0.682,-0.6875,-0.6987,-0.6987,-0.7041,-0.7143,-0.7183,-0.7204,0.0,0.0,-0.0,-0.0,-0.0,-0.0,-0.0,-0.0,-0.0,-0.0,-0.0,-0.1255,-0.5361,-0.6125,-0.5513,-0.3762,-0.3502,-0.3577,-0.365,-0.5646,-0.7101,-0.7009,-0.6999,-0.7148,0.0,-0.7657,-0.7876,-0.7865,-0.7885,-0.7885,-0.7885,-0.7875,-0.7872,-0.7972,-0.7952,-0.8041,-0.8041,-0.8038,-0.8038,-0.8038,-0.8038,-0.8038,-0.8038,-0.8038,-0.8123,-0.8255,-0.8106,-0.8126,-0.8252,-0.8102,-0.8038,-0.8038,-0.8038,-0.8038,-0.8038,-0.8038,-0.8038,-0.8038,-0.8038,-0.8038,-0.8038,-0.8038,-0.8038,-0.8038,-0.8038,-0.8038,-0.8038,-0.8038,-0.8038,-0.8038,-0.8038,-0.8038,-0.8038,-0.8038,-0.8038,-0.8038,-0.8038,-0.8038,-0.8038,-0.8038,-0.8038,-0.8038,-0.8038,-0.8038,-0.8038,-0.8038,-0.8035,-0.8031,-0.8031,-0.7899,-0.775,-0.7607,-0.7455,-0.7363,-0.7363,-0.7227,-0.7139,-0.7139,-0.7136,-0.7132,-0.7132,-0.7129,-0.7126,-0.7126,-0.7126,-0.7129,-0.7132,-0.7132,-0.7136,-0.7143,-0.7295,-0.7363,0.0,0.0,-0.1716,-0.035,-0.0,-0.0,-0.0,-0.0,-0.0,-0.0,-0.0,-0.0458,-0.1875,-0.4424,-0.6205,-0.6003,-0.5951,-0.5959,-0.5891,-0.6715,-0.7288,-0.7081,-0.7244,0.0,0.0,0.0,0.0,-0.7892,-0.7997,-0.7955,-0.7955,-0.7952,-0.7952,-0.7952,-0.8041,-0.8038,-0.8038,-0.8038,-0.8038,-0.8038,-0.8038,-0.8092,-0.8194,-0.8194,-0.8272,-0.8408,-0.8357,-0.8364,-0.8408,-0.8353,-0.8333,-0.8333,-0.8333,-0.8275,-0.8194,-0.8194,-0.813,-0.8038,-0.8038,-0.8038,-0.8038,-0.8038,-0.8038,-0.8038,-0.8038,-0.8038,-0.8038,-0.8038,-0.8038,-0.8038,-0.8038,-0.8038,-0.8038,-0.8038,-0.8038,-0.8038,-0.8038,-0.8038,-0.8038,-0.8038,-0.8038,-0.8038,-0.8038,-0.8038,-0.8038,-0.8038,-0.8038,-0.8038,-0.8038,-0.7906,-0.7794,-0.7746,-0.7611,-0.7522,-0.7522,-0.738,-0.7292,-0.7292,-0.7197,-0.7139,-0.7139,-0.7139,-0.7139,-0.7139,-0.7139,-0.7139,-0.7139,-0.7139,-0.7193,-0.7295,-0.7346,-0.7424,-0.5165,-0.4578,-0.3633,-0.2554,-0.1127,-0.0,-0.0,-0.0,-0.0308,-0.1351,-0.1631,-0.1686,-0.187,-0.4106,-0.6105,-0.6788,-0.6805,-0.6932,-0.7193,-0.7282,-0.7309,-0.7305,-0.7343,0.0,0.0,0.0,0.0,-0.7882,-0.7984,-0.8038,-0.8038,-0.8038,-0.8038,-0.8038,-0.8038,-0.8038,-0.8038,-0.8038,-0.8069,-0.8123,-0.8123,-0.8201,-0.8347,-0.8347,-0.8425,-0.856,-0.8506,-0.8513,-0.856,-0.8506,-0.8482,-0.8482,-0.8482,-0.8425,-0.8347,-0.8347,-0.8252,-0.8113,-0.8058,-0.8038,-0.8038,-0.8038,-0.8038,-0.8038,-0.8038,-0.8038,-0.8038,-0.8038,-0.8038,-0.8038,-0.8038,-0.8038,-0.8038,-0.8038,-0.8038,-0.8038,-0.8038,-0.8038,-0.8038,-0.8038,-0.8432,-0.8726,-0.8726,-0.9118,-0.9213,-0.8825,-0.9118,-0.9019,-0.8137,-0.7953,-0.7892,-0.7892,-0.776,-0.7675,-0.7675,-0.7539,-0.7451,-0.7451,-0.736,-0.7278,-0.7224,-0.7221,-0.7197,-0.7143,-0.7193,-0.7221,-0.7224,-0.7278,-0.7356,-0.7455,-0.7506,-0.758,-0.5318,-0.5411,-0.553,-0.5992,-0.3168,-0.0314,-0.0314,-0.0154,-0.0899,-0.3803,-0.4427,-0.4694,0.0,0.0,-0.5408,-0.6335,-0.6356,-0.6539,-0.7268,-0.7251,-0.7272,0.0,0.0,0.0,0.0,0.0,0.0,-0.8028,0.0,-0.8038,-0.8038,-0.8038,-0.8038,-0.8038,-0.8038,-0.8038,-0.8038,-0.8045,-0.8126,-0.8272,-0.8279,-0.8357,-0.8492,-0.8492,-0.8577,-0.8713,-0.8567,-0.8587,-0.871,-0.8564,-0.8506,-0.8506,-0.8506,-0.8503,-0.8492,-0.8492,-0.8404,-0.8258,-0.8113,-0.8052,-0.8038,-0.8038,-0.8038,-0.8038,-0.8038,-0.8038,-0.8038,-0.8038,-0.8038,-0.8038,-0.8038,-0.8038,-0.8038,-0.8038,-0.8038,-0.8038,-0.8038,-0.8038,-0.8137,-0.8137,-0.9217,-1.0096,-1.0096,-1.1072,-1.1463,-1.0293,-1.1165,-1.0974,-0.8432,-0.8137,-0.8237,-0.8237,-0.8101,-0.8014,-0.8014,-0.7879,-0.7795,-0.7795,-0.7788,-0.7716,-0.7657,-0.7563,-0.7403,-0.7252,-0.7305,-0.7383,-0.7383,-0.7529,-0.7604,-0.7614,-0.7746,-0.7814,-0.5613,-0.5768,-0.5501,-0.4243,-0.4292,-0.4611,-0.4151,-0.277,-0.1882,-0.2631,-0.3699,-0.4531,0.0,0.0,0.0,-0.6245,-0.6482,0.0,-0.7299,-0.7434,0.0,0.0,0.0,-0.7716,-0.7753,-0.779,0.0,0.0,-0.8038,-0.8038,-0.8038,-0.8038,-0.8038,-0.8038,-0.8038,-0.8038,-0.8038,-0.8153,-0.8231,-0.8272,-0.8377,-0.8506,-0.8652,-0.8652,-0.8733,-0.8879,-0.8838,-0.8845,-0.8876,-0.8838,-0.8821,-0.8821,-0.8821,-0.8754,-0.8652,-0.8652,-0.8557,-0.8421,-0.8384,-0.8225,-0.8038,-0.8038,-0.8038,-0.8038,-0.8038,-0.8038,-0.8038,-0.8038,-0.8038,-0.8038,-0.8038,-0.8038,-0.8038,-0.8038,-0.8038,-0.8038,-0.8038,-0.8825,-0.9509,-0.9509,-1.0485,-1.1463,-1.1463,-1.1653,-1.175,-1.1458,-1.1653,-1.1361,-0.9702,-1.0288,-1.0872,-1.0872,-1.0923,-1.0891,-1.0891,-1.0705,-1.0683,-1.0683,-1.0534,-1.0513,-1.0461,-0.9451,-0.8974,-0.8926,-0.7973,-0.7543,-0.7543,-0.758,-0.7655,-0.7756,-0.7794,-0.7872,-0.5837,-0.6023,-0.5701,-0.4046,-0.419,-0.4836,-0.5259,-0.4347,-0.3324,-0.3205,-0.3922,0.0,0.0,0.0,0.0,0.0,0.0,0.0,-0.7278,-0.7444,-0.7573,0.0,-0.7804,0.0,-0.7906,-0.7913,-0.7946,0.0,-0.8038,-0.8038,-0.8038,-0.8038,-0.8038,-0.8038,-0.8038,-0.8072,-0.814,-0.8228,-0.8336,-0.8465,-0.8543,-0.8662,-0.8811,-0.8811,-0.8859,-0.894,0.0,-0.894,-0.894,-0.894,-0.894,-0.894,-0.894,-0.8886,-0.8811,-0.8811,-0.8713,-0.8581,-0.8581,-0.8428,-0.8235,-0.8235,-0.8235,-0.8221,-0.816,-0.814,-0.8126,-0.8058,-0.8038,-0.8038,-0.8038,-0.8038,-0.8137,-0.8726,-0.8924,-0.9019,-0.9604,-1.0288,-1.0974,-1.1648,-1.2328,-1.2915,-1.3499,-1.3596,-1.3403,-1.2813,-1.3204,-1.3108,-1.1843,-1.1848,-1.1945,-1.1945,-1.1945,-1.1945,-1.1945,-1.1829,-1.1758,-1.1758,-1.1731,-1.1614,-1.161,-1.03,-0.9605,-0.952,-0.8306,-0.7692,-0.7692,-0.776,-0.7834,-0.7913,-0.7913,-0.7957,-0.602,-0.6166,-0.6035,-0.4766,-0.3836,-0.3521,-0.5041,-0.5149,-0.4857,-0.4562,0.0,-0.4467,-0.4633,0.0,-0.4952,-0.5657,0.0,-0.6335,-0.7217,-0.736,-0.7529,-0.796,-0.7909,-0.7892,-0.8028,-0.8038,-0.8038,-0.8038,-0.8038,-0.8038,-0.8038,-0.8038,-0.8038,-0.8038,-0.8038,-0.8102,-0.8238,-0.8279,-0.8428,-0.8679,-0.872,-0.8811,-0.894,-0.894,-0.894,-0.894,0.0,0.0,-0.894,-0.894,-0.894,-0.894,-0.894,-0.894,-0.894,-0.894,-0.8855,-0.874,-0.874,-0.8655,-0.8537,-0.8496,-0.8482,-0.8459,-0.8336,-0.8286,-0.8241,-0.8109,-0.8055,-0.8038,-0.8038,-0.8137,-0.8528,-0.9706,-1.0096,-1.0583,-1.1653,-1.2042,-1.2522,-1.3878,-1.4166,-1.4459,-1.5635,-1.5832,-1.5439,-1.4364,-1.5051,-1.5439,-1.4268,-1.3108,-1.2431,-1.2431,-1.2431,-1.2431,-1.2431,-1.2431,-1.2431,-1.2431,-1.2431,-1.224,-1.2036,-1.0796,-0.9957,-0.9601,-0.8438,-0.7841,-0.7841,-0.7974,-0.8038,-0.8038,-0.8038,-0.8038,-0.6179,-0.6247,-0.6278,-0.5957,-0.5692,-0.5448,-0.5419,-0.5114,0.0,0.0,0.0,-0.4274,-0.4271,-0.4629,0.0,-0.5545,0.0,0.0,0.0,0.0,-0.7492,0.0,0.0,0.0,0.0,0.0,0.0,0.0,0.0,0.0,-0.8038,-0.8038,-0.8038,-0.8038,-0.8038,-0.8052,-0.8079,-0.8323,-0.8472,-0.8523,-0.8777,-0.8913,-0.894,-0.894,-0.894,-0.894,0.0,0.0,-0.894,-0.894,-0.894,-0.894,-0.894,-0.894,-0.894,-0.894,-0.892,-0.8899,-0.8899,-0.8882,-0.8818,-0.8564,-0.8482,-0.8476,-0.8452,-0.8364,-0.8265,-0.8238,-0.814,-0.8038,-0.8038,-0.8821,-0.9706,-0.9899,-1.0779,-1.1653,-1.1848,-1.2813,-1.3974,-1.5242,-1.5439,-1.5534,-1.573,-1.5832,-1.573,-1.5534,-1.5635,-1.573,-1.5534,-1.5248,-1.5146,-1.5146,-1.5146,-1.5146,-1.5146,-1.5146,-1.5146,-1.5146,-1.5146,-1.4638,-1.3521,-1.2271,-1.0997,-0.99,-0.8671,-0.7997,-0.7997,-0.8028,-0.8038,-0.8038,-0.8038,-0.8038,-0.6217,-0.6264,-0.6271,-0.6271,-0.6037,-0.5752,-0.546,0.0,0.0,0.0,0.0,-0.4103,-0.418,0.0,0.0,0.0,0.0,0.0,0.0,0.0,0.0,0.0,0.0,0.0,0.0,0.0,0.0,0.0,0.0,0.0,-0.8038,-0.8038,-0.8038,-0.8038,-0.8038,-0.8079,-0.816,-0.8299,-0.8411,-0.8486,-0.8713,-0.8818,-0.8821,-0.8903,-0.894,-0.894,-0.894,0.0,-0.894,-0.894,-0.894,-0.894,-0.894,-0.894,-0.894,-0.894,-0.894,-0.894,-0.894,-0.8886,-0.8903,-0.9492,-0.9125,-0.857,-0.8418,-0.8326,-0.8456,-0.897,-0.9084,-0.9217,-0.9899,-1.0485,-1.1165,-1.1843,-1.3006,-1.3884,-1.3884,-1.4465,-1.5045,-1.5635,-1.5832,-1.5832,-1.5832,-1.5832,-1.5832,-1.5832,-1.5832,-1.5832,-1.5832,-1.5832,-1.5832,-1.5832,-1.5832,-1.5832,-1.5832,-1.5832,-1.5534,-1.4854,-1.4848,-1.4172,-1.2915,-1.1653,-1.0583,-0.9998,-0.8726,-0.8038,-0.8038,-0.8038,-0.8038,-0.8038,-0.8038,-0.8038,-0.6179,-0.6237,-0.6254,-0.622,-0.5898,-0.5542,-0.5355,-0.4847,0.0,0.0,-0.4026,-0.4019,-0.412,0.0,0.0,0.0,0.0,0.0,0.0,0.0,0.0,0.0,0.0,0.0,0.0,0.0,0.0,0.0,0.0,0.0,-0.8038,-0.8038,-0.8038,-0.8038,-0.8038,-0.8099,-0.8218,-0.8255,-0.8326,-0.8438,-0.8587,-0.8679,-0.8713,-0.8835,-0.8906,-0.894,-0.894,0.0,0.0,-0.894,-0.894,-0.894,-0.894,-0.894,-0.894,-0.894,-0.9027,-0.9322,-0.9322,-0.9327,-0.9713,-1.0725,-1.0106,-0.9037,-0.9205,-0.9203,-0.9349,-1.0198,-1.0422,-1.0681,-1.1653,-1.2139,-1.2619,-1.3974,-1.5045,-1.5832,-1.5832,-1.5832,-1.5832,-1.5832,-1.5832,-1.5832,-1.5832,-1.5832,-1.5832,-1.5832,-1.5832,-1.5832,-1.5832,-1.5832,-1.5832,-1.5832,-1.5832,-1.5832,-1.5832,-1.5832,-1.5337,-1.4364,-1.407,-1.3392,-1.2334,-1.0877,-0.9998,-0.9998,-0.8726,-0.8038,-0.8038,-0.8038,-0.8038,-0.8038,-0.8038,-0.8038,-0.6047,-0.6156,-0.6227,-0.6088,-0.582,-0.5511,-0.522,0.0,0.0,-0.4023,-0.3921,-0.386,-0.4012,-0.4113,0.0,0.0,0.0,0.0,0.0,0.0,0.0,0.0,0.0,0.0,0.0,0.0,0.0,0.0,0.0,0.0,0.0,-0.8038,-0.8038,-0.8038,-0.8038,-0.8045,-0.8062,-0.8201,-0.8279,-0.8292,-0.8435,-0.8574,-0.871,-0.8723,-0.8808,-0.894,0.0,0.0,0.0,-0.894,-0.894,-0.894,-0.894,-0.894,-0.894,-0.894,-0.9607,-1.0543,-1.0543,-1.1155,-1.2088,-1.2092,-1.1248,-1.046,-1.1662,-1.1928,-1.1864,-1.1944,-1.19,-1.175,-1.1853,-1.2813,-1.407,-1.5343,-1.573,-1.5832,-1.5832,-1.5832,-1.5832,-1.5832,-1.5832,-1.5832,-1.5832,-1.5832,-1.5832,-1.5832,-1.5832,-1.5832,-1.5832,-1.5832,-1.5832,-1.5832,-1.5832,-1.5832,-1.5832,-1.5832,-1.573,-1.5635,-1.4555,-1.3878,-1.368,-1.1356,-0.9998,-0.9998,-0.8726,-0.8038,-0.8038,-0.8038,-0.8038,-0.8038,-0.8038,-0.8038,-0.5956,-0.6074,-0.6105,-0.6044,-0.5739,-0.5396,-0.5179,0.0,-0.4043,-0.4033,-0.3829,-0.3737,-0.3975,-0.407,-0.4229,0.0,-0.4691,-0.4928,0.0,0.0,0.0,0.0,0.0,0.0,0.0,0.0,0.0,0.0,0.0,0.0,0.0,-0.8038,-0.8038,-0.8038,-0.8038,-0.8038,-0.8038,-0.8099,-0.8133,-0.8133,-0.8282,-0.8387,-0.8448,-0.8533,-0.9183,-1.0077,0.0,0.0,0.0,-0.9159,-0.8855,-0.8937,-0.9915,-1.0179,-1.0089,-1.0936,-1.1451,-1.1703,-1.1703,-1.1976,-1.239,-1.3098,-1.2934,-1.2496,-1.2208,-1.2048,-1.2175,-1.3046,-1.318,-1.3295,-1.4076,-1.4657,-1.5146,-1.5635,-1.5832,-1.5832,-1.5832,-1.5832,-1.5832,-1.5832,-1.5832,-1.5832,-1.5832,-1.5832,-1.5832,-1.5832,-1.5832,-1.5832,-1.5832,-1.5832,-1.5832,-1.5832,-1.5832,-1.5832,-1.5832,-1.5832,-1.5439,-1.4657,-1.4166,-1.3584,-1.2716,-1.1653,-1.117,-1.117,-1.0583,-1.0386,-1.0386,-1.0386,-1.0386,-1.0386,-1.0386,-1.0386,-0.5745,-0.5895,-0.5952,-0.5911,-0.5593,-0.5254,0.0,0.0,-0.4019,-0.4019,-0.3785,-0.367,-0.3965,-0.4019,-0.4117,-0.447,-0.4556,-0.4687,-0.5135,0.0,0.0,0.0,0.0,0.0,0.0,0.0,0.0,0.0,0.0,0.0,0.0,-0.8038,-0.8038,-0.8038,-0.8038,-0.8038,-0.8038,-0.8038,-0.8038,-0.8041,-0.815,-0.8225,-0.8275,-0.8777,-0.9634,-1.0733,0.0,0.0,0.0,-0.985,-0.9448,-1.0093,-1.1048,-1.1394,-1.127,-1.2316,-1.2802,-1.2913,-1.2913,-1.3063,-1.3456,-1.435,-1.4522,-1.4268,-1.3301,-1.3011,-1.321,-1.4172,-1.4459,-1.4657,-1.5534,-1.5832,-1.5832,-1.5832,-1.5832,-1.5832,-1.5832,-1.5832,-1.5832,-1.5832,-1.5832,-1.5832,-1.5832,-1.5832,-1.5832,-1.5832,-1.5832,-1.5832,-1.5832,-1.5832,-1.5832,-1.5832,-1.5832,-1.5832,-1.5832,-1.5832,-1.5439,-1.4561,-1.407,-1.3686,-1.3108,-1.2334,-1.2042,-1.2522,-1.2139,-1.1945,-1.1945,-1.1945,-1.1945,-1.1945,-1.1945,-1.1945,-0.5432,-0.5583,-0.5769,-0.563,-0.5362,-0.5094,0.0,-0.4453,-0.4019,-0.4019,-0.3785,-0.367,-0.3965,-0.4019,-0.4117,-0.447,-0.4589,-0.4847,-0.5363,0.0,0.0,0.0,0.0,0.0,0.0,0.0,0.0,0.0,0.0,0.0,0.0,-0.8038,-0.8038,-0.8038,-0.8038,-0.8038,-0.8038,-0.8038,-0.8038,-0.8038,-0.8041,-0.8123,-0.8371,-0.9568,-1.0268,0.0,0.0,0.0,0.0,-1.0962,-1.1169,-1.2407,-1.2407,-1.2407,-1.2402,-1.2402,-1.3074,-1.4074,-1.4074,-1.4795,-1.5737,-1.5737,-1.5737,-1.5737,-1.573,-1.573,-1.573,-1.5737,-1.5737,-1.5825,-1.5832,-1.5832,-1.5832,-1.5832,-1.5832,-1.5832,-1.5832,-1.5832,-1.5832,-1.5832,-1.5832,-1.5832,-1.5832,-1.5832,-1.5832,-1.5832,-1.5832,-1.5832,-1.5832,-1.5832,-1.5832,-1.5832,-1.5832,-1.5832,-1.5832,-1.5832,-1.5825,-1.5825,-1.4561,-1.4459,-1.573,-1.3301,-1.2522,-1.3872,-1.2624,-1.1945,-1.1945,-1.1945,-1.1945,-1.1945,-1.1945,-1.1945,-0.5003,-0.5199,-0.5308,-0.5165,-0.5057,-0.4918,-0.4663,-0.4304,-0.3988,-0.3883,-0.371,-0.3639,-0.3829,-0.3948,-0.4151,-0.4555,-0.4748,0.0,0.0,0.0,0.0,0.0,0.0,0.0,0.0,0.0,0.0,0.0,0.0,0.0,0.0,-0.8038,-0.8038,-0.8038,-0.8038,-0.8038,-0.8038,-0.8038,-0.8432,-0.941,-0.941,-0.9834,-1.0775,-1.1166,0.0,0.0,0.0,0.0,0.0,-1.2233,-1.1958,-1.2505,-1.3529,-1.3729,-1.3685,-1.4694,-1.5127,-1.5281,-1.5281,-1.5517,-1.5832,-1.5832,-1.5832,-1.5832,-1.5832,-1.5832,-1.5832,-1.5832,-1.5832,-1.5832,-1.5832,-1.5832,-1.5832,-1.5832,-1.5832,-1.5832,-1.5832,-1.5832,-1.5832,-1.5832,-1.5832,-1.5832,-1.5832,-1.5832,-1.5832,-1.5832,-1.5832,-1.5832,-1.5832,-1.5832,-1.5832,-1.5832,-1.5832,-1.5832,-1.5832,-1.5832,-1.5832,-1.5832,-1.5439,-1.5343,-1.5825,-1.5051,-1.4758,-1.5146,-1.4758,-1.4567,-1.4567,-1.4567,-1.4567,-1.4567,-1.4567,-1.4567,0.0,-0.4853,-0.4958,-0.4925,-0.4833,-0.4697,-0.4563,-0.4189,-0.3907,-0.3812,-0.368,-0.3643,-0.3839,-0.3955,-0.4148,-0.4541,-0.4684,0.0,0.0,0.0,0.0,0.0,0.0,0.0,0.0,0.0,0.0,0.0,0.0,0.0,0.0,0.0,-0.8038,-0.8038,-0.8038,-0.8237,-0.8726,-0.8726,-0.941,-1.0681,-1.0681,-1.1165,-1.1945,-1.2431,0.0,0.0,0.0,0.0,0.0,-1.3489,-1.3122,-1.3762,-1.467,-1.4961,-1.4814,-1.5809,-1.5985,-1.5832,-1.5832,-1.5832,-1.5832,-1.5832,-1.5832,-1.5832,-1.5832,-1.5832,-1.5832,-1.5832,-1.5832,-1.5832,-1.5832,-1.5832,-1.5832,-1.5832,-1.5832,-1.5832,-1.5832,-1.5832,-1.5832,-1.5832,-1.5832,-1.5832,-1.5832,-1.5832,-1.5832,-1.5832,-1.5832,-1.5832,-1.5832,-1.5832,-1.5832,-1.5832,-1.5832,-1.5832,-1.5832,-1.5832,-1.5832,-1.5832,-1.5832,-1.5832,-1.5832,-1.5832,-1.5832,-1.5832,-1.5832,-1.5832,-1.5832,-1.5832,-1.5832,-1.5832,-1.5832,-1.5832,0.0,0.0,0.0,0.0,-0.4633,-0.4484,-0.447,-0.409,0.0,-0.3778,-0.3673,-0.3666,-0.3951,-0.4012,-0.4121,-0.4484,-0.4553,0.0,0.0,0.0,0.0,0.0,0.0,0.0,0.0,0.0,0.0,0.0,0.0,0.0,0.0,0.0,-0.8038,-0.8137,-0.8137,-0.8726,-0.9998,-1.0096,-1.0779,-1.2042,-1.2042,-1.2042,-1.2237,-1.3488,0.0,0.0,0.0,0.0,0.0,-1.4561,-1.4752,-1.5832,-1.5832,-1.5832,-1.5832,-1.5832,-1.5832,-1.5832,-1.5832,-1.5832,-1.5832,-1.5832,-1.5832,-1.5832,-1.5832,-1.5832,-1.5832,-1.5832,-1.5832,-1.5832,-1.5832,-1.5832,-1.5832,-1.5832,-1.5832,-1.5832,-1.5832,-1.5832,-1.5832,-1.5832,-1.5832,-1.5832,-1.5832,-1.5832,-1.5832,-1.5832,-1.5832,-1.5832,-1.5832,-1.5832,-1.5832,-1.5832,-1.5832,-1.5832,-1.5832,-1.5832,-1.5832,-1.5832,-1.5832,-1.5832,-1.5832,-1.5832,-1.5832,-1.5832,-1.5832,-1.5832,-1.5832,-1.5832,-1.5832,-1.5832,-1.5832,-1.5832,-0.3727,0.0,-0.4158,-0.4077,-0.409,-0.4094,0.0,-0.3866,-0.3761,-0.3653,0.0,0.0,-0.3812,-0.3941,-0.4155,0.0,0.0,0.0,0.0,0.0,0.0,0.0,0.0,0.0,0.0,0.0,0.0,0.0,0.0,0.0,0.0,0.0,-0.8432,-0.9509,-0.9509,-0.9706,-0.9998,-1.0974,-1.2134,-1.3392,-1.3392,-1.398,-1.486,-1.5242,0.0,0.0,0.0,0.0,-1.5737,-1.5439,-1.5534,-1.5832,-1.5832,-1.5832,-1.5832,-1.5832,-1.5832,-1.5832,-1.5832,-1.5832,-1.5832,-1.5832,-1.5832,-1.5832,-1.5832,-1.5832,-1.5832,-1.5832,-1.5832,-1.5832,-1.5832,-1.5832,-1.5832,-1.5832,-1.5832,-1.5832,-1.5832,-1.5832,-1.5832,-1.5832,-1.5832,-1.5832,-1.5832,-1.5832,-1.5832,-1.5832,-1.5832,-1.5832,-1.5832,-1.5832,-1.5832,-1.5832,-1.5832,-1.5832,-1.5832,-1.5832,-1.5832,-1.5832,-1.5832,-1.5832,-1.5832,-1.5832,-1.5832,-1.5832,-1.5832,-1.5832,-1.5832,-1.5832,-1.5832,-1.5832,-1.5832,-1.5832,-0.3432,-0.3741,-0.4016,-0.4005,-0.4012,-0.3999,-0.3914,0.0,0.0,0.0,0.0,0.0,0.0,0.0,0.0,0.0,0.0,0.0,0.0,0.0,0.0,0.0,0.0,0.0,0.0,0.0,0.0,0.0,0.0,0.0,0.0,0.0,-0.9217,-0.9998,-1.1161,-1.1745,-1.1745,-1.2425,-1.3494,-1.4752,-1.4752,-1.5146,-1.5832,-1.5832,-1.5832,0.0,0.0,0.0,-1.5832,-1.5832,-1.5832,-1.5832,-1.5832,-1.5832,-1.5832,-1.5832,-1.5832,-1.5832,-1.5832,-1.5832,-1.5832,-1.5832,-1.5832,-1.5832,-1.5832,-1.5832,-1.5832,-1.5832,-1.5832,-1.5832,-1.5832,-1.5832,-1.5832,-1.5832,-1.5832,-1.5832,-1.5832,-1.5832,-1.5832,-1.5832,-1.5832,-1.5832,-1.5832,-1.5832,-1.5832,-1.5832,-1.5832,-1.5832,-1.5832,-1.5832,-1.5832,-1.5832,-1.5832,-1.5832,-1.5832,-1.5832,-1.5832,-1.5832,-1.5832,-1.5832,-1.5832,-1.5832,-1.5832,-1.5832,-1.5832,-1.5832,-1.5832,-1.5832,-1.5832,-1.5832,-1.5832,-1.5832,-0.3259,-0.3614,-0.4016,-0.4093,-0.4046,-0.4019,-0.4019,0.0,0.0,0.0,0.0,0.0,0.0,0.0,0.0,0.0,0.0,0.0,0.0,0.0,0.0,0.0,0.0,0.0,0.0,0.0,0.0,0.0,0.0,0.0,0.0,0.0,0.0,-1.0583,-1.2716,-1.3974,-1.4166,-1.4166,-1.4752,-1.5832,-1.5832,-1.5832,-1.5832,-1.5832,-1.5832,0.0,0.0,0.0,-1.5832,-1.5832,-1.5832,-1.5832,-1.5832,-1.5832,-1.5832,-1.5832,-1.5832,-1.5832,-1.5832,-1.5832,-1.5832,-1.5832,-1.5832,-1.5832,-1.5832,-1.5832,-1.5832,-1.5832,-1.5832,-1.5832,-1.5832,-1.5832,-1.5832,-1.5832,-1.5832,-1.5832,-1.5832,-1.5832,-1.5832,-1.5832,-1.5832,-1.5832,-1.5832,-1.5832,-1.5832,-1.5832,-1.5832,-1.5832,-1.5832,-1.5832,-1.5832,-1.5832,-1.5832,-1.5832,-1.5832,-1.5832,-1.5832,-1.5832,-1.5832,-1.5832,-1.5832,-1.5832,-1.5832,-1.5832,-1.5832,-1.5832,-1.5832,-1.5832,-1.5832,-1.5832,-1.5832,-1.5832,-0.3236,-0.3537,-0.3832,-0.3856,-0.3941,-0.4019,-0.4019,0.0,0.0,0.0,0.0,0.0,0.0,0.0,0.0,0.0,0.0,0.0,0.0,0.0,0.0,0.0,0.0,0.0,0.0,0.0,0.0,0.0,0.0,0.0,0.0,0.0,0.0,-1.3199,-1.368,-1.4459,-1.5534,-1.5534,-1.5635,-1.5832,-1.5832,-1.5832,-1.5832,-1.5832,-1.5832,0.0,0.0,-1.5832,-1.5832,-1.5832,-1.5832,-1.5832,-1.5832,-1.5832,-1.5832,-1.5832,-1.5832,-1.5832,-1.5832,-1.5832,-1.5832,-1.5832,-1.5832,-1.5832,-1.5832,-1.5832,-1.5832,-1.5832,-1.5832,-1.5832,-1.5832,-1.5832,-1.5832,-1.5832,-1.5832,-1.5832,-1.5832,-1.5832,-1.5832,-1.5832,-1.5832,-1.5832,-1.5832,-1.5832,-1.5832,-1.5832,-1.5832,-1.5832,-1.5832,-1.5832,-1.5832,-1.5832,-1.5832,-1.5832,-1.5832,-1.5832,-1.5832,-1.5832,-1.5832,-1.5832,-1.5832,-1.5832,-1.5832,-1.5832,-1.5832,-1.5832,-1.5832,-1.5832,-1.5832,-1.5832,-1.5832,-1.5832,-0.3105,-0.3343,-0.3612,-0.3853,-0.4029,-0.409,-0.409,0.0,0.0,0.0,0.0,0.0,0.0,0.0,0.0,0.0,0.0,0.0,0.0,0.0,0.0,0.0,0.0,0.0,0.0,0.0,0.0,0.0,0.0,0.0,0.0,0.0,0.0,0.0,-1.4555,-1.5242,-1.5825,-1.5832,-1.5832,-1.5832,-1.5832,-1.5832,-1.5832,-1.5832,-1.5832,-1.5832,0.0,-1.5832,-1.5832,-1.5832,-1.5832,-1.5832,-1.5832,-1.5832,-1.5832,-1.5832,-1.5832,-1.5832,-1.5832,-1.5832,-1.5832,-1.5832,-1.5832,-1.5832,-1.5832,-1.5832,-1.5832,-1.5832,-1.5832,-1.5832,-1.5832,-1.5832,-1.5832,-1.5832,-1.5832,-1.5832,-1.5832,-1.5832,-1.5832,-1.5832,-1.5832,-1.5832,-1.5832,-1.5832,-1.5832,-1.5832,-1.5832,-1.5832,-1.5832,-1.5832,-1.5832,-1.5832,-1.5832,-1.5832,-1.5832,-1.5832,-1.5832,-1.5832,-1.5832,-1.5832,-1.5832,-1.5832,-1.5832,-1.5832,-1.5832,-1.5832,-1.5832,-1.5832,-1.5832,-1.5832,-1.5832,-1.5832,-0.3137,-0.3246,-0.3423,-0.3902,0.0,-0.4214,-0.4284,-0.4237,0.0,0.0,0.0,0.0,0.0,0.0,0.0,0.0,0.0,0.0,0.0,0.0,0.0,0.0,0.0,0.0,0.0,0.0,0.0,0.0,0.0,0.0,0.0,0.0,0.0,0.0,-1.5337,-1.5832,-1.5832,-1.5832,-1.5832,-1.5832,-1.5832,-1.5832,-1.5832,-1.5832,-1.5832,-1.5832,-1.5832,-1.5832,-1.5832,-1.5832,-1.5832,-1.5832,-1.5832,-1.5832,-1.5832,-1.5832,-1.5832,-1.5832,-1.5832,-1.5832,-1.5832,-1.5832,-1.5832,-1.5832,-1.5832,-1.5832,-1.5832,-1.5832,-1.5832,-1.5832,-1.5832,-1.5832,-1.5832,-1.5832,-1.5832,-1.5832,-1.5832,-1.5832,-1.5832,-1.5832,-1.5832,-1.5832,-1.5832,-1.5832,-1.5832,-1.5832,-1.5832,-1.5832,-1.5832,-1.5832,-1.5832,-1.5832,-1.5832,-1.5832,-1.5832,-1.5832,-1.5832,-1.5832,-1.5832,-1.5832,-1.5832,-1.5832,-1.5832,-1.5832,-1.5832,-1.5832,-1.5832,-1.5832,-1.5832,-1.5832,-1.5832,-1.5832,-0.3429,-0.3449,-0.3447,-0.4033,-0.4187,0.0,-0.4596,-0.4762,0.0,-0.5023,0.0,0.0,0.0,0.0,0.0,0.0,0.0,0.0,0.0,0.0,0.0,0.0,0.0,0.0,0.0,0.0,0.0,0.0,0.0,0.0,0.0,0.0,0.0,0.0,0.0,-1.5832,-1.5832,-1.5832,-1.5832,-1.5832,-1.5832,-1.5832,-1.5832,-1.5832,-1.5832,-1.5832,-1.5832,-1.5832,-1.5832,-1.5832,-1.5832,-1.5832,-1.5832,-1.5832,-1.5832,-1.5832,-1.5832,-1.5832,-1.5832,-1.5832,-1.5832,-1.5832,-1.5832,-1.5832,-1.5832,-1.5832,-1.5832,-1.5832,-1.5832,-1.5832,-1.5832,-1.5832,-1.5832,-1.5832,-1.5832,-1.5832,-1.5832,-1.5832,-1.5832,-1.5832,-1.5832,-1.5832,-1.5832,-1.5832,-1.5832,-1.5832,-1.5832,-1.5832,-1.5832,-1.5832,-1.5832,-1.5832,-1.5832,-1.5832,-1.5832,-1.5832,-1.5832,-1.5832,-1.5832,-1.5832,-1.5832,-1.5832,-1.5832,-1.5832,-1.5832,-1.5832,-1.5832,-1.5832,-1.5832,-1.5832,-1.5832,-1.5832,-0.3382,-0.3395,-0.3427,-0.3929,-0.4127,0.0,0.0,-0.4809,-0.4958,-0.5101,-0.5206,0.0,0.0,0.0,0.0,0.0,0.0,0.0,0.0,0.0,0.0,0.0,0.0,0.0,0.0,0.0,0.0,0.0,0.0,0.0,0.0,0.0,0.0,0.0,0.0,-1.5832,-1.5832,-1.5832,-1.5832,-1.5832,-1.5832,-1.5832,-1.5832,-1.5832,-1.5832,-1.5832,-1.5832,-1.5832,-1.5832,-1.5832,-1.5832,-1.5832,-1.5832,-1.5832,-1.5832,-1.5832,-1.5832,-1.5832,-1.5832,-1.5832,-1.5832,-1.5832,-1.5832,-1.5832,-1.5832,-1.5832,-1.5832,-1.5832,-1.5832,-1.5832,-1.5832,-1.5832,-1.5832,-1.5832,-1.5832,-1.5832,-1.5832,-1.5832,-1.5832,-1.5832,-1.5832,-1.5832,-1.5832,-1.5832,-1.5832,-1.5832,-1.5832,-1.5832,-1.5832,-1.5832,-1.5832,-1.5832,-1.5832,-1.5832,-1.5832,-1.5832,-1.5832,-1.5832,-1.5832,-1.5832,-1.5832,-1.5832,-1.5832,-1.5832,-1.5832,-1.5832,-1.5832,-1.5832,-1.5832,-1.5832,-1.5832,-1.5832,-0.3396,-0.3456,-0.3541,-0.3942,0.0,0.0,-0.4752,-0.4948,-0.5114,-0.5304,0.0,0.0,0.0,0.0,0.0,0.0,0.0,0.0,0.0,0.0,0.0,0.0,0.0,0.0,0.0,0.0,0.0,0.0,0.0,0.0,0.0,0.0,0.0,0.0,0.0,-1.5832,-1.5832,-1.5832,-1.5832,-1.5832,-1.5832,-1.5832,-1.5832,-1.5832,-1.5832,-1.5832,-1.5832,-1.5832,-1.5832,-1.5832,-1.5832,-1.5832,-1.5832,-1.5832,-1.5832,-1.5832,-1.5832,-1.5832,-1.5832,-1.5832,-1.5832,-1.5832,-1.5832,-1.5832,-1.5832,-1.5832,-1.5832,-1.5832,-1.5832,-1.5832,-1.5832,-1.5832,-1.5832,-1.5832,-1.5832,-1.5832,-1.5832,-1.5832,-1.5832,-1.5832,-1.5832,-1.5832,-1.5832,-1.5832,-1.5832,-1.5832,-1.5832,-1.5832,-1.5832,-1.5832,-1.5832,-1.5832,-1.5832,-1.5832,-1.5832,-1.5832,-1.5832,-1.5832,-1.5832,-1.5832,-1.5832,-1.5832,-1.5832,-1.5832,-1.5832,-1.5832,-1.5832,-1.5832,-1.5832,-1.5832,-1.5832,-1.5832,-0.3537,-0.3683,-0.3866,0.0,0.0,0.0,-0.503,-0.5254,-0.5447,-0.5745,0.0,0.0,0.0,0.0,0.0,0.0,0.0,0.0,0.0,0.0,0.0,0.0,0.0,0.0,0.0,0.0,0.0,0.0,0.0,0.0,0.0,0.0,0.0,0.0,-1.5671,-1.5818,-1.5825,-1.5825,-1.5825,-1.5832,-1.5832,-1.5832,-1.5832,-1.5832,-1.5832,-1.5832,-1.5832,-1.5832,-1.5832,-1.5832,-1.5832,-1.5832,-1.5832,-1.5832,-1.5832,-1.5832,-1.5832,-1.5832,-1.5832,-1.5832,-1.5832,-1.5832,-1.5832,-1.5832,-1.5832,-1.5832,-1.5832,-1.5832,-1.5832,-1.5832,-1.5832,-1.5832,-1.5832,-1.5832,-1.5832,-1.5832,-1.5832,-1.5832,-1.5832,-1.5832,-1.5832,-1.5832,-1.5832,-1.5832,-1.5832,-1.5832,-1.5832,-1.5832,-1.5832,-1.5832,-1.5832,-1.5832,-1.5832,-1.5832,-1.5832,-1.5832,-1.5832,-1.5832,-1.5832,-1.5832,-1.5832,-1.5832,-1.5832,-1.5832,-1.5832,-1.5832,-1.5832,-1.5832,-1.5832,-1.5832,-1.5832,-1.5832,-0.3393,-0.3602,0.0,0.0,0.0,0.0,0.0,-0.5413,0.0,0.0,0.0,0.0,0.0,0.0,0.0,0.0,0.0,0.0,0.0,0.0,0.0,0.0,0.0,0.0,0.0,0.0,0.0,0.0,0.0,0.0,0.0,0.0,0.0,0.0,-1.5177,-1.5317,-1.5524,-1.5524,-1.5625,-1.5832,-1.5832,-1.5832,-1.5832,-1.5832,-1.5832,-1.5832,-1.5832,-1.5832,-1.5832,-1.5832,-1.5832,-1.5832,-1.5832,-1.5832,-1.5832,-1.5832,-1.5832,-1.5832,-1.5832,-1.5832,-1.5832,-1.5832,-1.5832,-1.5832,-1.5832,-1.5832,-1.5832,-1.5832,-1.5832,-1.5832,-1.5832,-1.5832,-1.5832,-1.5832,-1.5832,-1.5832,-1.5832,-1.5832,-1.5832,-1.5832,-1.5832,-1.5832,-1.5832,-1.5832,-1.5832,-1.5832,-1.5832,-1.5832,-1.5832,-1.5832,-1.5832,-1.5832,-1.5832,-1.5832,-1.5832,-1.5832,-1.5832,-1.5832,-1.5832,-1.5832,-1.5832,-1.5832,-1.5832,-1.5832,-1.5832,-1.5832,-1.5832,-1.5832,-1.5832,-1.5832,-1.5832,-1.5832,-0.3564,0.0,0.0,0.0,0.0,0.0,0.0,0.0,0.0,0.0,0.0,0.0,0.0,0.0,0.0,0.0,0.0,0.0,0.0,0.0,0.0,0.0,0.0,0.0,0.0,0.0,0.0,0.0,0.0,0.0,0.0,0.0,0.0,0.0,-1.4903,-1.505,-1.5224,-1.5337,-1.5484,-1.5658,-1.5772,-1.5832,-1.5832,-1.5832,-1.5832,-1.5832,-1.5832,-1.5832,-1.5832,-1.5832,-1.5832,-1.5832,-1.5832,-1.5832,-1.5832,-1.5832,-1.5832,-1.5832,-1.5832,-1.5832,-1.5832,-1.5832,-1.5832,-1.5832,-1.5832,-1.5832,-1.5832,-1.5832,-1.5832,-1.5832,-1.5832,-1.5832,-1.5832,-1.5832,-1.5832,-1.5832,-1.5832,-1.5832,-1.5832,-1.5832,-1.5832,-1.5832,-1.5832,-1.5832,-1.5832,-1.5832,-1.5832,-1.5832,-1.5832,-1.5832,-1.5832,-1.5832,-1.5832,-1.5832,-1.5832,-1.5832,-1.5832,-1.5832,-1.5832,-1.5832,-1.5832,-1.5832,-1.5832,-1.5832,-1.5832,-1.5832,-1.5832,-1.5832,-1.5832,-1.5832,-1.5832,-1.5832,0.0,0.0,0.0,0.0,0.0,0.0,0.0,0.0,0.0,0.0,0.0,0.0,0.0,0.0,0.0,0.0,0.0,0.0,0.0,0.0,0.0,0.0,0.0,0.0,0.0,0.0,0.0,0.0,0.0,0.0,0.0,0.0,0.0,0.0,-1.4743,-1.4897,-1.4923,-1.5184,-1.5331,0.0,-1.5651,-1.5792,-1.5792,-1.5818,-1.5832,-1.5832,-1.5832,-1.5832,-1.5832,-1.5832,-1.5832,-1.5832,-1.5832,-1.5832,-1.5832,-1.5832,-1.5832,-1.5832,-1.5832,-1.5832,-1.5832,-1.5832,-1.5832,-1.5832,-1.5832,-1.5832,-1.5832,-1.5832,-1.5832,-1.5832,-1.5832,-1.5832,-1.5832,-1.5832,-1.5832,-1.5832,-1.5832,-1.5832,-1.5832,-1.5832,-1.5832,-1.5832,-1.5832,-1.5832,-1.5832,-1.5832,-1.5832,-1.5832,-1.5832,-1.5832,-1.5832,-1.5832,-1.5832,-1.5832,-1.5832,-1.5832,-1.5832,-1.5832,-1.5832,-1.5832,-1.5832,-1.5832,-1.5832,-1.5832,-1.5832,-1.5832,-1.5832,-1.5832,-1.5832,-1.5832,-1.5832,-1.5832,0.0,0.0,0.0,0.0,0.0,0.0,0.0,0.0,0.0,0.0,0.0,0.0,0.0,0.0,0.0,0.0,0.0,0.0,0.0,0.0,0.0,0.0,0.0,0.0,0.0,0.0,0.0,0.0,0.0,0.0,0.0,0.0,0.0,-1.4182,-1.4242,-1.4382,-1.4616,-1.4676,-1.4823,0.0,-1.5351,-1.5491,-1.5498,-1.5725,-1.5832,-1.5832,-1.5832,-1.5832,-1.5832,-1.5832,-1.5832,-1.5832,-1.5832,-1.5832,-1.5832,-1.5832,-1.5832,-1.5832,-1.5832,-1.5832,-1.5832,-1.5832,-1.5832,-1.5832,-1.5832,-1.5832,-1.5832,-1.5832,-1.5832,-1.5832,-1.5832,-1.5832,-1.5832,-1.5832,-1.5832,-1.5832,-1.5832,-1.5832,-1.5832,-1.5832,-1.5832,-1.5832,-1.5832,-1.5832,-1.5832,-1.5832,-1.5832,-1.5832,-1.5832,-1.5832,-1.5832,-1.5832,-1.5832,-1.5832,-1.5832,-1.5832,-1.5832,-1.5832,-1.5832,-1.5832,-1.5832,-1.5832,-1.5832,-1.5832,-1.5832,-1.5832,-1.5832,-1.5832,-1.5832,-1.5832,-1.5832,-1.5832,0.0,0.0,0.0,0.0,0.0,0.0,0.0,0.0,0.0,0.0,0.0,0.0,0.0,0.0,0.0,0.0,0.0,0.0,0.0,0.0,0.0,0.0,0.0,0.0,0.0,0.0,0.0,0.0,0.0,0.0,0.0,-1.4088,-1.4088,-1.4088,-1.4088,-1.4162,-1.4309,-1.4449,-1.4596,-1.4756,-1.505,-1.519,-1.5204,-1.5631,-1.5832,-1.5832,-1.5832,-1.5832,-1.5832,-1.5832,-1.5832,-1.5832,-1.5832,-1.5832,-1.5832,-1.5832,-1.5832,-1.5832,-1.5832,-1.5832,-1.5832,-1.5832,-1.5832,-1.5832,-1.5832,-1.5832,-1.5832,-1.5832,-1.5832,-1.5832,-1.5832,-1.5832,-1.5832,-1.5832,-1.5832,-1.5832,-1.5832,-1.5832,-1.5832,-1.5832,-1.5832,-1.5832,-1.5832,-1.5832,-1.5832,-1.5832,-1.5832,-1.5832,-1.5832,-1.5832,-1.5832,-1.5832,-1.5832,-1.5832,-1.5832,-1.5832,-1.5832,-1.5832,-1.5832,-1.5832,-1.5832,-1.5832,-1.5832,-1.5832,-1.5832,-1.5832,-1.5832,-1.5832,-1.5832,-1.5832,-1.5832,-1.5832,0.0,0.0,0.0,0.0,0.0,0.0,0.0,0.0,0.0,0.0,0.0,0.0,0.0,0.0,0.0,0.0,0.0,0.0,0.0,0.0,0.0,0.0,0.0,0.0,0.0,0.0,0.0,0.0,0.0,0.0,-1.4088,-1.4088,-1.4088,-1.4088,-1.4088,-1.4088,-1.4088,-1.4322,-1.4442,-1.4449,-1.4743,-1.4917,-1.4983,-1.5464,-1.5705,-1.5758,-1.5805,-1.5832,-1.5832,-1.5832,-1.5832,-1.5832,-1.5832,-1.5832,-1.5832,-1.5832,-1.5832,-1.5832,-1.5832,-1.5832,-1.5832,-1.5832,-1.5832,-1.5832,-1.5832,-1.5832,-1.5832,-1.5832,-1.5832,-1.5832,-1.5832,-1.5832,-1.5832,-1.5832,-1.5832,-1.5832,-1.5832,-1.5832,-1.5832,-1.5832,-1.5832,-1.5832,-1.5832,-1.5832,-1.5832,-1.5832,-1.5832,-1.5832,-1.5832,-1.5832,-1.5832,-1.5832,-1.5832,-1.5832,-1.5832,-1.5832,-1.5832,-1.5832,-1.5832,-1.5832,-1.5832,-1.5832,-1.5832,-1.5832,-1.5832,-1.5832,-1.5832,-1.5832,-1.5832,-1.5832,-1.5832,-1.5832,0.0,0.0,0.0,0.0,0.0,0.0,0.0,0.0,0.0,0.0,0.0,0.0,0.0,0.0,0.0,0.0,0.0,0.0,0.0,0.0,0.0,0.0,0.0,0.0,0.0,0.0,0.0,0.0,0.0,0.0,-1.4088,-1.4088,-1.4088,-1.4088,-1.4088,-1.4088,-1.4088,-1.4128,-1.4142,-1.4148,-1.4442,-1.4716,-1.497,-1.5044,-1.5217,-1.5471,-1.5718,-1.5832,-1.5832,-1.5832,-1.5832,-1.5832,-1.5832,-1.5832,-1.5832,-1.5832,-1.5832,-1.5832,-1.5832,-1.5832,-1.5832,-1.5832,-1.5832,-1.5832,-1.5832,-1.5832,-1.5832,-1.5832,-1.5832,-1.5832,-1.5832,-1.5832,-1.5832,-1.5832,-1.5832,-1.5832,-1.5832,-1.5832,-1.5832,-1.5832,-1.5832,-1.5832,-1.5832,-1.5832,-1.5832,-1.5832,-1.5832,-1.5832,-1.5832,-1.5832,-1.5832,-1.5832,-1.5832,-1.5832,-1.5832,-1.5832,-1.5832,-1.5832,-1.5832,-1.5832,-1.5832,-1.5832,-1.5832,-1.5832,-1.5832,-1.5832,-1.5832,-1.5832,-1.5832,-1.5832,-1.5832,-1.5832,0.0,0.0,0.0,0.0,0.0,0.0,0.0,0.0,0.0,0.0,0.0,0.0,0.0,0.0,0.0,0.0,0.0,0.0,0.0,0.0,0.0,0.0,0.0,0.0,0.0,0.0,0.0,0.0,0.0,-1.4088,-1.4088,-1.4088,-1.4088,-1.4088,-1.4088,-1.4088,-1.4088,-1.4088,-1.4088,-1.4088,-1.4215,-1.4342,-1.4476,-1.4643,-1.4963,-1.5404,-1.5531,-1.5678,-1.5832,-1.5832,-1.5832,-1.5832,-1.5832,-1.5832,-1.5832,-1.5832,-1.5832,-1.5832,-1.5832,-1.5832,-1.5832,-1.5832,-1.5832,-1.5832,-1.5832,-1.5832,-1.5832,-1.5832,-1.5832,-1.5832,-1.5832,-1.5832,-1.5832,-1.5832,-1.5832,-1.5832,-1.5832,-1.5832,-1.5832,-1.5832,-1.5832,-1.5832,-1.5832,-1.5832,-1.5832,-1.5832,-1.5832,-1.5832,-1.5832,-1.5832,-1.5832,-1.5832,-1.5832,-1.5832,-1.5832,-1.5832,-1.5832,-1.5832,-1.5832,-1.5832,-1.5832,-1.5832,-1.5832,-1.5832,-1.5832,-1.5832,-1.5832,-1.5832,-1.5832,-1.5832,-1.5832,-1.5832,0.0,0.0,0.0,0.0,0.0,0.0,0.0,0.0,0.0,0.0,0.0,0.0,0.0,0.0,0.0,0.0,0.0,0.0,0.0,0.0,0.0,0.0,0.0,0.0,0.0,0.0,0.0,0.0,0.0,-1.3861,-1.3861,-1.3861,-1.3895,-1.3975,-1.3975,-1.4008,-1.4088,-1.4088,-1.4088,-1.4088,-1.4088,-1.4088,-1.4095,-1.4309,-1.4689,-1.5184,-1.5331,-1.5518,-1.5725,-1.5798,-1.5832,-1.5832,-1.5832,-1.5832,-1.5832,-1.5832,-1.5832,-1.5832,-1.5832,-1.5832,-1.5832,-1.5832,-1.5832,-1.5832,-1.5832,-1.5832,-1.5832,-1.5832,-1.5832,-1.5832,-1.5832,-1.5832,-1.5832,-1.5832,-1.5832,-1.5832,-1.5832,-1.5832,-1.5832,-1.5832,-1.5832,-1.5832,-1.5832,-1.5832,-1.5832,-1.5832,-1.5832,-1.5832,-1.5832,-1.5832,-1.5832,-1.5832,-1.5832,-1.5832,-1.5832,-1.5832,-1.5832,-1.5832,-1.5832,-1.5832,-1.5832,-1.5832,-1.5832,-1.5832,-1.5832,-1.5832,-1.5832,-1.5832,-1.5832,-1.5832,-1.5832,-1.5832,0.0,0.0,0.0,0.0,0.0,0.0,0.0,0.0,0.0,0.0,0.0,0.0,0.0,0.0,0.0,0.0,0.0,0.0,0.0,0.0,0.0,0.0,0.0,0.0,0.0,0.0,0.0,0.0,0.0,-1.3253,-1.3253,-1.3253,-1.338,-1.3661,-1.3667,-1.3801,-1.4082,-1.4088,-1.4088,-1.4088,-1.4088,-1.4088,-1.4088,-1.4102,-1.4275,-1.4596,-1.5157,-1.5404,-1.5438,-1.5718,-1.5832,-1.5832,-1.5832,-1.5832,-1.5832,-1.5832,-1.5832,-1.5832,-1.5832,-1.5832,-1.5832,-1.5832,-1.5832,-1.5832,-1.5832,-1.5832,-1.5832,-1.5832,-1.5832,-1.5832,-1.5832,-1.5832,-1.5832,-1.5832,-1.5832,-1.5832,-1.5832,-1.5832,-1.5832,-1.5832,-1.5832,-1.5832,-1.5832,-1.5832,-1.5832,-1.5832,-1.5832,-1.5832,-1.5832,-1.5832,-1.5832,-1.5832,-1.5832,-1.5832,-1.5832,-1.5832,-1.5832,-1.5832,-1.5832,-1.5832,-1.5832,-1.5832,-1.5832,-1.5832,-1.5832,-1.5832,-1.5832,-1.5832,-1.5832,-1.5832,-1.5832,-1.5832,0.0,0.0,0.0,0.0,0.0,0.0,0.0,0.0,0.0,0.0,0.0,0.0,0.0,0.0,0.0,0.0,0.0,0.0,0.0,0.0,0.0,0.0,0.0,0.0,0.0,0.0,0.0,0.0,0.0,0.0,-1.3213,-1.3213,-1.326,-1.336,-1.3367,-1.3507,-1.3801,-1.3801,-1.3901,-1.4088,-1.4088,-1.4088,-1.4088,-1.4088,-1.4142,-1.4262,-1.4663,-1.4943,-1.5137,-1.5431,-1.5551,-1.5571,-1.5758,-1.5832,-1.5832,-1.5832,-1.5832,-1.5832,-1.5832,-1.5832,-1.5832,-1.5832,-1.5832,-1.5832,-1.5832,-1.5832,-1.5832,-1.5832,-1.5832,-1.5832,-1.5832,-1.5832,-1.5832,-1.5832,-1.5832,-1.5832,-1.5832,-1.5832,-1.5832,-1.5832,-1.5832,-1.5832,-1.5832,-1.5832,-1.5832,-1.5832,-1.5832,-1.5832,-1.5832,-1.5832,-1.5832,-1.5832,-1.5832,-1.5832,-1.5832,-1.5832,-1.5832,-1.5832,-1.5832,-1.5832,-1.5832,-1.5832,-1.5832,-1.5832,-1.5832,-1.5832,-1.5832,-1.5832,-1.5832,-1.5832,-1.5832,-1.5832,-0.5793,0.0,0.0,0.0,0.0,0.0,0.0,0.0,0.0,0.0,0.0,0.0,0.0,0.0,0.0,0.0,0.0,0.0,0.0,0.0,0.0,0.0,0.0,0.0,0.0,0.0,0.0,0.0,0.0,0.0,-1.2906,-1.2906,-1.2953,-1.3053,-1.316,-1.3307,-1.3494,-1.35,-1.3647,-1.3941,-1.3941,-1.3988,-1.4088,-1.4088,-1.4088,-1.4095,-1.4295,-1.4543,-1.4843,-1.5237,-1.5398,-1.5424,-1.5718,-1.5832,-1.5832,-1.5832,-1.5832,-1.5832,-1.5832,-1.5832,-1.5832,-1.5832,-1.5832,-1.5832,-1.5832,-1.5832,-1.5832,-1.5832,-1.5832,-1.5832,-1.5832,-1.5832,-1.5832,-1.5832,-1.5832,-1.5832,-1.5832,-1.5832,-1.5832,-1.5832,-1.5832,-1.5832,-1.5832,-1.5832,-1.5832,-1.5832,-1.5832,-1.5832,-1.5832,-1.5832,-1.5832,-1.5832,-1.5832,-1.5832,-1.5832,-1.5832,-1.5832,-1.5832,-1.5832,-1.5832,-1.5832,-1.5832,-1.5832,-1.5832,-1.5832,-1.5832,-1.5832,-1.5832,-1.5832,-1.5832,-1.5832,-1.5832,0.0,0.0,0.0,0.0,0.0,0.0,0.0,0.0,0.0,0.0,0.0,0.0,0.0,0.0,0.0,0.0,0.0,0.0,0.0,0.0,0.0,0.0,0.0,0.0,0.0,0.0,0.0,0.0,0.0,-1.2305,-1.2305,-1.2305,-1.2438,-1.2802,-1.3026,-1.3186,-1.32,-1.32,-1.334,-1.3627,-1.3634,-1.3794,-1.4075,-1.4082,-1.4088,-1.4088,-1.4088,-1.4249,-1.4549,-1.513,-1.5378,-1.5411,-1.5705,-1.5818,-1.5832,-1.5832,-1.5832,-1.5832,-1.5832,-1.5832,-1.5832,-1.5832,-1.5832,-1.5832,-1.5832,-1.5832,-1.5832,-1.5832,-1.5832,-1.5832,-1.5832,-1.5832,-1.5832,-1.5832,-1.5832,-1.5832,-1.5832,-1.5832,-1.5832,-1.5832,-1.5832,-1.5832,-1.5832,-1.5832,-1.5832,-1.5832,-1.5832,-1.5832,-1.5832,-1.5832,-1.5832,-1.5832,-1.5832,-1.5832,-1.5832,-1.5832,-1.5832,-1.5832,-1.5832,-1.5832,-1.5832,-1.5832,-1.5832,-1.5832,-1.5832,-1.5832,-1.5832,-1.5832,-1.5832,-1.5832,-1.5832,-1.5832,-0.5591,0.0,0.0,0.0,0.0,0.0,0.0,0.0,0.0,0.0,0.0,0.0,0.0,0.0,0.0,0.0,0.0,0.0,0.0,0.0,0.0,0.0,0.0,0.0,0.0,0.0,0.0,0.0,-1.2952,-1.3025,-1.2372,-1.2305,-1.2338,-1.2418,-1.2512,-1.2659,-1.2872,-1.3557,-1.3719,-1.3333,-1.4247,-1.4321,-1.3774,-1.3988,-1.4088,-1.4088,-1.4088,-1.4135,-1.4235,-1.4609,-1.489,-1.511,-1.5404,-1.5645,-1.5832,-1.5832,-1.5832,-1.5832,-1.5832,-1.5832,-1.5832,-1.5832,-1.5832,-1.5832,-1.5832,-1.5832,-1.5832,-1.5832,-1.5832,-1.5832,-1.5832,-1.5832,-1.5832,-1.5832,-1.5832,-1.5832,-1.5832,-1.5832,-1.5832,-1.5832,-1.5832,-1.5832,-1.5832,-1.5832,-1.5832,-1.5832,-1.5832,-1.5832,-1.5832,-1.5832,-1.5832,-1.5832,-1.5832,-1.5832,-1.5832,-1.5832,-1.5832,-1.5832,-1.5832,-1.5832,-1.5832,-1.5832,-1.5832,-1.5832,-1.5832,-1.5832,-1.5832,-1.5832,-1.5832,-1.5832,-1.5832,-1.5832,-0.686,-0.7063,0.0,0.0,0.0,0.0,0.0,0.0,0.0,0.0,0.0,0.0,0.0,0.0,0.0,0.0,0.0,0.0,0.0,0.0,0.0,0.0,0.0,0.0,0.0,0.0,0.0,-1.2952,-1.381,-1.3882,-1.2952,-1.2519,-1.2305,-1.2305,-1.2305,-1.2385,-1.2559,-1.3152,-1.3313,-1.3019,-1.3803,-1.3947,-1.3654,-1.3821,-1.3968,-1.4088,-1.4088,-1.4088,-1.4102,-1.4269,-1.4509,-1.481,-1.5104,-1.5391,-1.5651,-1.5651,-1.5725,-1.5832,-1.5832,-1.5832,-1.5832,-1.5832,-1.5832,-1.5832,-1.5832,-1.5832,-1.5832,-1.5832,-1.5832,-1.5832,-1.5832,-1.5832,-1.5832,-1.5832,-1.5832,-1.5832,-1.5832,-1.5832,-1.5832,-1.5832,-1.5832,-1.5832,-1.5832,-1.5832,-1.5832,-1.5832,-1.5832,-1.5832,-1.5832,-1.5832,-1.5832,-1.5832,-1.5832,-1.5832,-1.5832,-1.5832,-1.5832,-1.5832,-1.5832,-1.5832,-1.5832,-1.5832,-1.5832,-1.5832,-1.5832,-1.5832,-1.5832,-1.5832,-1.5832,-1.5832,-1.5832,-1.5832,-0.8609,-0.8723,-0.9004,0.0,0.0,0.0,0.0,-0.8917,0.0,0.0,0.0,0.0,0.0,0.0,0.0,0.0,0.0,0.0,0.0,0.0,0.0,0.0,0.0,0.0,0.0,-1.3064,-1.3569,-1.3561,-1.4514,-1.468,-1.3693,-1.2858,-1.2445,-1.2305,-1.2305,-1.2305,-1.2305,-1.2372,-1.2581,-1.2775,-1.2954,-1.3253,-1.3547,-1.3689,-1.3864,-1.4041,-1.4075,-1.4088,-1.4088,-1.4088,-1.4255,-1.4543,-1.481,-1.509,-1.5351,-1.5384,-1.5558,-1.5785,-1.5818,-1.5832,-1.5832,-1.5832,-1.5832,-1.5832,-1.5832,-1.5832,-1.5832,-1.5832,-1.5832,-1.5832,-1.5832,-1.5832,-1.5832,-1.5832,-1.5832,-1.5832,-1.5832,-1.5832,-1.5832,-1.5832,-1.5832,-1.5832,-1.5832,-1.5832,-1.5832,-1.5832,-1.5832,-1.5832,-1.5832,-1.5832,-1.5832,-1.5832,-1.5832,-1.5832,-1.5832,-1.5832,-1.5832,-1.5832,-1.5832,-1.5832,-1.5832,-1.5832,-1.5832,-1.5832,-1.5832,-1.5832,-1.5832,-1.5832,-1.5832,-1.5832,-1.5832,-1.5832,-0.9308,0.0,0.0,0.0,0.0,0.0,0.0,-0.8643,0.0,0.0,0.0,0.0,0.0,0.0,0.0,0.0,0.0,0.0,0.0,0.0,0.0,0.0,0.0,0.0,0.0,-1.2488,-1.3036,-1.29,-1.3953,-1.4242,-1.3286,-1.3316,-1.3098,-1.2298,-1.2305,-1.2305,-1.2305,-1.3025,-1.3053,-1.2392,-1.4171,-1.4291,-1.3017,-1.428,-1.4388,-1.3741,-1.3981,-1.4088,-1.4088,-1.4088,-1.4255,-1.4529,-1.4583,-1.479,-1.5077,-1.5311,-1.5431,-1.5518,-1.5752,-1.5832,-1.5832,-1.5832,-1.5832,-1.5832,-1.5832,-1.5832,-1.5832,-1.5832,-1.5832,-1.5832,-1.5832,-1.5832,-1.5832,-1.5832,-1.5832,-1.5832,-1.5832,-1.5832,-1.5832,-1.5832,-1.5832,-1.5832,-1.5832,-1.5832,-1.5832,-1.5832,-1.5832,-1.5832,-1.5832,-1.5832,-1.5832,-1.5832,-1.5832,-1.5832,-1.5832,-1.5832,-1.5832,-1.5832,-1.5832,-1.5832,-1.5832,-1.5832,-1.5832,-1.5832,-1.5832,-1.5832,-1.5832,-1.5832,-1.5832,-1.5832,-1.5832,-1.5832,0.0,0.0,0.0,-1.06,0.0,0.0,0.0,0.0,0.0,0.0,0.0,0.0,0.0,0.0,0.0,0.0,0.0,0.0,0.0,0.0,0.0,0.0,0.0,0.0,0.0,-1.2994,-1.3627,-1.409,-1.4579,-1.4681,-1.422,-1.3585,-1.306,-1.272,-1.2301,-1.2151,-1.2305,-1.2732,-1.2732,-1.2305,-1.3395,-1.3554,-1.2835,-1.3592,-1.3826,-1.3654,-1.3801,-1.3948,-1.4088,-1.4088,-1.4175,-1.4302,-1.4302,-1.4482,-1.4763,-1.4903,-1.5144,-1.5418,-1.5565,-1.5705,-1.5832,-1.5832,-1.5832,-1.5832,-1.5832,-1.5832,-1.5832,-1.5832,-1.5832,-1.5832,-1.5832,-1.5832,-1.5832,-1.5832,-1.5832,-1.5832,-1.5832,-1.5832,-1.5832,-1.5832,-1.5832,-1.5832,-1.5832,-1.5832,-1.5832,-1.5832,-1.5832,-1.5832,-1.5832,-1.5832,-1.5832,-1.5832,-1.5832,-1.5832,-1.5832,-1.5832,-1.5832,-1.5832,-1.5832,-1.5832,-1.5832,-1.5832,-1.5832,-1.5832,-1.5832,-1.5832,-1.5832,-1.5832,-1.5832,-1.5832,-1.5832,-1.5832,0.0,0.0,0.0,0.0,0.0,-1.2261,0.0,0.0,0.0,-1.0939,0.0,0.0,0.0,0.0,0.0,0.0,0.0,0.0,0.0,0.0,0.0,0.0,0.0,0.0,0.0,-1.343,-1.4136,-1.5034,-1.5178,-1.5178,-1.5204,-1.3917,-1.3232,-1.3231,-1.2537,-1.2264,-1.243,-1.2345,-1.2305,-1.2305,-1.2445,-1.2648,-1.2741,-1.3168,-1.3388,-1.3474,-1.3689,-1.3885,-1.4001,-1.4001,-1.4035,-1.4088,-1.4088,-1.4229,-1.4442,-1.4496,-1.4816,-1.5237,-1.5297,-1.5504,-1.5745,-1.5745,-1.5785,-1.5832,-1.5832,-1.5832,-1.5832,-1.5832,-1.5832,-1.5832,-1.5832,-1.5832,-1.5832,-1.5832,-1.5832,-1.5832,-1.5832,-1.5832,-1.5832,-1.5832,-1.5832,-1.5832,-1.5832,-1.5832,-1.5832,-1.5832,-1.5832,-1.5832,-1.5832,-1.5832,-1.5832,-1.5832,-1.5832,-1.5832,-1.5832,-1.5832,-1.5832,-1.5832,-1.5832,-1.5832,-1.5832,-1.5832,-1.5832,-1.5832,-1.5832,-1.5832,-1.5832,-1.5832,-1.5832,-1.5832,-1.5832,-1.5832,0.0,0.0,0.0,0.0,-1.2803,0.0,0.0,0.0,-1.1924,-1.158,0.0,0.0,0.0,0.0,0.0,0.0,0.0,0.0,0.0,0.0,0.0,0.0,0.0,0.0,0.0,0.0,-1.2857,-1.378,-1.4468,-1.4857,-1.4773,-1.4941,-1.4624,-1.3816,-1.3248,-1.3009,-1.3038,-1.2535,-1.2305,-1.2305,-1.3171,-1.3112,-1.2432,-1.4378,-1.4411,-1.2936,-1.4044,-1.4193,-1.3694,-1.3694,-1.3848,-1.4088,-1.4088,-1.4108,-1.4168,-1.4429,-1.4563,-1.4656,-1.4923,-1.5204,-1.5444,-1.5444,-1.5618,-1.5832,-1.5832,-1.5832,-1.5832,-1.5832,-1.5832,-1.5832,-1.5832,-1.5832,-1.5832,-1.5832,-1.5832,-1.5832,-1.5832,-1.5832,-1.5832,-1.5832,-1.5832,-1.5832,-1.5832,-1.5832,-1.5832,-1.5832,-1.5832,-1.5832,-1.5832,-1.5832,-1.5832,-1.5832,-1.5832,-1.5832,-1.5832,-1.5832,-1.5832,-1.5832,-1.5832,-1.5832,-1.5832,-1.5832,-1.5832,-1.5832,-1.5832,-1.5832,-1.5832,-1.5832,-1.5832,-1.5832,-1.5832,-1.5832,0.0,0.0,0.0,0.0,0.0,0.0,0.0,0.0,-1.2246,0.0,0.0,0.0,0.0,0.0,0.0,0.0,0.0,0.0,0.0,0.0,0.0,0.0,0.0,0.0,0.0,0.0,0.0,0.0,0.0,-1.425,-1.4742,-1.4465,-1.4329,-1.4337,-1.3924,-1.3469,-1.3127,-1.3086,-1.2806,-1.2305,-1.2739,-1.2666,-1.2378,-1.3807,-1.4192,-1.3651,-1.4743,-1.4774,-1.4172,-1.4356,-1.4192,-1.3848,-1.4021,-1.4088,-1.4102,-1.4222,-1.4376,-1.4536,-1.4663,-1.4897,-1.517,-1.5344,-1.5591,-1.5832,-1.5832,-1.5832,-1.5832,-1.5832,-1.5832,-1.5832,-1.5832,-1.5832,-1.5832,-1.5832,-1.5832,-1.5832,-1.5832,-1.5832,-1.5832,-1.5832,-1.5832,-1.5832,-1.5832,-1.5832,-1.5832,-1.5832,-1.5832,-1.5832,-1.5832,-1.5832,-1.5832,-1.5832,-1.5832,-1.5832,-1.5832,-1.5832,-1.5832,-1.5832,-1.5832,-1.5832,-1.5832,-1.5832,-1.5832,-1.5832,-1.5832,-1.5832,-1.5832,-1.5832,-1.5832,-1.5832,-1.5832,-1.5832,-1.3459,0.0,0.0,0.0,0.0,0.0,0.0,0.0,0.0,0.0,0.0,0.0,0.0,0.0,0.0,0.0,0.0,0.0,0.0,0.0,0.0,0.0,0.0,0.0,0.0,0.0,0.0,0.0,0.0,0.0,-1.4561,-1.4204,-1.4188,-1.4708,-1.4458,-1.4115,-1.3729,-1.3588,-1.323,-1.2666,-1.2445,-1.2445,-1.2732,-1.3665,-1.4237,-1.4541,-1.5478,-1.5314,-1.4543,-1.4791,-1.4429,-1.3592,-1.3975,-1.4088,-1.4088,-1.4088,-1.4222,-1.4402,-1.4402,-1.4596,-1.4903,-1.5277,-1.5538,-1.5725,-1.5805,-1.5832,-1.5832,-1.5832,-1.5832,-1.5832,-1.5832,-1.5832,-1.5832,-1.5832,-1.5832,-1.5832,-1.5832,-1.5832,-1.5832,-1.5832,-1.5832,-1.5832,-1.5832,-1.5832,-1.5832,-1.5832,-1.5832,-1.5832,-1.5832,-1.5832,-1.5832,-1.5832,-1.5832,-1.5832,-1.5832,-1.5832,-1.5832,-1.5832,-1.5832,-1.5832,-1.5832,-1.5832,-1.5832,-1.5832,-1.5832,-1.5832,-1.5832,-1.5832,-1.5832,-1.5832,-1.5832,-1.5832,0.0,0.0,0.0,-1.2691,0.0,0.0,0.0,0.0,-1.335,0.0,0.0,0.0,0.0,0.0,-1.207,-1.1675,-1.1606,0.0,0.0,0.0,0.0,0.0,0.0,0.0,0.0,0.0,0.0,0.0,0.0,0.0,-1.4038,-1.4551,-1.4795,-1.4824,-1.4722,-1.489,-1.521,-1.385,-1.3297,-1.3673,-1.2732,-1.2813,-1.3673,-1.4665,-1.5171,-1.5251,-1.6158,-1.5665,-1.4208,-1.4528,-1.423,-1.3592,-1.3975,-1.4088,-1.4088,-1.4088,-1.4095,-1.4102,-1.4102,-1.4295,-1.4629,-1.5211,-1.5404,-1.5464,-1.5745,-1.5832,-1.5832,-1.5832,-1.5832,-1.5832,-1.5832,-1.5832,-1.5832,-1.5832,-1.5832,-1.5832,-1.5832,-1.5832,-1.5832,-1.5832,-1.5832,-1.5832,-1.5832,-1.5832,-1.5832,-1.5832,-1.5832,-1.5832,-1.5832,-1.5832,-1.5832,-1.5832,-1.5832,-1.5832,-1.5832,-1.5832,-1.5832,-1.5832,-1.5832,-1.5832,-1.5832,-1.5832,-1.5832,-1.5832,-1.5832,-1.5832,-1.5832,-1.5832,-1.5832,-1.5832,-1.5832,-1.5832,0.0,0.0,-1.5968,-1.4223,0.0,0.0,0.0,0.0,0.0,0.0,0.0,0.0,0.0,0.0,-1.2178,-1.2031,-1.1514,-1.0928,0.0,0.0,0.0,0.0,0.0,0.0,0.0,0.0,0.0,0.0,0.0,0.0,0.0,-1.4121,-1.4492,-1.4775,-1.5369,-1.5377,-1.4944,-1.4913,-1.4401,-1.329,-1.392,-1.4027,-1.3745,-1.5367,-1.6149,-1.621,-1.7148,-1.6866,-1.58,-1.6108,-1.5423,-1.4309,-1.4624,-1.4957,-1.5054,-1.4328,-1.4088,-1.4166,-1.4894,-1.4852,-1.4636,-1.5595,-1.5687,-1.5418,-1.5511,-1.5678,-1.5832,-1.5832,-1.5832,-1.5832,-1.5832,-1.5832,-1.5832,-1.5832,-1.5832,-1.5832,-1.5832,-1.5832,-1.5832,-1.5832,-1.5832,-1.5832,-1.5832,-1.5832,-1.5832,-1.5832,-1.5832,-1.5832,-1.5832,-1.5832,-1.5832,-1.5832,-1.5832,-1.5832,-1.5832,-1.5832,-1.5832,-1.5832,-1.5832,-1.5832,-1.5832,-1.5832,-1.5832,-1.5832,-1.5832,-1.5832,-1.5832,-1.5832,-1.5832,-1.5832,-1.5832,-1.5832,-1.7113,-1.7196,0.0,-1.5378,-1.53,0.0,-1.3634,0.0,0.0,0.0,0.0,0.0,0.0,0.0,-1.2496,-1.2559,-1.1776,-1.0937,0.0,0.0,0.0,0.0,0.0,0.0,0.0,0.0,-1.1484,-1.2393,0.0,0.0,0.0,0.0,-1.4268,-1.4541,-1.5381,-1.5657,-1.5179,-1.5369,-1.5031,-1.4077,-1.4307,-1.4545,-1.4728,-1.5649,-1.6498,-1.7139,-1.7725,-1.7501,-1.6594,-1.6866,-1.6294,-1.5204,-1.5551,-1.589,-1.6108,-1.5061,-1.4901,-1.5311,-1.6034,-1.5678,-1.5042,-1.5811,-1.5701,-1.5264,-1.5364,-1.5598,-1.5832,-1.5832,-1.5832,-1.5832,-1.5832,-1.5832,-1.5832,-1.5832,-1.5832,-1.5832,-1.5832,-1.5832,-1.5832,-1.5832,-1.5832,-1.5832,-1.5832,-1.5832,-1.5832,-1.5832,-1.5832,-1.5832,-1.5832,-1.5832,-1.5832,-1.5832,-1.5832,-1.5832,-1.5832,-1.5832,-1.5832,-1.5832,-1.5832,-1.5832,-1.5832,-1.5832,-1.5832,-1.5832,-1.5832,-1.5832,-1.5832,-1.5832,-1.5832,-1.5832,-1.5832,-1.5832]},{"header":{"parameterUnit":"m.s-1","parameterCategory":1,"la1":30.6,"la2":29.2853,"lo1":-89.7004,"lo2":-87.6739,"dy":0.0162,"dx":0.0183,"nx":112,"ny":82,"refTime":"2024-05-24T12:00:00:Z","depth":0,"parameterNumber":3,"parameterNumberName":"V-component_of_WINDS"},"data":[0.0,0.0,0.0,0.0,0.0,0.0,0.0,0.0,0.0,0.0,0.0,0.0,0.0,0.0,0.0,0.0,0.0,0.0,0.0,0.0,0.0,0.0,0.0,0.0,0.0,0.0,0.0,0.0,0.0,0.0,0.0,0.0,0.0,0.0,0.0,0.0,0.0,0.0,0.0,0.0,0.0,0.0,0.0,0.0,0.0,0.0,0.0,0.0,0.0,0.0,0.0,0.0,0.0,0.0,0.0,0.0,0.0,0.0,0.0,0.0,0.0,0.0,0.0,0.0,0.0,0.0,0.0,0.0,0.0,0.0,0.0,0.0,0.0,0.0,0.0,0.0,0.0,0.0,0.0,0.0,0.0,0.0,0.0,0.0,0.0,0.0,0.0,0.0,0.0,0.0,0.0,-2.6856,-2.9149,-3.0516,-3.0516,-2.97,-2.8482,-2.6805,0.0,0.0,0.0,0.0,0.0,0.0,0.0,0.0,0.0,0.0,0.0,0.0,0.0,0.0,0.0,0.0,0.0,0.0,0.0,0.0,0.0,0.0,0.0,0.0,0.0,0.0,0.0,0.0,0.0,0.0,0.0,0.0,0.0,0.0,0.0,0.0,0.0,0.0,0.0,0.0,0.0,0.0,0.0,0.0,0.0,0.0,0.0,0.0,0.0,0.0,0.0,0.0,0.0,0.0,0.0,0.0,0.0,0.0,0.0,0.0,0.0,0.0,0.0,0.0,0.0,0.0,0.0,0.0,0.0,0.0,0.0,0.0,0.0,0.0,0.0,0.0,0.0,0.0,0.0,0.0,0.0,0.0,0.0,0.0,0.0,0.0,0.0,0.0,0.0,0.0,0.0,0.0,0.0,0.0,0.0,0.0,0.0,0.0,0.0,0.0,0.0,0.0,0.0,0.0,-2.4577,-2.8418,-2.9875,-3.059,-3.059,-2.9138,-2.7769,-2.6757,0.0,0.0,0.0,0.0,0.0,0.0,0.0,0.0,0.0,0.0,0.0,0.0,0.0,0.0,0.0,0.0,0.0,0.0,0.0,0.0,0.0,0.0,0.0,0.0,0.0,0.0,0.0,0.0,0.0,0.0,0.0,0.0,0.0,0.0,0.0,0.0,0.0,0.0,0.0,0.0,0.0,0.0,0.0,0.0,0.0,0.0,0.0,0.0,0.0,0.0,0.0,0.0,0.0,0.0,0.0,0.0,0.0,0.0,0.0,0.0,0.0,0.0,0.0,0.0,0.0,0.0,0.0,0.0,0.0,0.0,0.0,0.0,0.0,0.0,0.0,0.0,0.0,0.0,0.0,0.0,0.0,0.0,0.0,0.0,0.0,0.0,0.0,0.0,0.0,0.0,0.0,0.0,0.0,0.0,0.0,0.0,0.0,0.0,0.0,0.0,0.0,0.0,0.0,-2.4283,-2.6228,-2.9552,-3.0256,-3.0487,-3.0487,-2.894,-2.7574,-2.6688,-2.3396,0.0,0.0,0.0,0.0,0.0,0.0,0.0,0.0,0.0,0.0,0.0,0.0,0.0,0.0,0.0,0.0,0.0,0.0,0.0,0.0,0.0,0.0,0.0,0.0,0.0,0.0,0.0,0.0,0.0,0.0,0.0,0.0,0.0,0.0,0.0,0.0,0.0,0.0,0.0,0.0,0.0,0.0,0.0,0.0,0.0,0.0,0.0,0.0,0.0,0.0,0.0,0.0,0.0,0.0,0.0,0.0,0.0,0.0,0.0,0.0,0.0,0.0,0.0,0.0,0.0,0.0,0.0,0.0,0.0,0.0,0.0,0.0,0.0,0.0,0.0,0.0,0.0,0.0,0.0,0.0,0.0,0.0,0.0,0.0,0.0,0.0,0.0,0.0,0.0,0.0,0.0,0.0,0.0,0.0,0.0,0.0,0.0,0.0,0.0,0.0,0.0,0.0,-2.6766,-2.798,-3.0513,-3.0564,-3.0475,-3.0698,-2.8794,-2.7217,-2.6351,-2.2331,0.0,0.0,0.0,0.0,0.0,0.0,0.0,0.0,0.0,0.0,0.0,0.0,0.0,0.0,0.0,0.0,0.0,0.0,0.0,0.0,0.0,0.0,0.0,0.0,0.0,0.0,0.0,0.0,0.0,0.0,0.0,0.0,0.0,0.0,0.0,0.0,0.0,0.0,0.0,0.0,0.0,0.0,0.0,0.0,0.0,0.0,0.0,0.0,0.0,0.0,0.0,0.0,0.0,0.0,0.0,0.0,0.0,0.0,0.0,0.0,0.0,0.0,0.0,0.0,0.0,0.0,0.0,0.0,0.0,0.0,0.0,0.0,0.0,0.0,0.0,0.0,0.0,0.0,0.0,0.0,0.0,0.0,0.0,0.0,0.0,0.0,0.0,0.0,0.0,0.0,0.0,0.0,0.0,0.0,0.0,0.0,0.0,0.0,0.0,0.0,0.0,0.0,-2.6929,-2.8868,-3.1352,-3.0891,-3.0737,-3.1545,-2.8582,-2.6332,-2.5437,-2.1438,0.0,0.0,0.0,0.0,0.0,0.0,0.0,0.0,0.0,0.0,0.0,0.0,0.0,0.0,0.0,0.0,0.0,0.0,0.0,0.0,0.0,0.0,0.0,0.0,0.0,0.0,0.0,0.0,0.0,0.0,0.0,0.0,0.0,0.0,0.0,0.0,0.0,0.0,0.0,0.0,0.0,0.0,0.0,0.0,0.0,0.0,0.0,0.0,0.0,0.0,0.0,0.0,0.0,0.0,0.0,0.0,0.0,0.0,0.0,0.0,0.0,0.0,0.0,0.0,0.0,0.0,0.0,0.0,0.0,0.0,0.0,0.0,0.0,0.0,0.0,0.0,0.0,0.0,0.0,0.0,0.0,0.0,0.0,0.0,0.0,0.0,0.0,0.0,0.0,0.0,0.0,0.0,0.0,0.0,0.0,0.0,0.0,0.0,0.0,0.0,0.0,0.0,-2.6448,-2.8345,0.0,-3.0929,-3.0756,-3.1641,-2.9063,-2.6813,-2.538,0.0,0.0,0.0,0.0,0.0,0.0,0.0,0.0,0.0,0.0,0.0,0.0,0.0,0.0,0.0,0.0,0.0,0.0,0.0,0.0,0.0,0.0,0.0,0.0,0.0,0.0,0.0,0.0,0.0,0.0,0.0,0.0,0.0,0.0,0.0,0.0,0.0,0.0,0.0,0.0,0.0,0.0,0.0,0.0,0.0,0.0,0.0,0.0,0.0,0.0,0.0,0.0,0.0,0.0,0.0,0.0,0.0,0.0,0.0,0.0,0.0,0.0,0.0,0.0,0.0,0.0,0.0,0.0,0.0,0.0,0.0,0.0,0.0,0.0,0.0,0.0,0.0,0.0,0.0,0.0,0.0,0.0,0.0,0.0,0.0,0.0,0.0,0.0,0.0,0.0,0.0,0.0,0.0,0.0,0.0,0.0,0.0,0.0,0.0,0.0,0.0,0.0,-2.4879,-2.6809,-2.8952,0.0,-3.1333,-3.116,-3.2006,-2.9256,-2.6851,-2.538,0.0,0.0,0.0,0.0,0.0,0.0,0.0,0.0,0.0,0.0,0.0,0.0,0.0,0.0,0.0,0.0,0.0,0.0,0.0,0.0,0.0,0.0,0.0,0.0,0.0,0.0,0.0,0.0,0.0,0.0,0.0,0.0,0.0,0.0,0.0,0.0,0.0,0.0,0.0,0.0,0.0,0.0,0.0,0.0,0.0,0.0,0.0,0.0,0.0,0.0,0.0,0.0,0.0,0.0,0.0,0.0,0.0,0.0,0.0,0.0,0.0,0.0,0.0,0.0,0.0,0.0,0.0,0.0,0.0,0.0,0.0,0.0,0.0,0.0,0.0,0.0,0.0,0.0,0.0,0.0,0.0,0.0,0.0,0.0,0.0,0.0,0.0,0.0,0.0,0.0,0.0,0.0,0.0,0.0,0.0,0.0,0.0,0.0,0.0,0.0,0.0,0.0,-2.507,-2.833,-3.1044,-3.2718,-3.2179,-3.2025,-3.2833,-2.9044,-2.6236,0.0,0.0,0.0,0.0,0.0,0.0,0.0,0.0,0.0,0.0,0.0,0.0,0.0,0.0,0.0,0.0,0.0,0.0,0.0,0.0,0.0,0.0,0.0,0.0,0.0,0.0,0.0,0.0,0.0,0.0,0.0,0.0,0.0,0.0,0.0,0.0,0.0,0.0,0.0,0.0,0.0,0.0,0.0,0.0,0.0,0.0,0.0,0.0,0.0,0.0,0.0,0.0,0.0,0.0,0.0,0.0,0.0,0.0,0.0,0.0,0.0,0.0,0.0,0.0,0.0,0.0,0.0,0.0,0.0,0.0,0.0,0.0,0.0,0.0,0.0,0.0,0.0,0.0,0.0,0.0,0.0,0.0,0.0,0.0,0.0,0.0,0.0,0.0,0.0,0.0,0.0,0.0,0.0,0.0,0.0,0.0,0.0,0.0,0.0,0.0,0.0,0.0,0.0,-2.5005,-2.8302,-3.1044,-3.2718,-3.2179,-3.2025,-3.2833,-2.9583,-2.689,-2.538,0.0,0.0,0.0,0.0,0.0,0.0,0.0,0.0,0.0,0.0,0.0,0.0,0.0,0.0,0.0,0.0,0.0,0.0,0.0,0.0,0.0,0.0,0.0,0.0,0.0,0.0,0.0,0.0,0.0,0.0,0.0,0.0,0.0,0.0,0.0,0.0,0.0,0.0,0.0,0.0,0.0,0.0,0.0,0.0,0.0,0.0,0.0,0.0,0.0,0.0,0.0,0.0,0.0,0.0,0.0,0.0,0.0,0.0,0.0,0.0,0.0,0.0,0.0,0.0,0.0,0.0,0.0,0.0,0.0,0.0,0.0,0.0,0.0,0.0,0.0,0.0,0.0,0.0,0.0,0.0,0.0,0.0,0.0,0.0,0.0,0.0,0.0,0.0,0.0,0.0,0.0,0.0,0.0,0.0,0.0,0.0,0.0,0.0,0.0,0.0,0.0,0.0,-2.5495,-2.9083,-3.1929,-3.3276,-3.2987,-3.2756,-3.2891,-3.0121,-2.764,-2.5928,0.0,0.0,0.0,0.0,0.0,0.0,0.0,0.0,0.0,0.0,0.0,0.0,0.0,0.0,0.0,0.0,0.0,0.0,0.0,0.0,0.0,0.0,0.0,0.0,0.0,0.0,0.0,0.0,0.0,0.0,0.0,0.0,0.0,0.0,0.0,0.0,0.0,0.0,0.0,0.0,0.0,0.0,0.0,0.0,0.0,0.0,0.0,0.0,0.0,0.0,0.0,0.0,0.0,0.0,0.0,0.0,0.0,0.0,0.0,0.0,0.0,0.0,0.0,0.0,0.0,0.0,0.0,0.0,0.0,0.0,0.0,0.0,0.0,0.0,0.0,0.0,0.0,0.0,0.0,0.0,0.0,0.0,0.0,0.0,0.0,0.0,0.0,0.0,0.0,0.0,0.0,0.0,0.0,0.0,0.0,0.0,0.0,0.0,0.0,0.0,0.0,0.0,-2.639,-3.0333,-3.3237,-3.4103,-3.4199,-3.3853,-3.2968,-3.0641,-2.8467,-2.6717,0.0,0.0,0.0,0.0,0.0,0.0,0.0,0.0,0.0,0.0,0.0,0.0,0.0,0.0,0.0,0.0,0.0,0.0,0.0,0.0,0.0,0.0,0.0,0.0,0.0,0.0,0.0,0.0,0.0,0.0,0.0,0.0,0.0,0.0,0.0,0.0,0.0,0.0,0.0,0.0,0.0,0.0,0.0,0.0,0.0,0.0,0.0,0.0,0.0,0.0,0.0,0.0,0.0,0.0,0.0,0.0,0.0,0.0,0.0,0.0,-2.0937,0.0,0.0,0.0,0.0,0.0,0.0,0.0,0.0,0.0,0.0,0.0,0.0,0.0,0.0,0.0,0.0,0.0,0.0,0.0,0.0,0.0,0.0,0.0,0.0,0.0,0.0,0.0,0.0,0.0,0.0,0.0,0.0,0.0,0.0,0.0,0.0,0.0,0.0,0.0,0.0,0.0,-2.7217,-3.0717,-3.3237,-3.4103,-3.4199,-3.3853,-3.2968,-3.1198,-2.9121,-2.6755,0.0,0.0,0.0,0.0,0.0,0.0,0.0,0.0,0.0,0.0,0.0,0.0,0.0,0.0,0.0,0.0,0.0,0.0,0.0,0.0,0.0,0.0,0.0,0.0,0.0,0.0,0.0,0.0,0.0,0.0,0.0,0.0,0.0,0.0,0.0,0.0,0.0,0.0,0.0,0.0,0.0,0.0,0.0,0.0,0.0,0.0,0.0,0.0,0.0,0.0,0.0,0.0,0.0,0.0,0.0,0.0,0.0,0.0,0.0,0.0,0.0,-2.2891,0.0,0.0,0.0,0.0,0.0,0.0,0.0,0.0,0.0,0.0,0.0,0.0,0.0,0.0,0.0,0.0,0.0,0.0,0.0,0.0,0.0,0.0,0.0,0.0,0.0,0.0,0.0,0.0,0.0,0.0,0.0,0.0,0.0,0.0,0.0,0.0,0.0,0.0,0.0,0.0,-2.8044,-3.1064,-3.3391,-3.4699,-3.4814,-3.4468,-3.3603,-3.1987,-3.0275,-2.8544,-2.5697,0.0,0.0,0.0,0.0,0.0,0.0,0.0,0.0,0.0,0.0,0.0,0.0,0.0,0.0,0.0,0.0,0.0,0.0,0.0,0.0,0.0,0.0,0.0,0.0,0.0,0.0,0.0,0.0,0.0,0.0,0.0,0.0,0.0,0.0,0.0,0.0,0.0,0.0,0.0,0.0,0.0,0.0,0.0,0.0,0.0,0.0,0.0,0.0,0.0,0.0,0.0,0.0,0.0,0.0,-2.8945,-2.9668,-3.0391,-3.0723,-3.0566,-2.7676,-2.6894,-2.748,0.0,0.0,0.0,0.0,0.0,0.0,0.0,0.0,0.0,0.0,0.0,0.0,0.0,0.0,0.0,0.0,0.0,0.0,0.0,0.0,0.0,0.0,0.0,0.0,0.0,-3.0669,-3.0309,0.0,0.0,0.0,0.0,0.0,0.0,0.0,0.0,0.0,0.0,0.0,0.0,-2.9121,-3.1641,-3.3737,-3.5334,-3.5493,-3.5161,-3.4257,-3.2795,-3.1487,-3.0456,-2.6986,-2.4456,0.0,0.0,0.0,0.0,0.0,0.0,0.0,0.0,0.0,0.0,0.0,0.0,0.0,0.0,0.0,0.0,0.0,0.0,0.0,0.0,0.0,0.0,0.0,0.0,0.0,0.0,0.0,0.0,0.0,0.0,0.0,0.0,-1.6445,-1.8126,0.0,0.0,0.0,0.0,0.0,0.0,0.0,0.0,0.0,0.0,0.0,0.0,0.0,0.0,-2.8364,-3.0874,-3.2183,-3.2319,-3.4017,-3.4863,-3.498,-3.5098,-3.5156,-3.5137,-3.4668,0.0,-3.0234,-2.8398,0.0,0.0,0.0,0.0,0.0,0.0,0.0,0.0,0.0,0.0,0.0,0.0,0.0,0.0,0.0,0.0,0.0,0.0,0.0,0.0,0.0,0.0,-3.3083,-3.2551,-3.3667,-3.4276,0.0,-2.9605,-2.7101,-2.5119,0.0,0.0,0.0,0.0,0.0,0.0,0.0,0.0,-3.0929,-3.291,-3.441,-3.5391,-3.5493,-3.5161,-3.4257,-3.3295,-3.2064,-3.0494,-2.9159,-2.739,-2.5072,-2.3985,0.0,0.0,0.0,0.0,0.0,0.0,0.0,0.0,0.0,0.0,0.0,0.0,0.0,0.0,0.0,0.0,0.0,0.0,0.0,0.0,0.0,0.0,0.0,0.0,0.0,0.0,0.0,0.0,0.0,-1.6061,-1.853,-2.0215,-2.0408,-2.0408,0.0,0.0,0.0,0.0,0.0,0.0,0.0,0.0,0.0,-2.79,-2.9608,-3.11,-3.2373,-3.4007,-3.5061,-3.5552,-3.6342,-3.6992,-3.7461,-3.7461,-3.7734,-3.8184,-3.8184,-3.7617,-3.6445,-3.3223,-3.1387,-3.0488,0.0,0.0,0.0,0.0,-2.9226,-2.995,-3.0912,-3.0925,0.0,0.0,0.0,0.0,0.0,0.0,0.0,0.0,0.0,0.0,0.0,0.0,0.0,-3.5026,-3.5988,-3.6699,-3.593,-3.4243,-3.1821,0.0,-2.7648,-2.6909,-2.412,0.0,0.0,0.0,0.0,0.0,-3.2006,-3.343,-3.4526,-3.5411,-3.5493,-3.5353,-3.4968,-3.4122,-3.3103,-3.1891,-3.0564,-2.9102,-2.7505,-2.5717,-2.3851,0.0,0.0,0.0,0.0,0.0,0.0,0.0,0.0,0.0,0.0,0.0,0.0,0.0,0.0,0.0,0.0,0.0,0.0,0.0,0.0,0.0,0.0,0.0,0.0,0.0,0.0,0.0,0.0,-1.8241,-2.0531,-2.1985,-2.2571,-2.2744,0.0,0.0,0.0,0.0,0.0,0.0,-2.7155,-2.8631,-3.0261,-3.2077,-3.3569,-3.4769,-3.5684,-3.6777,-3.7656,-3.8301,-3.873,-3.9277,-3.9902,-3.9902,-4.0254,-4.0879,-4.0879,-4.123,-4.1523,-3.7402,-3.5176,-3.4296,-3.3236,-3.2428,-3.1925,-3.2539,-3.2972,-3.3459,-3.4726,-3.5109,-3.4865,-3.3794,0.0,-3.2459,-3.0513,0.0,0.0,0.0,0.0,-3.3083,-3.4474,-3.5641,-3.6622,-3.7219,-3.8027,-3.8584,-3.8373,-3.7815,-3.6103,0.0,-3.1756,-3.1256,-2.7832,0.0,0.0,0.0,0.0,-3.0833,-3.2949,-3.3987,-3.4776,-3.543,-3.5493,-3.5493,-3.5493,-3.4699,-3.3833,-3.2968,-3.1545,-3.0237,-2.914,-2.7274,-2.5678,-2.4428,0.0,0.0,0.0,0.0,0.0,0.0,0.0,0.0,0.0,0.0,0.0,0.0,0.0,0.0,0.0,0.0,0.0,0.0,0.0,0.0,0.0,0.0,0.0,0.0,0.0,0.0,0.0,0.0,0.0,-2.386,-2.5428,0.0,0.0,0.0,0.0,-2.7643,-2.7827,-2.8979,-3.1632,-3.258,-3.3861,-3.5683,-3.662,-3.7519,-3.8398,-4.0098,-4.0957,-4.1016,-4.2617,-4.3398,-4.3437,-4.3437,-4.3476,-4.3516,-4.3516,-4.3535,-4.3301,-3.9824,-3.7891,-3.693,-3.5182,-3.4438,-3.44,-3.4332,-3.5329,-3.6744,-3.6697,-3.6733,-3.6877,-3.7488,-3.6622,-3.5282,-3.5166,-3.3993,0.0,0.0,-3.4641,-3.5512,-3.6353,-3.7834,-3.9123,-3.9161,-3.9777,-4.0162,-3.9392,-3.92,-3.8604,0.0,-3.5103,-3.3737,-3.2699,0.0,-3.1448,-3.1448,-3.2179,-3.3045,-3.4007,-3.4911,-3.5449,-3.5507,-3.5493,-3.5493,-3.5493,-3.4699,-3.3833,-3.2968,-3.2102,-3.0871,-2.9159,-2.8967,-2.7755,-2.5284,-2.4312,0.0,0.0,0.0,0.0,0.0,0.0,0.0,0.0,0.0,0.0,0.0,0.0,0.0,0.0,0.0,0.0,0.0,0.0,0.0,0.0,0.0,0.0,0.0,0.0,0.0,0.0,0.0,0.0,-2.7219,-2.8068,0.0,0.0,-2.8899,-2.964,-3.1321,-3.1496,-3.2663,-3.5318,-3.5724,-3.6936,-3.9277,-3.9648,-4.0488,-4.1875,-4.25,-4.2812,-4.2812,-4.3418,-4.3691,-4.3691,-4.3691,-4.4004,-4.4531,-4.4531,-4.4801,-4.5118,-4.333,-4.1776,-4.0452,-3.9815,-3.915,-3.8646,-3.9177,-3.9695,-4.0221,-4.0735,-4.0915,-4.0854,-4.0546,-3.9662,-3.8719,-3.8719,-3.8277,-3.7969,-3.8854,-3.9315,-3.9758,-4.0604,-4.1277,-4.1739,-4.1739,-4.195,-4.1931,-4.1085,-4.0912,-4.0566,-3.9373,-3.7796,-3.6199,-3.4814,-3.4757,-3.4737,-3.4218,-3.4834,-3.5661,-3.6526,-3.643,-3.6276,-3.6276,-3.5815,-3.5493,-3.5493,-3.4699,-3.3833,-3.2968,-3.2141,-3.1179,-2.9987,-2.889,-2.789,-2.6986,-2.5091,-2.2551,0.0,0.0,0.0,0.0,0.0,0.0,0.0,0.0,0.0,0.0,0.0,0.0,0.0,0.0,0.0,0.0,0.0,0.0,0.0,0.0,0.0,0.0,0.0,0.0,0.0,0.0,-2.6856,-2.9135,-3.0434,-3.1265,-3.1547,-3.2169,-3.3148,-3.4542,-3.4688,-3.5859,-3.8476,-3.8613,-3.9668,-4.1973,-4.2031,-4.2578,-4.3691,-4.3984,-4.4141,-4.4141,-4.4433,-4.457,-4.457,-4.457,-4.4872,-4.537,-4.537,-4.5657,-4.6065,-4.547,-4.4587,-4.3515,-4.2864,-4.2192,-4.1671,-4.2225,-4.2379,-4.2398,-4.2972,-4.3143,-4.3008,-4.2431,-4.1854,-4.1373,-4.1373,-4.1373,-4.1489,-4.2085,-4.2239,-4.2374,-4.2951,-4.3104,-4.3104,-4.3104,-4.3104,-4.2931,-4.2354,-4.2239,-4.2066,-4.1489,-4.0008,-3.8392,-3.7026,-3.7219,-3.7296,-3.6469,-3.6796,-3.7353,-3.793,-3.7507,-3.7142,-3.7142,-3.6411,-3.5911,-3.5911,-3.4853,-3.3833,-3.2968,-3.2141,-3.1179,-3.0006,-2.889,-2.8044,-2.7467,-2.4957,-2.2831,-2.1139,0.0,0.0,0.0,0.0,0.0,0.0,0.0,0.0,0.0,0.0,0.0,0.0,0.0,0.0,0.0,0.0,0.0,0.0,0.0,0.0,0.0,0.0,0.0,-2.4463,-2.7335,-2.9492,-2.9596,-3.2587,-3.4328,-3.3539,-3.5057,-3.6445,-3.7344,-3.7422,-3.8555,-4.1133,-4.1289,-4.2031,-4.3691,-4.373,-4.375,-4.3789,-4.4629,-4.5039,-4.5058,-4.5898,-4.6308,-4.6308,-4.6308,-4.6222,-4.6116,-4.6102,-4.6103,-4.6103,-4.6102,-4.6082,-4.5909,-4.4028,-4.328,-4.3261,-4.3201,-4.3181,-4.3181,-4.3181,-4.3181,-4.3181,-4.3181,-4.3181,-4.3181,-4.3181,-4.3181,-4.3181,-4.3181,-4.3181,-4.3181,-4.3181,-4.3181,-4.3181,-4.3181,-4.3181,-4.3162,-4.3143,-4.3143,-4.3124,-4.3104,-4.1739,-4.0315,-3.9508,-3.9354,-3.9046,-3.82,-3.8084,0.0,-3.8084,-3.8065,-3.8046,-3.8046,-3.7257,-3.6738,-3.6699,-3.5161,-3.3833,-3.2968,-3.2122,-3.0891,-2.9198,-2.9102,-2.8313,-2.664,-2.4178,-2.2889,-2.2831,0.0,0.0,0.0,0.0,0.0,0.0,0.0,0.0,0.0,0.0,0.0,0.0,0.0,0.0,0.0,0.0,0.0,0.0,0.0,0.0,0.0,0.0,-2.8085,-2.8061,-2.9471,-3.1401,-3.3881,-3.502,-3.6027,-3.705,-3.7594,-3.8516,-4.0019,-4.0137,-4.0976,-4.291,-4.3008,-4.3516,-4.4609,-4.4648,-4.4941,-4.5586,-4.582,-4.5937,-4.5957,-4.6191,-4.6308,-4.6308,-4.6308,-4.6282,-4.6245,-4.6253,-4.618,-4.61,-4.6016,-4.5917,-4.5827,-4.5343,-4.5124,-4.5066,-4.4951,-4.4913,-4.4913,-4.4913,-4.4913,-4.4913,-4.4913,-4.4913,-4.4913,-4.4913,-4.4913,-4.4913,-4.4913,-4.4913,-4.4913,-4.4913,-4.4913,-4.4913,-4.4913,-4.4913,-4.4739,-4.4105,-4.397,-4.3797,-4.3201,-4.2701,-4.2104,-4.1258,-4.0585,-4.0085,-3.9854,-3.9796,0.0,-3.9796,-3.9296,-3.8931,-3.8931,-3.8161,-3.7392,-3.6757,-3.5161,-3.3833,-3.2968,-3.1545,-3.0544,-3.0063,-2.9429,-2.8313,-2.664,-2.5909,-2.4966,0.0,0.0,0.0,0.0,0.0,0.0,0.0,0.0,0.0,0.0,0.0,0.0,0.0,0.0,0.0,0.0,0.0,0.0,0.0,0.0,0.0,0.0,-2.8541,-3.0593,-3.2012,-3.2684,-3.3769,-3.5762,-3.6973,-3.8027,-3.9043,-3.9785,-4.0605,-4.1621,-4.2031,-4.2832,-4.418,-4.4238,-4.4648,-4.5527,-4.5547,-4.5781,-4.6308,-4.6308,-4.6308,-4.6308,-4.6308,-4.6308,-4.6308,-4.6308,-4.6269,0.0,-4.6173,-4.6094,-4.6022,-4.5898,-4.5844,0.0,0.0,0.0,0.0,0.0,-4.5586,-4.5586,-4.5586,-4.5586,-4.5586,-4.5586,-4.5586,-4.5586,-4.5586,-4.5586,-4.5586,-4.5586,-4.5586,-4.5586,-4.5586,-4.5586,-4.5586,-4.5586,-4.5586,-4.5451,-4.4951,-4.4836,-4.4701,-4.4239,-4.3855,0.0,-4.2931,-4.1835,-4.0912,-4.0546,-4.0489,-4.0489,-4.0489,-4.0085,-3.9796,-3.9796,-3.9046,-3.8334,-3.7834,-3.5911,0.0,0.0,0.0,-3.0621,-2.989,-2.9044,0.0,0.0,0.0,0.0,0.0,0.0,0.0,0.0,-2.5332,-2.5447,0.0,0.0,0.0,0.0,0.0,0.0,0.0,0.0,0.0,0.0,0.0,0.0,0.0,0.0,0.0,0.0,-3.0728,-3.2527,-3.5565,-3.625,-3.6445,-3.6445,-3.8496,-3.9961,-4.0156,-4.1523,-4.248,-4.2676,-4.3418,-4.4238,-4.5098,0.0,0.0,0.0,0.0,-4.6308,-4.6308,-4.6285,-4.628,-4.628,-4.6288,-4.6289,-4.6289,-4.6285,-4.6202,-4.6083,-4.5949,-4.5898,-4.589,-4.5833,-4.5829,-4.5853,-4.5699,-4.5605,-4.5586,-4.5586,-4.5586,-4.5586,-4.5586,0.0,0.0,-4.5586,-4.5586,-4.5586,-4.5586,-4.5586,-4.5586,-4.5586,-4.5586,-4.5586,-4.5586,-4.5586,-4.5586,-4.5586,-4.5586,-4.5586,-4.5586,-4.5586,-4.5586,-4.5586,-4.497,-4.4412,-4.4316,-4.2989,-4.1643,-4.0777,-4.0642,-4.0604,-4.0508,-4.0489,-4.0489,-4.0489,0.0,0.0,-3.9296,-3.7142,-3.5699,-3.5512,-3.3199,-3.1141,-2.9583,-2.8832,-2.8409,-2.8332,-2.9121,-2.9852,-3.0552,-3.141,-3.1891,-3.191,-2.8775,-2.8525,0.0,0.0,0.0,0.0,0.0,0.0,0.0,0.0,0.0,0.0,0.0,0.0,0.0,0.0,0.0,-3.043,-3.3103,-3.523,-3.5918,-3.7812,-3.9141,-3.9141,-3.959,-4.043,-4.1797,-4.2207,-4.2988,-4.4394,-4.4648,-4.5137,-4.5996,-4.6055,0.0,-4.6289,-4.6308,-4.6308,-4.6308,-4.6192,-4.6129,-4.6143,0.0,0.0,-4.6133,-4.6134,-4.6109,-4.6085,-4.5949,-4.5898,-4.5892,-4.5828,-4.575,-4.5643,-4.5738,-4.5699,-4.5586,-4.5586,-4.5586,-4.5586,-4.5586,-4.5586,-4.5586,-4.5586,-4.5586,-4.5586,-4.5586,-4.5586,0.0,-4.5586,-4.5586,-4.5586,-4.5586,-4.5586,-4.5586,-4.5586,-4.5586,-4.5586,-4.5586,-4.5586,-4.5586,-4.5586,-4.5451,-4.5124,-4.4412,-4.3489,-4.2547,-4.1681,-4.1546,-4.1296,-4.0585,-4.0489,-4.0489,-4.0489,-4.0354,-4.0008,-3.9354,-3.82,-3.6949,-3.5603,-3.3718,-3.2526,-3.2179,-3.2025,-3.1621,-3.0987,-3.1756,-3.1929,-3.1448,-3.2275,-3.3026,-3.368,-3.2314,-3.1948,0.0,0.0,0.0,0.0,0.0,0.0,0.0,0.0,0.0,0.0,0.0,-2.5977,0.0,0.0,-3.1465,-3.3164,-3.4883,-3.6465,-3.7773,-3.9082,-3.9902,-3.9902,-4.0293,-4.1035,-4.2285,-4.2793,-4.3594,-4.4902,-4.5391,-4.584,-4.6289,-4.6308,-4.6308,-4.6308,-4.6234,-4.6191,-4.6191,-4.6077,-4.6003,-4.5988,-4.6011,-4.5994,-4.6006,-4.6007,-4.5989,-4.5986,-4.5902,-4.5853,-4.5834,-4.5738,-4.5643,-4.5605,-4.568,-4.5643,-4.5586,-4.5586,-4.5586,-4.5586,-4.5586,-4.5586,-4.5586,-4.5586,-4.5586,-4.5586,-4.5586,-4.5586,-4.5586,-4.5586,-4.5586,-4.5586,-4.5586,-4.5586,-4.5586,-4.5586,-4.5586,-4.5586,-4.5586,-4.5586,-4.5586,-4.5586,-4.5586,-4.5451,-4.5028,-4.4624,-4.3912,-4.2643,-4.2085,-4.1643,-4.12,-4.0758,-4.0489,-4.0489,-4.0489,-4.0335,-3.9931,-3.9123,-3.7911,-3.6219,-3.4911,-3.4007,-3.3564,-3.3122,-3.2718,-3.2314,-3.3122,-3.3564,-3.3603,-3.441,-3.5257,-3.6084,-3.5661,-3.5218,0.0,0.0,0.0,0.0,0.0,0.0,0.0,0.0,-2.418,-2.4394,-2.6894,-2.9277,-2.998,-3.166,-3.3613,-3.5664,-3.6426,-3.748,-3.9609,-4.0059,-4.0156,-4.0156,-4.0762,-4.1582,-4.2558,-4.3281,-4.4121,-4.5176,-4.5898,-4.6308,-4.6308,-4.6278,-4.6264,-4.6264,-4.6127,-4.6053,-4.6065,-4.5938,-4.588,-4.5873,-4.5873,-4.5877,-4.588,-4.588,-4.5887,-4.5873,-4.5796,-4.5757,-4.5757,-4.5624,-4.5586,-4.5586,-4.5586,-4.5586,-4.5586,-4.5586,-4.5586,-4.5586,-4.5586,-4.5586,-4.5586,-4.5586,-4.5586,-4.5586,-4.5586,-4.5586,-4.5586,-4.5586,-4.5586,-4.5586,-4.5586,-4.5586,-4.5586,-4.5586,-4.5586,-4.5586,-4.5586,-4.5586,-4.5586,-4.5586,-4.5586,-4.5586,-4.5586,-4.5586,-4.5066,-4.3566,-4.2739,-4.2239,-4.2066,-4.1296,-4.0739,-4.0739,-4.0585,-4.0489,-4.0489,-3.9758,-3.87,-3.7296,-3.6449,-3.568,-3.4968,-3.4257,-3.3891,-3.3891,-3.4584,-3.5276,-3.5988,-3.6642,-3.7315,-3.8007,-3.8161,-3.7873,-2.1844,-2.1113,-2.1133,-2.3418,-2.3437,-2.3691,0.0,0.0,-2.7949,-2.8711,-3.043,-3.1797,-3.1894,-3.3926,-3.5664,-3.5957,-3.7949,-3.957,-3.9863,-4.0566,-4.1055,-4.1055,-4.1133,-4.1816,-4.3398,-4.3633,-4.4375,-4.6035,-4.623,-4.6308,-4.6308,-4.6183,-4.6117,-4.6117,-4.5999,-4.5905,-4.5911,-4.5847,-4.5808,-4.5815,-4.5815,-4.5813,-4.5806,-4.5806,-4.5828,-4.5796,-4.568,-4.5605,-4.5605,-4.5605,-4.5586,-4.5586,-4.5586,-4.5586,-4.5586,-4.5586,-4.5586,-4.5586,-4.5586,-4.5586,-4.5586,-4.5586,-4.5586,-4.5586,-4.5586,-4.5586,-4.5586,-4.5586,-4.5586,-4.5586,-4.5586,-4.5586,-4.5586,-4.5586,-4.5586,-4.5586,-4.5586,-4.5586,-4.5586,-4.5586,-4.5586,-4.5586,-4.5586,-4.5586,-4.5259,-4.4316,-4.4085,-4.3758,-4.3047,-4.22,-4.1662,-4.1662,-4.095,-4.0489,-4.0489,-3.9758,-3.9219,-3.9008,-3.82,-3.768,-3.7584,-3.7488,-3.743,-3.743,-3.7526,-3.7623,-3.7719,-3.7815,-3.7892,-3.8027,-3.8796,-3.9104,-2.4138,-2.4199,0.0,0.0,-2.6797,-2.7422,-2.9375,-3.0215,-3.0664,-3.1035,-3.2461,-3.3652,-3.3652,-3.5351,-3.6914,0.0,-3.8867,-4.0047,-4.0474,-4.0848,-4.1054,-4.0974,-4.0964,-4.1668,-4.3462,-4.3571,-4.4236,-4.5938,-4.6075,-4.6075,-4.6075,-4.6018,-4.5988,-4.5986,-4.5881,-4.5838,-4.5834,-4.5738,-4.568,-4.568,-4.568,-4.568,-4.568,-4.568,-4.568,-4.568,-4.5605,-4.5586,-4.5586,-4.5586,-4.5586,-4.5586,-4.5586,-4.5586,-4.5586,-4.5586,-4.5586,-4.5586,-4.5586,-4.5586,-4.5586,-4.5586,-4.5586,-4.5586,-4.5586,-4.5586,-4.5586,-4.5586,-4.5586,-4.5586,-4.5586,-4.5586,-4.5586,-4.5586,-4.5586,-4.5586,-4.5586,-4.5586,-4.5586,-4.5586,-4.5586,-4.5586,-4.5586,-4.5586,-4.547,-4.5105,-4.4624,-4.4182,-4.3835,-4.3066,-4.2354,-4.1854,-4.1027,-4.0489,-4.0489,-4.0181,-3.9988,-3.9988,-3.9219,-3.8757,-3.8757,-3.8277,-3.8007,-3.8007,-3.8007,-3.8257,-3.8757,-3.8757,-3.8988,-3.945,-3.9815,-3.9988,-2.5878,0.0,0.0,-2.873,-2.9668,-3.0547,-3.1406,-3.2266,-3.2891,-3.2891,-3.4043,-3.5056,-3.5025,-3.6267,0.0,-3.8383,-3.9244,-4.0077,-4.0842,-4.0945,-4.0916,-4.0819,-4.0781,-4.14,-4.3008,-4.3311,-4.4098,-4.577,-4.5906,-4.5906,-4.5906,-4.5886,-4.5874,-4.5853,-4.5796,-4.5738,-4.5738,-4.5643,-4.5586,-4.5586,-4.5586,-4.5586,-4.5586,-4.5586,-4.572,-4.5951,-4.5701,-4.574,-4.5932,-4.5701,-4.5586,-4.5586,-4.5586,-4.5586,-4.5586,-4.5586,-4.5586,-4.5586,-4.5586,-4.5586,-4.5586,-4.5586,-4.5586,-4.5586,-4.5586,-4.5586,-4.5586,-4.5586,-4.5586,-4.5586,-4.5586,-4.5586,-4.5586,-4.5586,-4.5586,-4.5586,-4.5586,-4.5586,-4.5586,-4.5586,-4.5586,-4.5586,-4.5586,-4.5586,-4.5586,-4.5586,-4.5047,-4.4662,-4.4662,-4.3932,-4.3104,-4.2258,-4.1373,-4.0854,-4.0854,-4.0642,-4.0489,-4.0489,-3.995,-3.9623,-3.9623,-3.9008,-3.8681,-3.8681,-3.8681,-3.8988,-3.9623,-3.9623,-3.9931,-4.0508,-4.0739,-4.0854,0.0,0.0,-2.8594,-3.0371,-3.1484,-3.2324,-3.3144,-3.4004,-3.4629,-3.4629,-3.5332,-3.5935,-3.5871,-3.66,-3.7448,-3.8194,-3.9042,-3.9879,-4.0696,-4.0822,-4.0793,-4.0789,-4.0731,-4.1062,0.0,-4.2876,-4.4107,-4.5774,-4.589,-4.589,-4.589,-4.5832,-4.5813,-4.5796,-4.568,-4.5605,-4.5605,-4.5586,-4.5586,-4.5586,-4.5586,-4.5586,-4.5586,-4.5586,-4.6067,-4.6817,-4.597,-4.6086,-4.6797,-4.5951,-4.5586,-4.5586,-4.5586,-4.5586,-4.5586,-4.5586,-4.5586,-4.5586,-4.5586,-4.5586,-4.5586,-4.5586,-4.5586,-4.5586,-4.5586,-4.5586,-4.5586,-4.5586,-4.5586,-4.5586,-4.5586,-4.5586,-4.5586,-4.5586,-4.5586,-4.5586,-4.5586,-4.5586,-4.5586,-4.5586,-4.5586,-4.5586,-4.5586,-4.5586,-4.5586,-4.5586,-4.5566,-4.5547,-4.5547,-4.4797,-4.3951,-4.3143,-4.2277,-4.1758,-4.1758,-4.0989,-4.0489,-4.0489,-4.0469,-4.045,-4.045,-4.0431,-4.0412,-4.0412,-4.0412,-4.0431,-4.045,-4.045,-4.0469,-4.0508,-4.1373,-4.1758,0.0,0.0,-3.0225,-3.2049,-3.3144,-3.4023,-3.4922,-3.5351,-3.5391,-3.4824,-3.4922,-3.4958,-3.4343,-3.5389,-3.6587,-3.7372,-3.8666,-3.987,-4.063,-4.1234,-4.1335,-4.0677,-4.1085,0.0,0.0,0.0,0.0,-4.4759,-4.5355,-4.5699,-4.5699,-4.568,-4.568,-4.568,-4.5605,-4.5586,-4.5586,-4.5586,-4.5586,-4.5586,-4.5586,-4.5893,-4.6471,-4.6471,-4.6913,-4.7682,-4.7394,-4.7432,-4.7682,-4.7375,-4.7259,-4.7259,-4.7259,-4.6932,-4.6471,-4.6471,-4.6105,-4.5586,-4.5586,-4.5586,-4.5586,-4.5586,-4.5586,-4.5586,-4.5586,-4.5586,-4.5586,-4.5586,-4.5586,-4.5586,-4.5586,-4.5586,-4.5586,-4.5586,-4.5586,-4.5586,-4.5586,-4.5586,-4.5586,-4.5586,-4.5586,-4.5586,-4.5586,-4.5586,-4.5586,-4.5586,-4.5586,-4.5586,-4.5586,-4.4836,-4.4201,-4.3932,-4.3162,-4.2662,-4.2662,-4.1854,-4.1354,-4.1354,-4.0816,-4.0489,-4.0489,-4.0489,-4.0489,-4.0489,-4.0489,-4.0489,-4.0489,-4.0489,-4.0796,-4.1373,-4.1662,-4.2104,-2.856,-3.0182,-3.1883,-3.3379,-3.4435,-3.5254,-3.5859,-3.5762,-3.5272,-3.4387,-3.3965,-3.3571,-3.2935,-3.344,-3.4622,-3.6622,-3.7632,-3.8819,-4.0796,-4.1296,-4.145,-4.1431,-4.1643,0.0,0.0,0.0,0.0,-4.4701,-4.5278,-4.5586,-4.5586,-4.5586,-4.5586,-4.5586,-4.5586,-4.5586,-4.5586,-4.5586,-4.5759,-4.6067,-4.6067,-4.6509,-4.7336,-4.7336,-4.7778,-4.8548,-4.824,-4.8279,-4.8548,-4.824,-4.8105,-4.8105,-4.8105,-4.7778,-4.7336,-4.7336,-4.6797,-4.6009,-4.5701,-4.5586,-4.5586,-4.5586,-4.5586,-4.5586,-4.5586,-4.5586,-4.5586,-4.5586,-4.5586,-4.5586,-4.5586,-4.5586,-4.5586,-4.5586,-4.5586,-4.5586,-4.5586,-4.5586,-4.5586,-4.5586,-4.5495,-4.5419,-4.5419,-4.5322,-4.5283,-4.54,-4.5322,-4.5342,-4.5568,-4.5105,-4.4759,-4.4759,-4.4008,-4.3528,-4.3528,-4.2758,-4.2258,-4.2258,-4.1739,-4.1277,-4.0969,-4.095,-4.0816,-4.0508,-4.0796,-4.095,-4.0969,-4.1277,-4.172,-4.2277,-4.2566,-4.2989,-3.016,-3.1908,-3.3492,-3.4424,-3.5327,-3.5975,-3.5936,-3.5253,-3.4344,-3.3378,-3.2532,-3.1883,0.0,0.0,-3.1888,-3.593,-3.6045,-3.7084,-4.1219,-4.1123,-4.1239,0.0,0.0,0.0,0.0,0.0,0.0,-4.5528,0.0,-4.5586,-4.5586,-4.5586,-4.5586,-4.5586,-4.5586,-4.5586,-4.5586,-4.5624,-4.6086,-4.6913,-4.6951,-4.7394,-4.8163,-4.8163,-4.8644,-4.9413,-4.8586,-4.8702,-4.9394,-4.8567,-4.824,-4.824,-4.824,-4.8221,-4.8163,-4.8163,-4.7663,-4.6836,-4.6009,-4.5663,-4.5586,-4.5586,-4.5586,-4.5586,-4.5586,-4.5586,-4.5586,-4.5586,-4.5586,-4.5586,-4.5586,-4.5586,-4.5586,-4.5586,-4.5586,-4.5586,-4.5586,-4.5586,-4.5568,-4.5568,-4.5302,-4.5074,-4.5074,-4.4825,-4.4726,-4.503,-4.4781,-4.4849,-4.5495,-4.5568,-4.555,-4.555,-4.4801,-4.432,-4.432,-4.3571,-4.3109,-4.3109,-4.3071,-4.2667,-4.1824,-4.1822,-4.1453,-4.0608,-4.1431,-4.1873,-4.1873,-4.2701,-4.3124,-4.3181,-4.3932,-4.4316,-3.1833,-3.3134,-3.4248,-3.5194,-3.5601,-3.5621,-3.5068,-3.4244,-3.315,-3.1668,-3.0676,-2.9873,0.0,0.0,0.0,-3.4537,-3.6301,0.0,-4.1393,-4.2162,0.0,0.0,0.0,-4.3758,-4.397,-4.4182,0.0,0.0,-4.5586,-4.5586,-4.5586,-4.5586,-4.5586,-4.5586,-4.5586,-4.5586,-4.5586,-4.624,-4.6682,-4.6913,-4.7509,-4.824,-4.9067,-4.9067,-4.9529,-5.0356,-5.0125,-5.0164,-5.0337,-5.0125,-5.0029,-5.0029,-5.0029,-4.9644,-4.9067,-4.9067,-4.8529,-4.7759,-4.7548,-4.6644,-4.5586,-4.5586,-4.5586,-4.5586,-4.5586,-4.5586,-4.5586,-4.5586,-4.5586,-4.5586,-4.5586,-4.5586,-4.5586,-4.5586,-4.5586,-4.5586,-4.5586,-4.54,-4.5222,-4.5222,-4.4966,-4.4726,-4.4726,-4.4657,-4.4631,-4.4707,-4.4657,-4.4732,-4.5161,-4.5011,-4.4853,-4.4853,-4.464,-4.4507,-4.4507,-4.3748,-4.3251,-4.3251,-4.2644,-4.2166,-4.1958,-4.2197,-4.2221,-4.1991,-4.2501,-4.2777,-4.2777,-4.2989,-4.3412,-4.3989,-4.4201,-4.4643,-3.3103,-3.416,-3.5007,-3.5512,-3.5397,-3.496,-3.4168,-3.3016,-3.1623,-2.9868,-2.8816,0.0,0.0,0.0,0.0,0.0,0.0,0.0,-4.1277,-4.222,-4.2951,0.0,-4.4259,0.0,-4.4836,-4.4874,-4.5066,0.0,-4.5586,-4.5586,-4.5586,-4.5586,-4.5586,-4.5586,-4.5586,-4.5778,-4.6163,-4.6663,-4.7278,-4.8009,-4.8452,-4.9125,-4.9971,-4.9971,-5.024,-5.0702,0.0,-5.0702,-5.0702,-5.0702,-5.0702,-5.0702,-5.0702,-5.0394,-4.9971,-4.9971,-4.9413,-4.8663,-4.8663,-4.7798,-4.6701,-4.6701,-4.6701,-4.6624,-4.6278,-4.6163,-4.6086,-4.5701,-4.5586,-4.5586,-4.5586,-4.5586,-4.5568,-4.5419,-4.5381,-4.5342,-4.5182,-4.5011,-4.4849,-4.4638,-4.4455,-4.4308,-4.4154,-4.4125,-4.4184,-4.4318,-4.4223,-4.4252,-4.4587,-4.4606,-4.458,-4.458,-4.458,-4.458,-4.458,-4.4146,-4.3882,-4.3882,-4.3403,-4.297,-4.2586,-4.2902,-4.2883,-4.2502,-4.3233,-4.3624,-4.3624,-4.4008,-4.4432,-4.4874,-4.4874,-4.5124,-3.4141,-3.4968,-3.5586,-3.56,-3.5025,-3.4214,-3.3233,-3.1615,-2.9822,-2.801,0.0,-2.6343,-2.6274,0.0,-2.8082,-3.2083,0.0,-3.593,-4.0931,-4.1739,-4.2701,-4.5143,-4.4855,-4.4759,-4.5528,-4.5586,-4.5586,-4.5586,-4.5586,-4.5586,-4.5586,-4.5586,-4.5586,-4.5586,-4.5586,-4.5951,-4.6721,-4.6951,-4.7798,-4.9221,-4.9452,-4.9971,-5.0702,-5.0702,-5.0702,-5.0702,0.0,0.0,-5.0702,-5.0702,-5.0702,-5.0702,-5.0702,-5.0702,-5.0702,-5.0702,-5.0221,-4.9567,-4.9567,-4.9086,-4.8413,-4.8182,-4.8105,-4.7971,-4.7278,-4.699,-4.674,-4.599,-4.5682,-4.5586,-4.5586,-4.5568,-4.5457,-4.518,-4.5074,-4.4943,-4.4657,-4.4553,-4.4401,-4.4016,-4.3924,-4.3849,-4.3548,-4.3497,-4.3597,-4.3881,-4.3712,-4.3597,-4.3912,-4.4252,-4.4447,-4.4447,-4.4447,-4.4447,-4.4447,-4.4447,-4.4447,-4.4447,-4.4447,-4.4135,-4.3401,-4.3706,-4.3564,-4.2864,-4.3923,-4.447,-4.447,-4.522,-4.5586,-4.5586,-4.5586,-4.5586,-3.5045,-3.543,-3.5603,-3.5599,-3.495,-3.3921,-3.2382,-3.0155,0.0,0.0,0.0,-2.4553,-2.4533,-2.6255,0.0,-3.1448,0.0,0.0,0.0,0.0,-4.2489,0.0,0.0,0.0,0.0,0.0,0.0,0.0,0.0,0.0,-4.5586,-4.5586,-4.5586,-4.5586,-4.5586,-4.5663,-4.5817,-4.7201,-4.8048,-4.8336,-4.9779,-5.0548,-5.0702,-5.0702,-5.0702,-5.0702,0.0,0.0,-5.0702,-5.0702,-5.0702,-5.0702,-5.0702,-5.0702,-5.0702,-5.0702,-5.0587,-5.0471,-5.0471,-5.0375,-5.001,-4.8567,-4.8105,-4.8067,-4.7932,-4.7432,-4.6874,-4.6721,-4.6163,-4.5586,-4.5586,-4.5381,-4.518,-4.5118,-4.4896,-4.4657,-4.4606,-4.4318,-4.3986,-4.3646,-4.3597,-4.3563,-4.3513,-4.3497,-4.3513,-4.3563,-4.3548,-4.3513,-4.3563,-4.3664,-4.3679,-4.3679,-4.3679,-4.3679,-4.3679,-4.3679,-4.3679,-4.3679,-4.3679,-4.3749,-4.3882,-4.4248,-4.4521,-4.4658,-4.5132,-4.5355,-4.5355,-4.5528,-4.5586,-4.5586,-4.5586,-4.5586,-3.5257,-3.5526,-3.5565,-3.5565,-3.4237,-3.2622,-3.1364,0.0,0.0,0.0,0.0,-2.3571,-2.4014,0.0,0.0,0.0,0.0,0.0,0.0,0.0,0.0,0.0,0.0,0.0,0.0,0.0,0.0,0.0,0.0,0.0,-4.5586,-4.5586,-4.5586,-4.5586,-4.5586,-4.5817,-4.6278,-4.7067,-4.7702,-4.8125,-4.9413,-5.001,-5.0029,-5.0491,-5.0702,-5.0702,-5.0702,0.0,-5.0702,-5.0702,-5.0702,-5.0702,-5.0702,-5.0702,-5.0702,-5.0702,-5.0702,-5.0702,-5.0702,-5.0394,-4.9856,-4.8832,-4.8644,-4.8606,-4.774,-4.7221,-4.6761,-4.6148,-4.5668,-4.5302,-4.5118,-4.4966,-4.4781,-4.4587,-4.4261,-4.4035,-4.4035,-4.3868,-4.3693,-4.3548,-4.3497,-4.3497,-4.3497,-4.3497,-4.3497,-4.3497,-4.3497,-4.3497,-4.3497,-4.3497,-4.3497,-4.3497,-4.3497,-4.3497,-4.3497,-4.3497,-4.3563,-4.3758,-4.374,-4.3943,-4.4308,-4.4657,-4.4943,-4.5096,-4.5419,-4.5586,-4.5586,-4.5586,-4.5586,-4.5586,-4.5586,-4.5586,-3.5045,-3.5372,-3.5468,-3.5276,-3.3449,-3.1429,-3.0371,-2.7486,0.0,0.0,-2.3129,-2.2793,-2.3667,0.0,0.0,0.0,0.0,0.0,0.0,0.0,0.0,0.0,0.0,0.0,0.0,0.0,0.0,0.0,0.0,0.0,-4.5586,-4.5586,-4.5586,-4.5586,-4.5586,-4.5932,-4.6605,-4.6817,-4.7221,-4.7855,-4.8702,-4.9221,-4.9413,-5.0106,-5.051,-5.0702,-5.0702,0.0,0.0,-5.0702,-5.0702,-5.0702,-5.0702,-5.0702,-5.0702,-5.0702,-5.0548,-5.0296,-5.0296,-4.9719,-4.8828,-4.8376,-4.8589,-4.8759,-4.7356,-4.6799,-4.6471,-4.5532,-4.5141,-4.4919,-4.4657,-4.4527,-4.4373,-4.3986,-4.3693,-4.3497,-4.3497,-4.3497,-4.3497,-4.3497,-4.3497,-4.3497,-4.3497,-4.3497,-4.3497,-4.3497,-4.3497,-4.3497,-4.3497,-4.3497,-4.3497,-4.3497,-4.3497,-4.3497,-4.3497,-4.3497,-4.3612,-4.3881,-4.3955,-4.4146,-4.4474,-4.4872,-4.5096,-4.5096,-4.5419,-4.5586,-4.5586,-4.5586,-4.5586,-4.5586,-4.5586,-4.5586,-3.4295,-3.4911,-3.5315,-3.4526,-3.3006,-3.1256,-2.9602,0.0,0.0,-2.3109,-2.2235,-2.1889,-2.2754,-2.3629,0.0,0.0,0.0,0.0,0.0,0.0,0.0,0.0,0.0,0.0,0.0,0.0,0.0,0.0,0.0,0.0,0.0,-4.5586,-4.5586,-4.5586,-4.5586,-4.5624,-4.572,-4.6509,-4.6951,-4.7028,-4.7836,-4.8625,-4.9394,-4.9471,-4.9952,-5.0702,0.0,0.0,0.0,-5.0702,-5.0702,-5.0702,-5.0702,-5.0702,-5.0702,-5.0702,-5.0003,-4.9075,-4.9075,-4.8319,-4.7167,-4.6339,-4.6852,-4.7674,-4.7214,-4.6542,-4.5873,-4.5772,-4.5198,-4.4631,-4.4624,-4.4318,-4.3955,-4.3631,-4.3513,-4.3497,-4.3497,-4.3497,-4.3497,-4.3497,-4.3497,-4.3497,-4.3497,-4.3497,-4.3497,-4.3497,-4.3497,-4.3497,-4.3497,-4.3497,-4.3497,-4.3497,-4.3497,-4.3497,-4.3497,-4.3497,-4.3513,-4.3548,-4.3818,-4.4016,-4.4058,-4.4713,-4.5096,-4.5096,-4.5419,-4.5586,-4.5586,-4.5586,-4.5586,-4.5586,-4.5586,-4.5586,-3.3776,-3.4449,-3.4622,-3.4276,-3.2545,-3.0602,-2.9371,0.0,-2.3225,-2.287,-2.1716,-2.1196,-2.2543,-2.3081,-2.3985,0.0,-2.6601,-2.7948,0.0,0.0,0.0,0.0,0.0,0.0,0.0,0.0,0.0,0.0,0.0,0.0,0.0,-4.5586,-4.5586,-4.5586,-4.5586,-4.5586,-4.5586,-4.5932,-4.6124,-4.6124,-4.6971,-4.7567,-4.7913,-4.8394,-4.8951,-4.9532,0.0,0.0,0.0,-5.0028,-5.0221,-5.0683,-5.0421,-5.003,-4.9589,-4.933,-4.8631,-4.7827,-4.7827,-4.7155,-4.624,-4.5679,-4.5482,-4.5442,-4.5561,-4.5361,-4.5044,-4.4758,-4.4495,-4.4175,-4.3974,-4.3804,-4.3679,-4.3548,-4.3497,-4.3497,-4.3497,-4.3497,-4.3497,-4.3497,-4.3497,-4.3497,-4.3497,-4.3497,-4.3497,-4.3497,-4.3497,-4.3497,-4.3497,-4.3497,-4.3497,-4.3497,-4.3497,-4.3497,-4.3497,-4.3497,-4.3597,-4.3804,-4.3924,-4.4087,-4.4346,-4.4657,-4.48,-4.48,-4.4943,-4.4988,-4.4988,-4.4988,-4.4988,-4.4988,-4.4988,-4.4988,-3.2583,-3.343,-3.3757,-3.3526,-3.1718,-2.9794,0.0,0.0,-2.2793,-2.2793,-2.1466,-2.0812,-2.2485,-2.2793,-2.3351,-2.5034,-2.5514,-2.6582,-2.9121,0.0,0.0,0.0,0.0,0.0,0.0,0.0,0.0,0.0,0.0,0.0,0.0,-4.5586,-4.5586,-4.5586,-4.5586,-4.5586,-4.5586,-4.5586,-4.5586,-4.5605,-4.622,-4.6644,-4.6932,-4.7357,-4.7888,-4.8414,0.0,0.0,0.0,-4.896,-4.9179,-4.9609,-4.9325,-4.8865,-4.8332,-4.8056,-4.7363,-4.6563,-4.6563,-4.5933,-4.5065,-4.4829,-4.4363,-4.3912,-4.4194,-4.428,-4.4242,-4.3943,-4.3849,-4.3804,-4.3563,-4.3497,-4.3497,-4.3497,-4.3497,-4.3497,-4.3497,-4.3497,-4.3497,-4.3497,-4.3497,-4.3497,-4.3497,-4.3497,-4.3497,-4.3497,-4.3497,-4.3497,-4.3497,-4.3497,-4.3497,-4.3497,-4.3497,-4.3497,-4.3497,-4.3497,-4.3597,-4.3836,-4.3955,-4.4076,-4.4252,-4.4474,-4.4553,-4.4401,-4.4527,-4.458,-4.458,-4.458,-4.458,-4.458,-4.458,-4.458,-3.0417,-3.166,-3.2718,-3.1929,-3.041,-2.889,0.0,-2.5255,-2.2793,-2.2793,-2.1466,-2.0812,-2.2485,-2.2793,-2.3351,-2.5034,-2.6024,-2.7486,-3.0033,0.0,0.0,0.0,0.0,0.0,0.0,0.0,0.0,0.0,0.0,0.0,0.0,-4.5586,-4.5586,-4.5586,-4.5586,-4.5586,-4.5586,-4.5586,-4.5586,-4.5586,-4.5605,-4.6067,-4.6876,-4.6506,-4.6797,0.0,0.0,0.0,0.0,-4.7481,-4.7433,-4.7124,-4.7124,-4.7124,-4.7106,-4.7106,-4.6356,-4.5326,-4.5326,-4.4541,-4.3532,-4.3532,-4.3532,-4.3532,-4.3513,-4.3513,-4.3513,-4.3532,-4.3532,-4.3479,-4.3497,-4.3497,-4.3497,-4.3497,-4.3497,-4.3497,-4.3497,-4.3497,-4.3497,-4.3497,-4.3497,-4.3497,-4.3497,-4.3497,-4.3497,-4.3497,-4.3497,-4.3497,-4.3497,-4.3497,-4.3497,-4.3497,-4.3497,-4.3497,-4.3497,-4.3497,-4.3479,-4.3479,-4.3836,-4.3849,-4.3513,-4.4194,-4.4401,-4.3998,-4.4392,-4.458,-4.458,-4.458,-4.458,-4.458,-4.458,-4.458,-2.8371,-2.9486,-3.0102,-2.9294,-2.8679,-2.789,-2.6447,-2.4409,-2.262,-2.2023,-2.1043,-2.0639,-2.1716,-2.2389,-2.3543,-2.5832,-2.6928,0.0,0.0,0.0,0.0,0.0,0.0,0.0,0.0,0.0,0.0,0.0,0.0,0.0,0.0,-4.5586,-4.5586,-4.5586,-4.5586,-4.5586,-4.5586,-4.5586,-4.5495,-4.5243,-4.5243,-4.5292,-4.5318,-4.5204,0.0,0.0,0.0,0.0,0.0,-4.6463,-4.6656,-4.7078,-4.6794,-4.6349,-4.5832,-4.556,-4.4883,-4.4066,-4.4066,-4.3818,-4.3497,-4.3497,-4.3497,-4.3497,-4.3497,-4.3497,-4.3497,-4.3497,-4.3497,-4.3497,-4.3497,-4.3497,-4.3497,-4.3497,-4.3497,-4.3497,-4.3497,-4.3497,-4.3497,-4.3497,-4.3497,-4.3497,-4.3497,-4.3497,-4.3497,-4.3497,-4.3497,-4.3497,-4.3497,-4.3497,-4.3497,-4.3497,-4.3497,-4.3497,-4.3497,-4.3497,-4.3497,-4.3497,-4.3597,-4.3631,-4.3479,-4.3712,-4.3791,-4.3679,-4.3791,-4.3855,-4.3855,-4.3855,-4.3855,-4.3855,-4.3855,-4.3855,0.0,-2.7525,-2.8121,-2.7928,-2.7409,-2.664,-2.5553,-2.3755,-2.2158,-2.162,-2.0869,-2.0658,-2.1773,-2.2427,-2.3524,-2.5755,-2.6563,0.0,0.0,0.0,0.0,0.0,0.0,0.0,0.0,0.0,0.0,0.0,0.0,0.0,0.0,0.0,-4.5586,-4.5586,-4.5586,-4.555,-4.5419,-4.5419,-4.5243,-4.4919,-4.4919,-4.4781,-4.458,-4.4447,0.0,0.0,0.0,0.0,0.0,-4.5177,-4.5387,-4.5728,-4.5486,-4.5041,-4.4596,-4.4336,-4.392,-4.3497,-4.3497,-4.3497,-4.3497,-4.3497,-4.3497,-4.3497,-4.3497,-4.3497,-4.3497,-4.3497,-4.3497,-4.3497,-4.3497,-4.3497,-4.3497,-4.3497,-4.3497,-4.3497,-4.3497,-4.3497,-4.3497,-4.3497,-4.3497,-4.3497,-4.3497,-4.3497,-4.3497,-4.3497,-4.3497,-4.3497,-4.3497,-4.3497,-4.3497,-4.3497,-4.3497,-4.3497,-4.3497,-4.3497,-4.3497,-4.3497,-4.3497,-4.3497,-4.3497,-4.3497,-4.3497,-4.3497,-4.3497,-4.3497,-4.3497,-4.3497,-4.3497,-4.3497,-4.3497,-4.3497,0.0,0.0,0.0,0.0,-2.6274,-2.5111,-2.5034,-2.3197,0.0,-2.1427,-2.0831,-2.0792,-2.2408,-2.2754,-2.337,-2.5111,-2.5495,0.0,0.0,0.0,0.0,0.0,0.0,0.0,0.0,0.0,0.0,0.0,0.0,0.0,0.0,0.0,-4.5586,-4.5568,-4.5568,-4.5419,-4.5096,-4.5074,-4.4896,-4.4553,-4.4553,-4.4553,-4.4501,-4.4117,0.0,0.0,0.0,0.0,0.0,-4.3836,-4.3772,-4.3497,-4.3497,-4.3497,-4.3497,-4.3497,-4.3497,-4.3497,-4.3497,-4.3497,-4.3497,-4.3497,-4.3497,-4.3497,-4.3497,-4.3497,-4.3497,-4.3497,-4.3497,-4.3497,-4.3497,-4.3497,-4.3497,-4.3497,-4.3497,-4.3497,-4.3497,-4.3497,-4.3497,-4.3497,-4.3497,-4.3497,-4.3497,-4.3497,-4.3497,-4.3497,-4.3497,-4.3497,-4.3497,-4.3497,-4.3497,-4.3497,-4.3497,-4.3497,-4.3497,-4.3497,-4.3497,-4.3497,-4.3497,-4.3497,-4.3497,-4.3497,-4.3497,-4.3497,-4.3497,-4.3497,-4.3497,-4.3497,-4.3497,-4.3497,-4.3497,-4.3497,-2.1139,0.0,-2.3581,-2.312,-2.3197,-2.3216,0.0,-2.1927,-2.1331,-2.0716,0.0,0.0,-2.162,-2.235,-2.3562,0.0,0.0,0.0,0.0,0.0,0.0,0.0,0.0,0.0,0.0,0.0,0.0,0.0,0.0,0.0,0.0,0.0,-4.5495,-4.5222,-4.5222,-4.518,-4.5096,-4.4849,-4.4508,-4.4146,-4.4146,-4.4004,-4.3777,-4.3646,0.0,0.0,0.0,0.0,-4.3532,-4.3597,-4.3563,-4.3497,-4.3497,-4.3497,-4.3497,-4.3497,-4.3497,-4.3497,-4.3497,-4.3497,-4.3497,-4.3497,-4.3497,-4.3497,-4.3497,-4.3497,-4.3497,-4.3497,-4.3497,-4.3497,-4.3497,-4.3497,-4.3497,-4.3497,-4.3497,-4.3497,-4.3497,-4.3497,-4.3497,-4.3497,-4.3497,-4.3497,-4.3497,-4.3497,-4.3497,-4.3497,-4.3497,-4.3497,-4.3497,-4.3497,-4.3497,-4.3497,-4.3497,-4.3497,-4.3497,-4.3497,-4.3497,-4.3497,-4.3497,-4.3497,-4.3497,-4.3497,-4.3497,-4.3497,-4.3497,-4.3497,-4.3497,-4.3497,-4.3497,-4.3497,-4.3497,-4.3497,-1.9465,-2.1216,-2.2774,-2.2716,-2.2754,-2.2677,-2.2197,0.0,0.0,0.0,0.0,0.0,0.0,0.0,0.0,0.0,0.0,0.0,0.0,0.0,0.0,0.0,0.0,0.0,0.0,0.0,0.0,0.0,0.0,0.0,0.0,0.0,-4.5302,-4.5096,-4.4762,-4.4612,-4.4612,-4.4428,-4.4136,-4.3772,-4.3772,-4.3679,-4.3497,-4.3497,-4.3497,0.0,0.0,0.0,-4.3497,-4.3497,-4.3497,-4.3497,-4.3497,-4.3497,-4.3497,-4.3497,-4.3497,-4.3497,-4.3497,-4.3497,-4.3497,-4.3497,-4.3497,-4.3497,-4.3497,-4.3497,-4.3497,-4.3497,-4.3497,-4.3497,-4.3497,-4.3497,-4.3497,-4.3497,-4.3497,-4.3497,-4.3497,-4.3497,-4.3497,-4.3497,-4.3497,-4.3497,-4.3497,-4.3497,-4.3497,-4.3497,-4.3497,-4.3497,-4.3497,-4.3497,-4.3497,-4.3497,-4.3497,-4.3497,-4.3497,-4.3497,-4.3497,-4.3497,-4.3497,-4.3497,-4.3497,-4.3497,-4.3497,-4.3497,-4.3497,-4.3497,-4.3497,-4.3497,-4.3497,-4.3497,-4.3497,-4.3497,-1.8722,-2.0762,-2.2774,-2.3514,-2.3244,-2.2793,-2.2793,0.0,0.0,0.0,0.0,0.0,0.0,0.0,0.0,0.0,0.0,0.0,0.0,0.0,0.0,0.0,0.0,0.0,0.0,0.0,0.0,0.0,0.0,0.0,0.0,0.0,0.0,-4.4943,-4.4346,-4.3986,-4.3924,-4.3924,-4.3772,-4.3497,-4.3497,-4.3497,-4.3497,-4.3497,-4.3497,0.0,0.0,0.0,-4.3497,-4.3497,-4.3497,-4.3497,-4.3497,-4.3497,-4.3497,-4.3497,-4.3497,-4.3497,-4.3497,-4.3497,-4.3497,-4.3497,-4.3497,-4.3497,-4.3497,-4.3497,-4.3497,-4.3497,-4.3497,-4.3497,-4.3497,-4.3497,-4.3497,-4.3497,-4.3497,-4.3497,-4.3497,-4.3497,-4.3497,-4.3497,-4.3497,-4.3497,-4.3497,-4.3497,-4.3497,-4.3497,-4.3497,-4.3497,-4.3497,-4.3497,-4.3497,-4.3497,-4.3497,-4.3497,-4.3497,-4.3497,-4.3497,-4.3497,-4.3497,-4.3497,-4.3497,-4.3497,-4.3497,-4.3497,-4.3497,-4.3497,-4.3497,-4.3497,-4.3497,-4.3497,-4.3497,-4.3497,-1.8588,-2.0319,-2.1735,-2.187,-2.235,-2.2793,-2.2793,0.0,0.0,0.0,0.0,0.0,0.0,0.0,0.0,0.0,0.0,0.0,0.0,0.0,0.0,0.0,0.0,0.0,0.0,0.0,0.0,0.0,0.0,0.0,0.0,0.0,0.0,-4.4204,-4.4058,-4.3849,-4.3563,-4.3563,-4.3548,-4.3497,-4.3497,-4.3497,-4.3497,-4.3497,-4.3497,0.0,0.0,-4.3497,-4.3497,-4.3497,-4.3497,-4.3497,-4.3497,-4.3497,-4.3497,-4.3497,-4.3497,-4.3497,-4.3497,-4.3497,-4.3497,-4.3497,-4.3497,-4.3497,-4.3497,-4.3497,-4.3497,-4.3497,-4.3497,-4.3497,-4.3497,-4.3497,-4.3497,-4.3497,-4.3497,-4.3497,-4.3497,-4.3497,-4.3497,-4.3497,-4.3497,-4.3497,-4.3497,-4.3497,-4.3497,-4.3497,-4.3497,-4.3497,-4.3497,-4.3497,-4.3497,-4.3497,-4.3497,-4.3497,-4.3497,-4.3497,-4.3497,-4.3497,-4.3497,-4.3497,-4.3497,-4.3497,-4.3497,-4.3497,-4.3497,-4.3497,-4.3497,-4.3497,-4.3497,-4.3497,-4.3497,-4.3497,-1.7837,-1.9203,-2.0485,-2.185,-2.2851,-2.3494,-2.3494,0.0,0.0,0.0,0.0,0.0,0.0,0.0,0.0,0.0,0.0,0.0,0.0,0.0,0.0,0.0,0.0,0.0,0.0,0.0,0.0,0.0,0.0,0.0,0.0,0.0,0.0,0.0,-4.3818,-4.3646,-4.3479,-4.3497,-4.3497,-4.3497,-4.3497,-4.3497,-4.3497,-4.3497,-4.3497,-4.3497,0.0,-4.3497,-4.3497,-4.3497,-4.3497,-4.3497,-4.3497,-4.3497,-4.3497,-4.3497,-4.3497,-4.3497,-4.3497,-4.3497,-4.3497,-4.3497,-4.3497,-4.3497,-4.3497,-4.3497,-4.3497,-4.3497,-4.3497,-4.3497,-4.3497,-4.3497,-4.3497,-4.3497,-4.3497,-4.3497,-4.3497,-4.3497,-4.3497,-4.3497,-4.3497,-4.3497,-4.3497,-4.3497,-4.3497,-4.3497,-4.3497,-4.3497,-4.3497,-4.3497,-4.3497,-4.3497,-4.3497,-4.3497,-4.3497,-4.3497,-4.3497,-4.3497,-4.3497,-4.3497,-4.3497,-4.3497,-4.3497,-4.3497,-4.3497,-4.3497,-4.3497,-4.3497,-4.3497,-4.3497,-4.3497,-4.3497,-1.7792,-1.8645,-1.9665,-2.2417,0.0,-2.4206,-2.461,-2.4341,0.0,0.0,0.0,0.0,0.0,0.0,0.0,0.0,0.0,0.0,0.0,0.0,0.0,0.0,0.0,0.0,0.0,0.0,0.0,0.0,0.0,0.0,0.0,0.0,0.0,0.0,-4.3612,-4.3497,-4.3497,-4.3497,-4.3497,-4.3497,-4.3497,-4.3497,-4.3497,-4.3497,-4.3497,-4.3497,-4.3497,-4.3497,-4.3497,-4.3497,-4.3497,-4.3497,-4.3497,-4.3497,-4.3497,-4.3497,-4.3497,-4.3497,-4.3497,-4.3497,-4.3497,-4.3497,-4.3497,-4.3497,-4.3497,-4.3497,-4.3497,-4.3497,-4.3497,-4.3497,-4.3497,-4.3497,-4.3497,-4.3497,-4.3497,-4.3497,-4.3497,-4.3497,-4.3497,-4.3497,-4.3497,-4.3497,-4.3497,-4.3497,-4.3497,-4.3497,-4.3497,-4.3497,-4.3497,-4.3497,-4.3497,-4.3497,-4.3497,-4.3497,-4.3497,-4.3497,-4.3497,-4.3497,-4.3497,-4.3497,-4.3497,-4.3497,-4.3497,-4.3497,-4.3497,-4.3497,-4.3497,-4.3497,-4.3497,-4.3497,-4.3497,-4.3497,-1.9446,-1.9561,-1.98,-2.3167,-2.4052,0.0,-2.6063,-2.7005,0.0,-2.8486,0.0,0.0,0.0,0.0,0.0,0.0,0.0,0.0,0.0,0.0,0.0,0.0,0.0,0.0,0.0,0.0,0.0,0.0,0.0,0.0,0.0,0.0,0.0,0.0,0.0,-4.3497,-4.3497,-4.3497,-4.3497,-4.3497,-4.3497,-4.3497,-4.3497,-4.3497,-4.3497,-4.3497,-4.3497,-4.3497,-4.3497,-4.3497,-4.3497,-4.3497,-4.3497,-4.3497,-4.3497,-4.3497,-4.3497,-4.3497,-4.3497,-4.3497,-4.3497,-4.3497,-4.3497,-4.3497,-4.3497,-4.3497,-4.3497,-4.3497,-4.3497,-4.3497,-4.3497,-4.3497,-4.3497,-4.3497,-4.3497,-4.3497,-4.3497,-4.3497,-4.3497,-4.3497,-4.3497,-4.3497,-4.3497,-4.3497,-4.3497,-4.3497,-4.3497,-4.3497,-4.3497,-4.3497,-4.3497,-4.3497,-4.3497,-4.3497,-4.3497,-4.3497,-4.3497,-4.3497,-4.3497,-4.3497,-4.3497,-4.3497,-4.3497,-4.3497,-4.3497,-4.3497,-4.3497,-4.3497,-4.3497,-4.3497,-4.3497,-4.3497,-1.8939,-1.9254,-1.9684,-2.2571,-2.3706,0.0,0.0,-2.7274,-2.8121,-2.8929,-2.9525,0.0,0.0,0.0,0.0,0.0,0.0,0.0,0.0,0.0,0.0,0.0,0.0,0.0,0.0,0.0,0.0,0.0,0.0,0.0,0.0,0.0,0.0,0.0,0.0,-4.3497,-4.3497,-4.3497,-4.3497,-4.3497,-4.3497,-4.3497,-4.3497,-4.3497,-4.3497,-4.3497,-4.3497,-4.3497,-4.3497,-4.3497,-4.3497,-4.3497,-4.3497,-4.3497,-4.3497,-4.3497,-4.3497,-4.3497,-4.3497,-4.3497,-4.3497,-4.3497,-4.3497,-4.3497,-4.3497,-4.3497,-4.3497,-4.3497,-4.3497,-4.3497,-4.3497,-4.3497,-4.3497,-4.3497,-4.3497,-4.3497,-4.3497,-4.3497,-4.3497,-4.3497,-4.3497,-4.3497,-4.3497,-4.3497,-4.3497,-4.3497,-4.3497,-4.3497,-4.3497,-4.3497,-4.3497,-4.3497,-4.3497,-4.3497,-4.3497,-4.3497,-4.3497,-4.3497,-4.3497,-4.3497,-4.3497,-4.3497,-4.3497,-4.3497,-4.3497,-4.3497,-4.3497,-4.3497,-4.3497,-4.3497,-4.3497,-4.3497,-1.9016,-1.96,-2.0339,-2.2648,0.0,0.0,-2.6948,-2.8063,-2.9006,-3.0083,0.0,0.0,0.0,0.0,0.0,0.0,0.0,0.0,0.0,0.0,0.0,0.0,0.0,0.0,0.0,0.0,0.0,0.0,0.0,0.0,0.0,0.0,0.0,0.0,0.0,-4.3497,-4.3497,-4.3497,-4.3497,-4.3497,-4.3497,-4.3497,-4.3497,-4.3497,-4.3497,-4.3497,-4.3497,-4.3497,-4.3497,-4.3497,-4.3497,-4.3497,-4.3497,-4.3497,-4.3497,-4.3497,-4.3497,-4.3497,-4.3497,-4.3497,-4.3497,-4.3497,-4.3497,-4.3497,-4.3497,-4.3497,-4.3497,-4.3497,-4.3497,-4.3497,-4.3497,-4.3497,-4.3497,-4.3497,-4.3497,-4.3497,-4.3497,-4.3497,-4.3497,-4.3497,-4.3497,-4.3497,-4.3497,-4.3497,-4.3497,-4.3497,-4.3497,-4.3497,-4.3497,-4.3497,-4.3497,-4.3497,-4.3497,-4.3497,-4.3497,-4.3497,-4.3497,-4.3497,-4.3497,-4.3497,-4.3497,-4.3497,-4.3497,-4.3497,-4.3497,-4.3497,-4.3497,-4.3497,-4.3497,-4.3497,-4.3497,-4.3497,-2.0062,-2.0889,-2.1927,0.0,0.0,0.0,-2.8525,-2.9794,-3.0891,-3.2583,0.0,0.0,0.0,0.0,0.0,0.0,0.0,0.0,0.0,0.0,0.0,0.0,0.0,0.0,0.0,0.0,0.0,0.0,0.0,0.0,0.0,0.0,0.0,0.0,-4.3057,-4.3461,-4.3479,-4.3479,-4.3479,-4.3497,-4.3497,-4.3497,-4.3497,-4.3497,-4.3497,-4.3497,-4.3497,-4.3497,-4.3497,-4.3497,-4.3497,-4.3497,-4.3497,-4.3497,-4.3497,-4.3497,-4.3497,-4.3497,-4.3497,-4.3497,-4.3497,-4.3497,-4.3497,-4.3497,-4.3497,-4.3497,-4.3497,-4.3497,-4.3497,-4.3497,-4.3497,-4.3497,-4.3497,-4.3497,-4.3497,-4.3497,-4.3497,-4.3497,-4.3497,-4.3497,-4.3497,-4.3497,-4.3497,-4.3497,-4.3497,-4.3497,-4.3497,-4.3497,-4.3497,-4.3497,-4.3497,-4.3497,-4.3497,-4.3497,-4.3497,-4.3497,-4.3497,-4.3497,-4.3497,-4.3497,-4.3497,-4.3497,-4.3497,-4.3497,-4.3497,-4.3497,-4.3497,-4.3497,-4.3497,-4.3497,-4.3497,-4.3497,-1.9492,-2.0427,0.0,0.0,0.0,0.0,0.0,-3.0698,0.0,0.0,0.0,0.0,0.0,0.0,0.0,0.0,0.0,0.0,0.0,0.0,0.0,0.0,0.0,0.0,0.0,0.0,0.0,0.0,0.0,0.0,0.0,0.0,0.0,0.0,-4.1699,-4.2084,-4.2653,-4.2653,-4.2928,-4.3497,-4.3497,-4.3497,-4.3497,-4.3497,-4.3497,-4.3497,-4.3497,-4.3497,-4.3497,-4.3497,-4.3497,-4.3497,-4.3497,-4.3497,-4.3497,-4.3497,-4.3497,-4.3497,-4.3497,-4.3497,-4.3497,-4.3497,-4.3497,-4.3497,-4.3497,-4.3497,-4.3497,-4.3497,-4.3497,-4.3497,-4.3497,-4.3497,-4.3497,-4.3497,-4.3497,-4.3497,-4.3497,-4.3497,-4.3497,-4.3497,-4.3497,-4.3497,-4.3497,-4.3497,-4.3497,-4.3497,-4.3497,-4.3497,-4.3497,-4.3497,-4.3497,-4.3497,-4.3497,-4.3497,-4.3497,-4.3497,-4.3497,-4.3497,-4.3497,-4.3497,-4.3497,-4.3497,-4.3497,-4.3497,-4.3497,-4.3497,-4.3497,-4.3497,-4.3497,-4.3497,-4.3497,-4.3497,-2.0473,0.0,0.0,0.0,0.0,0.0,0.0,0.0,0.0,0.0,0.0,0.0,0.0,0.0,0.0,0.0,0.0,0.0,0.0,0.0,0.0,0.0,0.0,0.0,0.0,0.0,0.0,0.0,0.0,0.0,0.0,0.0,0.0,0.0,-4.0946,-4.135,-4.1827,-4.2139,-4.2543,-4.302,-4.3332,-4.3497,-4.3497,-4.3497,-4.3497,-4.3497,-4.3497,-4.3497,-4.3497,-4.3497,-4.3497,-4.3497,-4.3497,-4.3497,-4.3497,-4.3497,-4.3497,-4.3497,-4.3497,-4.3497,-4.3497,-4.3497,-4.3497,-4.3497,-4.3497,-4.3497,-4.3497,-4.3497,-4.3497,-4.3497,-4.3497,-4.3497,-4.3497,-4.3497,-4.3497,-4.3497,-4.3497,-4.3497,-4.3497,-4.3497,-4.3497,-4.3497,-4.3497,-4.3497,-4.3497,-4.3497,-4.3497,-4.3497,-4.3497,-4.3497,-4.3497,-4.3497,-4.3497,-4.3497,-4.3497,-4.3497,-4.3497,-4.3497,-4.3497,-4.3497,-4.3497,-4.3497,-4.3497,-4.3497,-4.3497,-4.3497,-4.3497,-4.3497,-4.3497,-4.3497,-4.3497,-4.3497,0.0,0.0,0.0,0.0,0.0,0.0,0.0,0.0,0.0,0.0,0.0,0.0,0.0,0.0,0.0,0.0,0.0,0.0,0.0,0.0,0.0,0.0,0.0,0.0,0.0,0.0,0.0,0.0,0.0,0.0,0.0,0.0,0.0,0.0,-4.0506,-4.0928,-4.1001,-4.1717,-4.2121,0.0,-4.3002,-4.3387,-4.3387,-4.3461,-4.3497,-4.3497,-4.3497,-4.3497,-4.3497,-4.3497,-4.3497,-4.3497,-4.3497,-4.3497,-4.3497,-4.3497,-4.3497,-4.3497,-4.3497,-4.3497,-4.3497,-4.3497,-4.3497,-4.3497,-4.3497,-4.3497,-4.3497,-4.3497,-4.3497,-4.3497,-4.3497,-4.3497,-4.3497,-4.3497,-4.3497,-4.3497,-4.3497,-4.3497,-4.3497,-4.3497,-4.3497,-4.3497,-4.3497,-4.3497,-4.3497,-4.3497,-4.3497,-4.3497,-4.3497,-4.3497,-4.3497,-4.3497,-4.3497,-4.3497,-4.3497,-4.3497,-4.3497,-4.3497,-4.3497,-4.3497,-4.3497,-4.3497,-4.3497,-4.3497,-4.3497,-4.3497,-4.3497,-4.3497,-4.3497,-4.3497,-4.3497,-4.3497,0.0,0.0,0.0,0.0,0.0,0.0,0.0,0.0,0.0,0.0,0.0,0.0,0.0,0.0,0.0,0.0,0.0,0.0,0.0,0.0,0.0,0.0,0.0,0.0,0.0,0.0,0.0,0.0,0.0,0.0,0.0,0.0,0.0,-3.8964,-3.9129,-3.9515,-4.0157,-4.0322,-4.0726,0.0,-4.2176,-4.2561,-4.258,-4.3204,-4.3497,-4.3497,-4.3497,-4.3497,-4.3497,-4.3497,-4.3497,-4.3497,-4.3497,-4.3497,-4.3497,-4.3497,-4.3497,-4.3497,-4.3497,-4.3497,-4.3497,-4.3497,-4.3497,-4.3497,-4.3497,-4.3497,-4.3497,-4.3497,-4.3497,-4.3497,-4.3497,-4.3497,-4.3497,-4.3497,-4.3497,-4.3497,-4.3497,-4.3497,-4.3497,-4.3497,-4.3497,-4.3497,-4.3497,-4.3497,-4.3497,-4.3497,-4.3497,-4.3497,-4.3497,-4.3497,-4.3497,-4.3497,-4.3497,-4.3497,-4.3497,-4.3497,-4.3497,-4.3497,-4.3497,-4.3497,-4.3497,-4.3497,-4.3497,-4.3497,-4.3497,-4.3497,-4.3497,-4.3497,-4.3497,-4.3497,-4.3497,-4.3497,0.0,0.0,0.0,0.0,0.0,0.0,0.0,0.0,0.0,0.0,0.0,0.0,0.0,0.0,0.0,0.0,0.0,0.0,0.0,0.0,0.0,0.0,0.0,0.0,0.0,0.0,0.0,0.0,0.0,0.0,0.0,-3.8707,-3.8707,-3.8707,-3.8707,-3.8909,-3.9313,-3.9698,-4.0102,-4.0543,-4.135,-4.1735,-4.1772,-4.2947,-4.3497,-4.3497,-4.3497,-4.3497,-4.3497,-4.3497,-4.3497,-4.3497,-4.3497,-4.3497,-4.3497,-4.3497,-4.3497,-4.3497,-4.3497,-4.3497,-4.3497,-4.3497,-4.3497,-4.3497,-4.3497,-4.3497,-4.3497,-4.3497,-4.3497,-4.3497,-4.3497,-4.3497,-4.3497,-4.3497,-4.3497,-4.3497,-4.3497,-4.3497,-4.3497,-4.3497,-4.3497,-4.3497,-4.3497,-4.3497,-4.3497,-4.3497,-4.3497,-4.3497,-4.3497,-4.3497,-4.3497,-4.3497,-4.3497,-4.3497,-4.3497,-4.3497,-4.3497,-4.3497,-4.3497,-4.3497,-4.3497,-4.3497,-4.3497,-4.3497,-4.3497,-4.3497,-4.3497,-4.3497,-4.3497,-4.3497,-4.3497,-4.3497,0.0,0.0,0.0,0.0,0.0,0.0,0.0,0.0,0.0,0.0,0.0,0.0,0.0,0.0,0.0,0.0,0.0,0.0,0.0,0.0,0.0,0.0,0.0,0.0,0.0,0.0,0.0,0.0,0.0,0.0,-3.8707,-3.8707,-3.8707,-3.8707,-3.8707,-3.8707,-3.8707,-3.935,-3.968,-3.9698,-4.0506,-4.0983,-4.1167,-4.2488,-4.3149,-4.3296,-4.3424,-4.3497,-4.3497,-4.3497,-4.3497,-4.3497,-4.3497,-4.3497,-4.3497,-4.3497,-4.3497,-4.3497,-4.3497,-4.3497,-4.3497,-4.3497,-4.3497,-4.3497,-4.3497,-4.3497,-4.3497,-4.3497,-4.3497,-4.3497,-4.3497,-4.3497,-4.3497,-4.3497,-4.3497,-4.3497,-4.3497,-4.3497,-4.3497,-4.3497,-4.3497,-4.3497,-4.3497,-4.3497,-4.3497,-4.3497,-4.3497,-4.3497,-4.3497,-4.3497,-4.3497,-4.3497,-4.3497,-4.3497,-4.3497,-4.3497,-4.3497,-4.3497,-4.3497,-4.3497,-4.3497,-4.3497,-4.3497,-4.3497,-4.3497,-4.3497,-4.3497,-4.3497,-4.3497,-4.3497,-4.3497,-4.3497,0.0,0.0,0.0,0.0,0.0,0.0,0.0,0.0,0.0,0.0,0.0,0.0,0.0,0.0,0.0,0.0,0.0,0.0,0.0,0.0,0.0,0.0,0.0,0.0,0.0,0.0,0.0,0.0,0.0,0.0,-3.8707,-3.8707,-3.8707,-3.8707,-3.8707,-3.8707,-3.8707,-3.8817,-3.8854,-3.8872,-3.968,-4.0432,-4.113,-4.1332,-4.1809,-4.2506,-4.3185,-4.3497,-4.3497,-4.3497,-4.3497,-4.3497,-4.3497,-4.3497,-4.3497,-4.3497,-4.3497,-4.3497,-4.3497,-4.3497,-4.3497,-4.3497,-4.3497,-4.3497,-4.3497,-4.3497,-4.3497,-4.3497,-4.3497,-4.3497,-4.3497,-4.3497,-4.3497,-4.3497,-4.3497,-4.3497,-4.3497,-4.3497,-4.3497,-4.3497,-4.3497,-4.3497,-4.3497,-4.3497,-4.3497,-4.3497,-4.3497,-4.3497,-4.3497,-4.3497,-4.3497,-4.3497,-4.3497,-4.3497,-4.3497,-4.3497,-4.3497,-4.3497,-4.3497,-4.3497,-4.3497,-4.3497,-4.3497,-4.3497,-4.3497,-4.3497,-4.3497,-4.3497,-4.3497,-4.3497,-4.3497,-4.3497,0.0,0.0,0.0,0.0,0.0,0.0,0.0,0.0,0.0,0.0,0.0,0.0,0.0,0.0,0.0,0.0,0.0,0.0,0.0,0.0,0.0,0.0,0.0,0.0,0.0,0.0,0.0,0.0,0.0,-3.8707,-3.8707,-3.8707,-3.8707,-3.8707,-3.8707,-3.8707,-3.8707,-3.8707,-3.8707,-3.8707,-3.9056,-3.9405,-3.9772,-4.023,-4.1111,-4.2323,-4.2671,-4.3075,-4.3497,-4.3497,-4.3497,-4.3497,-4.3497,-4.3497,-4.3497,-4.3497,-4.3497,-4.3497,-4.3497,-4.3497,-4.3497,-4.3497,-4.3497,-4.3497,-4.3497,-4.3497,-4.3497,-4.3497,-4.3497,-4.3497,-4.3497,-4.3497,-4.3497,-4.3497,-4.3497,-4.3497,-4.3497,-4.3497,-4.3497,-4.3497,-4.3497,-4.3497,-4.3497,-4.3497,-4.3497,-4.3497,-4.3497,-4.3497,-4.3497,-4.3497,-4.3497,-4.3497,-4.3497,-4.3497,-4.3497,-4.3497,-4.3497,-4.3497,-4.3497,-4.3497,-4.3497,-4.3497,-4.3497,-4.3497,-4.3497,-4.3497,-4.3497,-4.3497,-4.3497,-4.3497,-4.3497,-4.3497,0.0,0.0,0.0,0.0,0.0,0.0,0.0,0.0,0.0,0.0,0.0,0.0,0.0,0.0,0.0,0.0,0.0,0.0,0.0,0.0,0.0,0.0,0.0,0.0,0.0,0.0,0.0,0.0,0.0,-3.8083,-3.8083,-3.8083,-3.8175,-3.8395,-3.8395,-3.8487,-3.8707,-3.8707,-3.8707,-3.8707,-3.8707,-3.8707,-3.8726,-3.9313,-4.0359,-4.1717,-4.2121,-4.2635,-4.3204,-4.3406,-4.3497,-4.3497,-4.3497,-4.3497,-4.3497,-4.3497,-4.3497,-4.3497,-4.3497,-4.3497,-4.3497,-4.3497,-4.3497,-4.3497,-4.3497,-4.3497,-4.3497,-4.3497,-4.3497,-4.3497,-4.3497,-4.3497,-4.3497,-4.3497,-4.3497,-4.3497,-4.3497,-4.3497,-4.3497,-4.3497,-4.3497,-4.3497,-4.3497,-4.3497,-4.3497,-4.3497,-4.3497,-4.3497,-4.3497,-4.3497,-4.3497,-4.3497,-4.3497,-4.3497,-4.3497,-4.3497,-4.3497,-4.3497,-4.3497,-4.3497,-4.3497,-4.3497,-4.3497,-4.3497,-4.3497,-4.3497,-4.3497,-4.3497,-4.3497,-4.3497,-4.3497,-4.3497,0.0,0.0,0.0,0.0,0.0,0.0,0.0,0.0,0.0,0.0,0.0,0.0,0.0,0.0,0.0,0.0,0.0,0.0,0.0,0.0,0.0,0.0,0.0,0.0,0.0,0.0,0.0,0.0,0.0,-3.6413,-3.6413,-3.6413,-3.6762,-3.7533,-3.7551,-3.7918,-3.8689,-3.8707,-3.8707,-3.8707,-3.8707,-3.8707,-3.8707,-3.8744,-3.9221,-4.0102,-4.1644,-4.2323,-4.2415,-4.3185,-4.3497,-4.3497,-4.3497,-4.3497,-4.3497,-4.3497,-4.3497,-4.3497,-4.3497,-4.3497,-4.3497,-4.3497,-4.3497,-4.3497,-4.3497,-4.3497,-4.3497,-4.3497,-4.3497,-4.3497,-4.3497,-4.3497,-4.3497,-4.3497,-4.3497,-4.3497,-4.3497,-4.3497,-4.3497,-4.3497,-4.3497,-4.3497,-4.3497,-4.3497,-4.3497,-4.3497,-4.3497,-4.3497,-4.3497,-4.3497,-4.3497,-4.3497,-4.3497,-4.3497,-4.3497,-4.3497,-4.3497,-4.3497,-4.3497,-4.3497,-4.3497,-4.3497,-4.3497,-4.3497,-4.3497,-4.3497,-4.3497,-4.3497,-4.3497,-4.3497,-4.3497,-4.3497,0.0,0.0,0.0,0.0,0.0,0.0,0.0,0.0,0.0,0.0,0.0,0.0,0.0,0.0,0.0,0.0,0.0,0.0,0.0,0.0,0.0,0.0,0.0,0.0,0.0,0.0,0.0,0.0,0.0,0.0,-3.6303,-3.6303,-3.6431,-3.6707,-3.6725,-3.711,-3.7918,-3.7918,-3.8193,-3.8707,-3.8707,-3.8707,-3.8707,-3.8707,-3.8854,-3.9184,-4.0286,-4.1056,-4.1589,-4.2396,-4.2727,-4.2782,-4.3296,-4.3497,-4.3497,-4.3497,-4.3497,-4.3497,-4.3497,-4.3497,-4.3497,-4.3497,-4.3497,-4.3497,-4.3497,-4.3497,-4.3497,-4.3497,-4.3497,-4.3497,-4.3497,-4.3497,-4.3497,-4.3497,-4.3497,-4.3497,-4.3497,-4.3497,-4.3497,-4.3497,-4.3497,-4.3497,-4.3497,-4.3497,-4.3497,-4.3497,-4.3497,-4.3497,-4.3497,-4.3497,-4.3497,-4.3497,-4.3497,-4.3497,-4.3497,-4.3497,-4.3497,-4.3497,-4.3497,-4.3497,-4.3497,-4.3497,-4.3497,-4.3497,-4.3497,-4.3497,-4.3497,-4.3497,-4.3497,-4.3497,-4.3497,-4.3497,-1.5808,0.0,0.0,0.0,0.0,0.0,0.0,0.0,0.0,0.0,0.0,0.0,0.0,0.0,0.0,0.0,0.0,0.0,0.0,0.0,0.0,0.0,0.0,0.0,0.0,0.0,0.0,0.0,0.0,0.0,-3.5459,-3.5459,-3.5587,-3.5862,-3.6156,-3.656,-3.7074,-3.7092,-3.7496,-3.8303,-3.8303,-3.8432,-3.8707,-3.8707,-3.8707,-3.8726,-3.9276,-3.9955,-4.0781,-4.1864,-4.2304,-4.2378,-4.3185,-4.3497,-4.3497,-4.3497,-4.3497,-4.3497,-4.3497,-4.3497,-4.3497,-4.3497,-4.3497,-4.3497,-4.3497,-4.3497,-4.3497,-4.3497,-4.3497,-4.3497,-4.3497,-4.3497,-4.3497,-4.3497,-4.3497,-4.3497,-4.3497,-4.3497,-4.3497,-4.3497,-4.3497,-4.3497,-4.3497,-4.3497,-4.3497,-4.3497,-4.3497,-4.3497,-4.3497,-4.3497,-4.3497,-4.3497,-4.3497,-4.3497,-4.3497,-4.3497,-4.3497,-4.3497,-4.3497,-4.3497,-4.3497,-4.3497,-4.3497,-4.3497,-4.3497,-4.3497,-4.3497,-4.3497,-4.3497,-4.3497,-4.3497,-4.3497,0.0,0.0,0.0,0.0,0.0,0.0,0.0,0.0,0.0,0.0,0.0,0.0,0.0,0.0,0.0,0.0,0.0,0.0,0.0,0.0,0.0,0.0,0.0,0.0,0.0,0.0,0.0,0.0,0.0,-3.3807,-3.3807,-3.3807,-3.4174,-3.4935,-3.5789,-3.6229,-3.6266,-3.6266,-3.6652,-3.7441,-3.7459,-3.79,-3.867,-3.8689,-3.8707,-3.8707,-3.8707,-3.9148,-3.9974,-4.157,-4.2249,-4.2341,-4.3149,-4.3461,-4.3497,-4.3497,-4.3497,-4.3497,-4.3497,-4.3497,-4.3497,-4.3497,-4.3497,-4.3497,-4.3497,-4.3497,-4.3497,-4.3497,-4.3497,-4.3497,-4.3497,-4.3497,-4.3497,-4.3497,-4.3497,-4.3497,-4.3497,-4.3497,-4.3497,-4.3497,-4.3497,-4.3497,-4.3497,-4.3497,-4.3497,-4.3497,-4.3497,-4.3497,-4.3497,-4.3497,-4.3497,-4.3497,-4.3497,-4.3497,-4.3497,-4.3497,-4.3497,-4.3497,-4.3497,-4.3497,-4.3497,-4.3497,-4.3497,-4.3497,-4.3497,-4.3497,-4.3497,-4.3497,-4.3497,-4.3497,-4.3497,-4.3497,-1.5362,0.0,0.0,0.0,0.0,0.0,0.0,0.0,0.0,0.0,0.0,0.0,0.0,0.0,0.0,0.0,0.0,0.0,0.0,0.0,0.0,0.0,0.0,0.0,0.0,0.0,0.0,0.0,-3.3522,-3.3494,-3.3762,-3.3807,-3.3899,-3.4119,-3.4376,-3.478,-3.5367,-3.5089,-3.5508,-3.6633,-3.6875,-3.7307,-3.7845,-3.8432,-3.8707,-3.8707,-3.8707,-3.8836,-3.9111,-4.0139,-4.091,-4.1515,-4.2323,-4.2983,-4.3497,-4.3497,-4.3497,-4.3497,-4.3497,-4.3497,-4.3497,-4.3497,-4.3497,-4.3497,-4.3497,-4.3497,-4.3497,-4.3497,-4.3497,-4.3497,-4.3497,-4.3497,-4.3497,-4.3497,-4.3497,-4.3497,-4.3497,-4.3497,-4.3497,-4.3497,-4.3497,-4.3497,-4.3497,-4.3497,-4.3497,-4.3497,-4.3497,-4.3497,-4.3497,-4.3497,-4.3497,-4.3497,-4.3497,-4.3497,-4.3497,-4.3497,-4.3497,-4.3497,-4.3497,-4.3497,-4.3497,-4.3497,-4.3497,-4.3497,-4.3497,-4.3497,-4.3497,-4.3497,-4.3497,-4.3497,-4.3497,-4.3497,-1.646,-1.6946,0.0,0.0,0.0,0.0,0.0,0.0,0.0,0.0,0.0,0.0,0.0,0.0,0.0,0.0,0.0,0.0,0.0,0.0,0.0,0.0,0.0,0.0,0.0,0.0,0.0,-3.3522,-3.3136,-3.3105,-3.3522,-3.3707,-3.3807,-3.3807,-3.3807,-3.4027,-3.4504,-3.4262,-3.4681,-3.5771,-3.5957,-3.6571,-3.7514,-3.7973,-3.8377,-3.8707,-3.8707,-3.8707,-3.8744,-3.9203,-3.9863,-4.0689,-4.1497,-4.2286,-4.3002,-4.3002,-4.3204,-4.3497,-4.3497,-4.3497,-4.3497,-4.3497,-4.3497,-4.3497,-4.3497,-4.3497,-4.3497,-4.3497,-4.3497,-4.3497,-4.3497,-4.3497,-4.3497,-4.3497,-4.3497,-4.3497,-4.3497,-4.3497,-4.3497,-4.3497,-4.3497,-4.3497,-4.3497,-4.3497,-4.3497,-4.3497,-4.3497,-4.3497,-4.3497,-4.3497,-4.3497,-4.3497,-4.3497,-4.3497,-4.3497,-4.3497,-4.3497,-4.3497,-4.3497,-4.3497,-4.3497,-4.3497,-4.3497,-4.3497,-4.3497,-4.3497,-4.3497,-4.3497,-4.3497,-4.3497,-4.3497,-4.3497,-1.7749,-1.8084,-1.8772,0.0,0.0,0.0,0.0,-2.1527,0.0,0.0,0.0,0.0,0.0,0.0,0.0,0.0,0.0,0.0,0.0,0.0,0.0,0.0,0.0,0.0,0.0,-3.3164,-3.2961,-3.2943,-3.2599,-3.2588,-3.3057,-3.3496,-3.3734,-3.3807,-3.3807,-3.3807,-3.3807,-3.3762,-3.4101,-3.4862,-3.4879,-3.5685,-3.7221,-3.7356,-3.7833,-3.8579,-3.867,-3.8707,-3.8707,-3.8707,-3.9166,-3.9955,-4.0689,-4.146,-4.2176,-4.2268,-4.2745,-4.3369,-4.3461,-4.3497,-4.3497,-4.3497,-4.3497,-4.3497,-4.3497,-4.3497,-4.3497,-4.3497,-4.3497,-4.3497,-4.3497,-4.3497,-4.3497,-4.3497,-4.3497,-4.3497,-4.3497,-4.3497,-4.3497,-4.3497,-4.3497,-4.3497,-4.3497,-4.3497,-4.3497,-4.3497,-4.3497,-4.3497,-4.3497,-4.3497,-4.3497,-4.3497,-4.3497,-4.3497,-4.3497,-4.3497,-4.3497,-4.3497,-4.3497,-4.3497,-4.3497,-4.3497,-4.3497,-4.3497,-4.3497,-4.3497,-4.3497,-4.3497,-4.3497,-4.3497,-4.3497,-4.3497,-1.919,0.0,0.0,0.0,0.0,0.0,0.0,-1.8748,0.0,0.0,0.0,0.0,0.0,0.0,0.0,0.0,0.0,0.0,0.0,0.0,0.0,0.0,0.0,0.0,0.0,-3.1502,-3.1279,-3.1335,-3.1523,-3.18,-3.2275,-3.2958,-3.3465,-3.3788,-3.3807,-3.3807,-3.3807,-3.3494,-3.3567,-3.4045,-3.4001,-3.4501,-3.5522,-3.6485,-3.7239,-3.7753,-3.8414,-3.8707,-3.8707,-3.8707,-3.9166,-3.9918,-4.0065,-4.0634,-4.1423,-4.2066,-4.2396,-4.2635,-4.3277,-4.3497,-4.3497,-4.3497,-4.3497,-4.3497,-4.3497,-4.3497,-4.3497,-4.3497,-4.3497,-4.3497,-4.3497,-4.3497,-4.3497,-4.3497,-4.3497,-4.3497,-4.3497,-4.3497,-4.3497,-4.3497,-4.3497,-4.3497,-4.3497,-4.3497,-4.3497,-4.3497,-4.3497,-4.3497,-4.3497,-4.3497,-4.3497,-4.3497,-4.3497,-4.3497,-4.3497,-4.3497,-4.3497,-4.3497,-4.3497,-4.3497,-4.3497,-4.3497,-4.3497,-4.3497,-4.3497,-4.3497,-4.3497,-4.3497,-4.3497,-4.3497,-4.3497,-4.3497,0.0,0.0,0.0,-1.9935,0.0,0.0,0.0,0.0,0.0,0.0,0.0,0.0,0.0,0.0,0.0,0.0,0.0,0.0,0.0,0.0,0.0,0.0,0.0,0.0,0.0,-3.0427,-3.0428,-3.0216,-3.0395,-3.0607,-3.0845,-3.1619,-3.2325,-3.2921,-3.3121,-3.3385,-3.3807,-3.3606,-3.3606,-3.3807,-3.3789,-3.4189,-3.5027,-3.5641,-3.6492,-3.7514,-3.7918,-3.8322,-3.8707,-3.8707,-3.8946,-3.9294,-3.9294,-3.979,-4.0561,-4.0946,-4.1607,-4.2359,-4.2763,-4.3149,-4.3497,-4.3497,-4.3497,-4.3497,-4.3497,-4.3497,-4.3497,-4.3497,-4.3497,-4.3497,-4.3497,-4.3497,-4.3497,-4.3497,-4.3497,-4.3497,-4.3497,-4.3497,-4.3497,-4.3497,-4.3497,-4.3497,-4.3497,-4.3497,-4.3497,-4.3497,-4.3497,-4.3497,-4.3497,-4.3497,-4.3497,-4.3497,-4.3497,-4.3497,-4.3497,-4.3497,-4.3497,-4.3497,-4.3497,-4.3497,-4.3497,-4.3497,-4.3497,-4.3497,-4.3497,-4.3497,-4.3497,-4.3497,-4.3497,-4.3497,-4.3497,-4.3497,0.0,0.0,0.0,0.0,0.0,-2.1562,0.0,0.0,0.0,-2.2306,0.0,0.0,0.0,0.0,0.0,0.0,0.0,0.0,0.0,0.0,0.0,0.0,0.0,0.0,0.0,-2.88,-2.8983,-2.888,-2.8848,-2.9003,-2.9363,-3.0189,-3.0984,-3.1748,-3.2238,-3.2802,-3.3469,-3.3688,-3.3807,-3.3807,-3.3734,-3.4055,-3.477,-3.4757,-3.5572,-3.7019,-3.7106,-3.7638,-3.8469,-3.8469,-3.856,-3.8707,-3.8707,-3.9093,-3.968,-3.9827,-4.0708,-4.1864,-4.2029,-4.2598,-4.3259,-4.3259,-4.3369,-4.3497,-4.3497,-4.3497,-4.3497,-4.3497,-4.3497,-4.3497,-4.3497,-4.3497,-4.3497,-4.3497,-4.3497,-4.3497,-4.3497,-4.3497,-4.3497,-4.3497,-4.3497,-4.3497,-4.3497,-4.3497,-4.3497,-4.3497,-4.3497,-4.3497,-4.3497,-4.3497,-4.3497,-4.3497,-4.3497,-4.3497,-4.3497,-4.3497,-4.3497,-4.3497,-4.3497,-4.3497,-4.3497,-4.3497,-4.3497,-4.3497,-4.3497,-4.3497,-4.3497,-4.3497,-4.3497,-4.3497,-4.3497,-4.3497,0.0,0.0,0.0,0.0,-2.2175,0.0,0.0,0.0,-2.0968,-2.0467,0.0,0.0,0.0,0.0,0.0,0.0,0.0,0.0,0.0,0.0,0.0,0.0,0.0,0.0,0.0,0.0,-2.5234,-2.6472,-2.6236,-2.6802,-2.8531,-2.9323,-2.9983,-3.0493,-3.1593,-3.2198,-3.227,-3.3305,-3.3807,-3.3807,-3.3437,-3.3502,-3.3927,-3.3872,-3.4366,-3.5302,-3.5654,-3.6497,-3.7624,-3.7624,-3.8046,-3.8707,-3.8707,-3.8762,-3.8927,-3.9643,-4.001,-4.0267,-4.1001,-4.1772,-4.2433,-4.2433,-4.291,-4.3497,-4.3497,-4.3497,-4.3497,-4.3497,-4.3497,-4.3497,-4.3497,-4.3497,-4.3497,-4.3497,-4.3497,-4.3497,-4.3497,-4.3497,-4.3497,-4.3497,-4.3497,-4.3497,-4.3497,-4.3497,-4.3497,-4.3497,-4.3497,-4.3497,-4.3497,-4.3497,-4.3497,-4.3497,-4.3497,-4.3497,-4.3497,-4.3497,-4.3497,-4.3497,-4.3497,-4.3497,-4.3497,-4.3497,-4.3497,-4.3497,-4.3497,-4.3497,-4.3497,-4.3497,-4.3497,-4.3497,-4.3497,-4.3497,0.0,0.0,0.0,0.0,0.0,0.0,0.0,0.0,-2.1211,0.0,0.0,0.0,0.0,0.0,0.0,0.0,0.0,0.0,0.0,0.0,0.0,0.0,0.0,0.0,0.0,0.0,0.0,0.0,0.0,-2.506,-2.6732,-2.7348,-2.8122,-2.9232,-3.0379,-3.135,-3.2087,-3.3009,-3.3578,-3.3807,-3.3625,-3.3652,-3.378,-3.3539,-3.3844,-3.4654,-3.4523,-3.5231,-3.6443,-3.6916,-3.746,-3.8046,-3.8524,-3.8707,-3.8744,-3.9074,-3.9496,-3.9937,-4.0286,-4.0928,-4.168,-4.2158,-4.2837,-4.3497,-4.3497,-4.3497,-4.3497,-4.3497,-4.3497,-4.3497,-4.3497,-4.3497,-4.3497,-4.3497,-4.3497,-4.3497,-4.3497,-4.3497,-4.3497,-4.3497,-4.3497,-4.3497,-4.3497,-4.3497,-4.3497,-4.3497,-4.3497,-4.3497,-4.3497,-4.3497,-4.3497,-4.3497,-4.3497,-4.3497,-4.3497,-4.3497,-4.3497,-4.3497,-4.3497,-4.3497,-4.3497,-4.3497,-4.3497,-4.3497,-4.3497,-4.3497,-4.3497,-4.3497,-4.3497,-4.3497,-4.3497,-4.3497,-2.24,0.0,0.0,0.0,0.0,0.0,0.0,0.0,0.0,0.0,0.0,0.0,0.0,0.0,0.0,0.0,0.0,0.0,0.0,0.0,0.0,0.0,0.0,0.0,0.0,0.0,0.0,0.0,0.0,0.0,-2.522,-2.5757,-2.6544,-2.7661,-2.8998,-3.0269,-3.1387,-3.2403,-3.3161,-3.3652,-3.3734,-3.3734,-3.3606,-3.3196,-3.3337,-3.3844,-3.3383,-3.3995,-3.5327,-3.6154,-3.6867,-3.7599,-3.8395,-3.8707,-3.8707,-3.8707,-3.9074,-3.957,-3.957,-4.0102,-4.0946,-4.1974,-4.269,-4.3204,-4.3424,-4.3497,-4.3497,-4.3497,-4.3497,-4.3497,-4.3497,-4.3497,-4.3497,-4.3497,-4.3497,-4.3497,-4.3497,-4.3497,-4.3497,-4.3497,-4.3497,-4.3497,-4.3497,-4.3497,-4.3497,-4.3497,-4.3497,-4.3497,-4.3497,-4.3497,-4.3497,-4.3497,-4.3497,-4.3497,-4.3497,-4.3497,-4.3497,-4.3497,-4.3497,-4.3497,-4.3497,-4.3497,-4.3497,-4.3497,-4.3497,-4.3497,-4.3497,-4.3497,-4.3497,-4.3497,-4.3497,-4.3497,0.0,0.0,0.0,-2.1653,0.0,0.0,0.0,0.0,-2.3122,0.0,0.0,0.0,0.0,0.0,-2.0906,-2.012,-2.0002,0.0,0.0,0.0,0.0,0.0,0.0,0.0,0.0,0.0,0.0,0.0,0.0,0.0,-2.4438,-2.5203,-2.5625,-2.5676,-2.7543,-2.891,-2.969,-3.1291,-3.2502,-3.3214,-3.3606,-3.3597,-3.3214,-3.2745,-3.2535,-3.2519,-3.2056,-3.2842,-3.4514,-3.5291,-3.6357,-3.7599,-3.8395,-3.8707,-3.8707,-3.8707,-3.8726,-3.8744,-3.8744,-3.9276,-4.0194,-4.1791,-4.2323,-4.2488,-4.3259,-4.3497,-4.3497,-4.3497,-4.3497,-4.3497,-4.3497,-4.3497,-4.3497,-4.3497,-4.3497,-4.3497,-4.3497,-4.3497,-4.3497,-4.3497,-4.3497,-4.3497,-4.3497,-4.3497,-4.3497,-4.3497,-4.3497,-4.3497,-4.3497,-4.3497,-4.3497,-4.3497,-4.3497,-4.3497,-4.3497,-4.3497,-4.3497,-4.3497,-4.3497,-4.3497,-4.3497,-4.3497,-4.3497,-4.3497,-4.3497,-4.3497,-4.3497,-4.3497,-4.3497,-4.3497,-4.3497,-4.3497,0.0,0.0,-2.3673,-2.2434,0.0,0.0,0.0,0.0,0.0,0.0,0.0,0.0,0.0,0.0,-2.1092,-2.0839,-1.9942,-1.8927,0.0,0.0,0.0,0.0,0.0,0.0,0.0,0.0,0.0,0.0,0.0,0.0,0.0,-2.4458,-2.5101,-2.5592,-2.7165,-2.8321,-2.886,-3.0407,-3.16,-3.2484,-3.2793,-3.3045,-3.3184,-3.24,-3.2039,-3.1986,-3.1582,-3.1888,-3.2756,-3.3583,-3.4845,-3.6326,-3.7126,-3.7729,-3.8216,-3.8578,-3.8707,-3.8658,-3.83,-3.8944,-3.9942,-4.0102,-4.1134,-4.2359,-4.2616,-4.3075,-4.3497,-4.3497,-4.3497,-4.3497,-4.3497,-4.3497,-4.3497,-4.3497,-4.3497,-4.3497,-4.3497,-4.3497,-4.3497,-4.3497,-4.3497,-4.3497,-4.3497,-4.3497,-4.3497,-4.3497,-4.3497,-4.3497,-4.3497,-4.3497,-4.3497,-4.3497,-4.3497,-4.3497,-4.3497,-4.3497,-4.3497,-4.3497,-4.3497,-4.3497,-4.3497,-4.3497,-4.3497,-4.3497,-4.3497,-4.3497,-4.3497,-4.3497,-4.3497,-4.3497,-4.3497,-4.3497,-2.3127,-2.3453,0.0,-2.2586,-2.2898,0.0,-2.2249,0.0,0.0,0.0,0.0,0.0,0.0,0.0,-2.1427,-2.1005,-1.9992,-1.8944,0.0,0.0,0.0,0.0,0.0,0.0,0.0,0.0,-1.9891,-2.1465,0.0,0.0,0.0,0.0,-2.4712,-2.5186,-2.664,-2.7675,-2.825,-2.9366,-3.048,-3.1617,-3.2135,-3.2478,-3.2695,-3.2264,-3.1861,-3.1565,-3.1329,-3.1411,-3.1877,-3.2748,-3.397,-3.5388,-3.6195,-3.6985,-3.772,-3.8234,-3.8318,-3.8135,-3.7773,-3.8323,-3.9185,-3.9134,-4.0375,-4.1937,-4.2213,-4.2855,-4.3497,-4.3497,-4.3497,-4.3497,-4.3497,-4.3497,-4.3497,-4.3497,-4.3497,-4.3497,-4.3497,-4.3497,-4.3497,-4.3497,-4.3497,-4.3497,-4.3497,-4.3497,-4.3497,-4.3497,-4.3497,-4.3497,-4.3497,-4.3497,-4.3497,-4.3497,-4.3497,-4.3497,-4.3497,-4.3497,-4.3497,-4.3497,-4.3497,-4.3497,-4.3497,-4.3497,-4.3497,-4.3497,-4.3497,-4.3497,-4.3497,-4.3497,-4.3497,-4.3497,-4.3497,-4.3497]}]]